<?xml version="1.0" encoding="UTF-8" standalone="no" ?>
<gpx xmlns="http://www.topografix.com/GPX/1/1" xmlns:xsi="http://www.w3.org/2001/XMLSchema-instance" xsi:schemaLocation="http://www.topografix.com/GPX/1/1 http://www.topografix.com/GPX/1/1/gpx.xsd" version="1.1" creator="VisuGPX - https://www.visugpx.com">
  <metadata>
    <name>La Volcane PP 2023</name>
  </metadata>
  <wpt lat="45.89144" lon="2.8653">
    <ele>788.9</ele>
    <name><![CDATA[Point de parcou]]></name>
    <type><![CDATA[GENERIC]]></type>
  </wpt>
  <wpt lat="45.88762" lon="2.91377">
    <ele>854.3</ele>
    <name><![CDATA[Point de parcou]]></name>
    <type><![CDATA[GENERIC]]></type>
  </wpt>
  <trk>
    <name><![CDATA[La Volcane PP 2023]]></name>
    <trkseg>
      <trkpt lat="45.87319" lon="3.04302">
        <ele>478</ele>
        <time>2023-04-14T15:18:32.000Z</time>
      </trkpt>
      <trkpt lat="45.87319" lon="3.04301">
        <ele>478</ele>
        <time>2023-04-14T15:18:32.000Z</time>
      </trkpt>
      <trkpt lat="45.87289" lon="3.04308">
        <ele>479</ele>
        <time>2023-04-14T15:18:32.005Z</time>
      </trkpt>
      <trkpt lat="45.87266" lon="3.04323">
        <ele>480</ele>
        <time>2023-04-14T15:18:32.014Z</time>
      </trkpt>
      <trkpt lat="45.87262" lon="3.04326">
        <ele>480</ele>
        <time>2023-04-14T15:18:32.024Z</time>
      </trkpt>
      <trkpt lat="45.87262" lon="3.04326">
        <ele>481</ele>
        <time>2023-04-14T15:18:32.034Z</time>
      </trkpt>
      <trkpt lat="45.87225" lon="3.04356">
        <ele>482</ele>
        <time>2023-04-14T15:18:32.051Z</time>
      </trkpt>
      <trkpt lat="45.87222" lon="3.04365">
        <ele>483</ele>
        <time>2023-04-14T15:18:32.069Z</time>
      </trkpt>
      <trkpt lat="45.87219" lon="3.04402">
        <ele>484</ele>
        <time>2023-04-14T15:18:32.091Z</time>
      </trkpt>
      <trkpt lat="45.87221" lon="3.04432">
        <ele>484</ele>
        <time>2023-04-14T15:18:32.116Z</time>
      </trkpt>
      <trkpt lat="45.87219" lon="3.04478">
        <ele>485</ele>
        <time>2023-04-14T15:18:32.146Z</time>
      </trkpt>
      <trkpt lat="45.87214" lon="3.04577">
        <ele>486</ele>
        <time>2023-04-14T15:18:32.187Z</time>
      </trkpt>
      <trkpt lat="45.87214" lon="3.04583">
        <ele>486</ele>
        <time>2023-04-14T15:18:32.229Z</time>
      </trkpt>
      <trkpt lat="45.87208" lon="3.04586">
        <ele>486</ele>
        <time>2023-04-14T15:18:32.272Z</time>
      </trkpt>
      <trkpt lat="45.87188" lon="3.04621">
        <ele>487</ele>
        <time>2023-04-14T15:18:32.320Z</time>
      </trkpt>
      <trkpt lat="45.87169" lon="3.04642">
        <ele>487</ele>
        <time>2023-04-14T15:18:32.372Z</time>
      </trkpt>
      <trkpt lat="45.87156" lon="3.04651">
        <ele>487</ele>
        <time>2023-04-14T15:18:32.426Z</time>
      </trkpt>
      <trkpt lat="45.87125" lon="3.04659">
        <ele>487</ele>
        <time>2023-04-14T15:18:32.485Z</time>
      </trkpt>
      <trkpt lat="45.87106" lon="3.04657">
        <ele>487</ele>
        <time>2023-04-14T15:18:32.547Z</time>
      </trkpt>
      <trkpt lat="45.87089" lon="3.04649">
        <ele>487</ele>
        <time>2023-04-14T15:18:32.612Z</time>
      </trkpt>
      <trkpt lat="45.87073" lon="3.04636">
        <ele>487</ele>
        <time>2023-04-14T15:18:32.680Z</time>
      </trkpt>
      <trkpt lat="45.8705" lon="3.04606">
        <ele>487</ele>
        <time>2023-04-14T15:18:32.753Z</time>
      </trkpt>
      <trkpt lat="45.87028" lon="3.04571">
        <ele>487</ele>
        <time>2023-04-14T15:18:32.831Z</time>
      </trkpt>
      <trkpt lat="45.8702" lon="3.0455">
        <ele>487</ele>
        <time>2023-04-14T15:18:32.912Z</time>
      </trkpt>
      <trkpt lat="45.87005" lon="3.04493">
        <ele>488</ele>
        <time>2023-04-14T15:18:33.000Z</time>
      </trkpt>
      <trkpt lat="45.86994" lon="3.04464">
        <ele>488</ele>
        <time>2023-04-14T15:18:33.092Z</time>
      </trkpt>
      <trkpt lat="45.86968" lon="3.04427">
        <ele>489</ele>
        <time>2023-04-14T15:18:33.190Z</time>
      </trkpt>
      <trkpt lat="45.86952" lon="3.04412">
        <ele>489</ele>
        <time>2023-04-14T15:18:33.291Z</time>
      </trkpt>
      <trkpt lat="45.86921" lon="3.04389">
        <ele>489</ele>
        <time>2023-04-14T15:18:33.397Z</time>
      </trkpt>
      <trkpt lat="45.86905" lon="3.04374">
        <ele>490</ele>
        <time>2023-04-14T15:18:33.506Z</time>
      </trkpt>
      <trkpt lat="45.86887" lon="3.04345">
        <ele>490</ele>
        <time>2023-04-14T15:18:33.620Z</time>
      </trkpt>
      <trkpt lat="45.86875" lon="3.04312">
        <ele>491</ele>
        <time>2023-04-14T15:18:33.738Z</time>
      </trkpt>
      <trkpt lat="45.86872" lon="3.04293">
        <ele>491</ele>
        <time>2023-04-14T15:18:33.858Z</time>
      </trkpt>
      <trkpt lat="45.86872" lon="3.04275">
        <ele>491</ele>
        <time>2023-04-14T15:18:33.980Z</time>
      </trkpt>
      <trkpt lat="45.86875" lon="3.04248">
        <ele>491</ele>
        <time>2023-04-14T15:18:34.105Z</time>
      </trkpt>
      <trkpt lat="45.869" lon="3.04138">
        <ele>492</ele>
        <time>2023-04-14T15:18:34.243Z</time>
      </trkpt>
      <trkpt lat="45.86927" lon="3.04021">
        <ele>492</ele>
        <time>2023-04-14T15:18:34.395Z</time>
      </trkpt>
      <trkpt lat="45.86932" lon="3.03989">
        <ele>493</ele>
        <time>2023-04-14T15:18:34.550Z</time>
      </trkpt>
      <trkpt lat="45.86932" lon="3.03942">
        <ele>493</ele>
        <time>2023-04-14T15:18:34.711Z</time>
      </trkpt>
      <trkpt lat="45.86919" lon="3.0389">
        <ele>493</ele>
        <time>2023-04-14T15:18:34.878Z</time>
      </trkpt>
      <trkpt lat="45.86892" lon="3.03821">
        <ele>493</ele>
        <time>2023-04-14T15:18:35.054Z</time>
      </trkpt>
      <trkpt lat="45.86891" lon="3.03819">
        <ele>493</ele>
        <time>2023-04-14T15:18:35.230Z</time>
      </trkpt>
      <trkpt lat="45.86892" lon="3.03819">
        <ele>493</ele>
        <time>2023-04-14T15:18:35.406Z</time>
      </trkpt>
      <trkpt lat="45.86876" lon="3.03782">
        <ele>493</ele>
        <time>2023-04-14T15:18:35.587Z</time>
      </trkpt>
      <trkpt lat="45.86857" lon="3.038">
        <ele>493</ele>
        <time>2023-04-14T15:18:35.772Z</time>
      </trkpt>
      <trkpt lat="45.8684" lon="3.03826">
        <ele>492</ele>
        <time>2023-04-14T15:18:35.961Z</time>
      </trkpt>
      <trkpt lat="45.86828" lon="3.03838">
        <ele>492</ele>
        <time>2023-04-14T15:18:36.152Z</time>
      </trkpt>
      <trkpt lat="45.8678" lon="3.0387">
        <ele>491</ele>
        <time>2023-04-14T15:18:36.351Z</time>
      </trkpt>
      <trkpt lat="45.867" lon="3.03917">
        <ele>490</ele>
        <time>2023-04-14T15:18:36.564Z</time>
      </trkpt>
      <trkpt lat="45.866" lon="3.03971">
        <ele>489</ele>
        <time>2023-04-14T15:18:36.794Z</time>
      </trkpt>
      <trkpt lat="45.86538" lon="3.03998">
        <ele>488</ele>
        <time>2023-04-14T15:18:37.035Z</time>
      </trkpt>
      <trkpt lat="45.86513" lon="3.03997">
        <ele>487</ele>
        <time>2023-04-14T15:18:37.280Z</time>
      </trkpt>
      <trkpt lat="45.86506" lon="3.03995">
        <ele>486</ele>
        <time>2023-04-14T15:18:37.526Z</time>
      </trkpt>
      <trkpt lat="45.86505" lon="3.03993">
        <ele>485</ele>
        <time>2023-04-14T15:18:37.772Z</time>
      </trkpt>
      <trkpt lat="45.865" lon="3.03992">
        <ele>485</ele>
        <time>2023-04-14T15:18:38.019Z</time>
      </trkpt>
      <trkpt lat="45.86496" lon="3.03993">
        <ele>484</ele>
        <time>2023-04-14T15:18:38.267Z</time>
      </trkpt>
      <trkpt lat="45.86492" lon="3.03996">
        <ele>483</ele>
        <time>2023-04-14T15:18:38.515Z</time>
      </trkpt>
      <trkpt lat="45.8649" lon="3.04001">
        <ele>482</ele>
        <time>2023-04-14T15:18:38.764Z</time>
      </trkpt>
      <trkpt lat="45.86489" lon="3.04003">
        <ele>481</ele>
        <time>2023-04-14T15:18:39.013Z</time>
      </trkpt>
      <trkpt lat="45.86467" lon="3.04019">
        <ele>480</ele>
        <time>2023-04-14T15:18:39.266Z</time>
      </trkpt>
      <trkpt lat="45.86449" lon="3.04025">
        <ele>480</ele>
        <time>2023-04-14T15:18:39.522Z</time>
      </trkpt>
      <trkpt lat="45.86441" lon="3.04027">
        <ele>479</ele>
        <time>2023-04-14T15:18:39.779Z</time>
      </trkpt>
      <trkpt lat="45.86414" lon="3.04036">
        <ele>478</ele>
        <time>2023-04-14T15:18:40.041Z</time>
      </trkpt>
      <trkpt lat="45.86407" lon="3.04037">
        <ele>477</ele>
        <time>2023-04-14T15:18:40.304Z</time>
      </trkpt>
      <trkpt lat="45.86395" lon="3.04046">
        <ele>477</ele>
        <time>2023-04-14T15:18:40.569Z</time>
      </trkpt>
      <trkpt lat="45.86387" lon="3.04053">
        <ele>476</ele>
        <time>2023-04-14T15:18:40.836Z</time>
      </trkpt>
      <trkpt lat="45.86382" lon="3.04059">
        <ele>476</ele>
        <time>2023-04-14T15:18:41.104Z</time>
      </trkpt>
      <trkpt lat="45.86382" lon="3.04058">
        <ele>475</ele>
        <time>2023-04-14T15:18:41.372Z</time>
      </trkpt>
      <trkpt lat="45.86374" lon="3.04069">
        <ele>475</ele>
        <time>2023-04-14T15:18:41.642Z</time>
      </trkpt>
      <trkpt lat="45.86367" lon="3.04072">
        <ele>474</ele>
        <time>2023-04-14T15:18:41.913Z</time>
      </trkpt>
      <trkpt lat="45.86365" lon="3.04072">
        <ele>474</ele>
        <time>2023-04-14T15:18:42.184Z</time>
      </trkpt>
      <trkpt lat="45.86361" lon="3.04073">
        <ele>474</ele>
        <time>2023-04-14T15:18:42.456Z</time>
      </trkpt>
      <trkpt lat="45.86357" lon="3.04076">
        <ele>473</ele>
        <time>2023-04-14T15:18:42.728Z</time>
      </trkpt>
      <trkpt lat="45.86354" lon="3.0408">
        <ele>473</ele>
        <time>2023-04-14T15:18:43.001Z</time>
      </trkpt>
      <trkpt lat="45.86336" lon="3.04089">
        <ele>473</ele>
        <time>2023-04-14T15:18:43.277Z</time>
      </trkpt>
      <trkpt lat="45.86317" lon="3.04096">
        <ele>473</ele>
        <time>2023-04-14T15:18:43.556Z</time>
      </trkpt>
      <trkpt lat="45.86309" lon="3.04102">
        <ele>473</ele>
        <time>2023-04-14T15:18:43.837Z</time>
      </trkpt>
      <trkpt lat="45.86296" lon="3.04109">
        <ele>473</ele>
        <time>2023-04-14T15:18:44.120Z</time>
      </trkpt>
      <trkpt lat="45.86277" lon="3.04123">
        <ele>473</ele>
        <time>2023-04-14T15:18:44.406Z</time>
      </trkpt>
      <trkpt lat="45.86224" lon="3.04175">
        <ele>473</ele>
        <time>2023-04-14T15:18:44.703Z</time>
      </trkpt>
      <trkpt lat="45.86152" lon="3.04251">
        <ele>472</ele>
        <time>2023-04-14T15:18:45.014Z</time>
      </trkpt>
      <trkpt lat="45.86128" lon="3.04272">
        <ele>473</ele>
        <time>2023-04-14T15:18:45.329Z</time>
      </trkpt>
      <trkpt lat="45.86112" lon="3.04281">
        <ele>473</ele>
        <time>2023-04-14T15:18:45.647Z</time>
      </trkpt>
      <trkpt lat="45.85992" lon="3.04338">
        <ele>473</ele>
        <time>2023-04-14T15:18:45.985Z</time>
      </trkpt>
      <trkpt lat="45.85862" lon="3.04394">
        <ele>474</ele>
        <time>2023-04-14T15:18:46.345Z</time>
      </trkpt>
      <trkpt lat="45.85833" lon="3.04402">
        <ele>474</ele>
        <time>2023-04-14T15:18:46.710Z</time>
      </trkpt>
      <trkpt lat="45.85821" lon="3.04402">
        <ele>474</ele>
        <time>2023-04-14T15:18:47.077Z</time>
      </trkpt>
      <trkpt lat="45.85799" lon="3.04394">
        <ele>475</ele>
        <time>2023-04-14T15:18:47.447Z</time>
      </trkpt>
      <trkpt lat="45.85744" lon="3.0436">
        <ele>475</ele>
        <time>2023-04-14T15:18:47.827Z</time>
      </trkpt>
      <trkpt lat="45.8572" lon="3.0435">
        <ele>476</ele>
        <time>2023-04-14T15:18:48.211Z</time>
      </trkpt>
      <trkpt lat="45.85694" lon="3.04347">
        <ele>476</ele>
        <time>2023-04-14T15:18:48.599Z</time>
      </trkpt>
      <trkpt lat="45.85649" lon="3.04356">
        <ele>477</ele>
        <time>2023-04-14T15:18:48.994Z</time>
      </trkpt>
      <trkpt lat="45.85635" lon="3.04361">
        <ele>478</ele>
        <time>2023-04-14T15:18:49.392Z</time>
      </trkpt>
      <trkpt lat="45.85562" lon="3.04382">
        <ele>478</ele>
        <time>2023-04-14T15:18:49.802Z</time>
      </trkpt>
      <trkpt lat="45.85536" lon="3.04399">
        <ele>479</ele>
        <time>2023-04-14T15:18:50.216Z</time>
      </trkpt>
      <trkpt lat="45.85513" lon="3.04416">
        <ele>480</ele>
        <time>2023-04-14T15:18:50.634Z</time>
      </trkpt>
      <trkpt lat="45.85513" lon="3.04416">
        <ele>481</ele>
        <time>2023-04-14T15:18:51.052Z</time>
      </trkpt>
      <trkpt lat="45.85513" lon="3.04415">
        <ele>482</ele>
        <time>2023-04-14T15:18:51.471Z</time>
      </trkpt>
      <trkpt lat="45.85483" lon="3.04443">
        <ele>483</ele>
        <time>2023-04-14T15:18:51.895Z</time>
      </trkpt>
      <trkpt lat="45.8545" lon="3.04464">
        <ele>484</ele>
        <time>2023-04-14T15:18:52.325Z</time>
      </trkpt>
      <trkpt lat="45.85432" lon="3.0447">
        <ele>485</ele>
        <time>2023-04-14T15:18:52.758Z</time>
      </trkpt>
      <trkpt lat="45.85291" lon="3.04505">
        <ele>486</ele>
        <time>2023-04-14T15:18:53.214Z</time>
      </trkpt>
      <trkpt lat="45.85266" lon="3.0451">
        <ele>487</ele>
        <time>2023-04-14T15:18:53.674Z</time>
      </trkpt>
      <trkpt lat="45.85234" lon="3.04522">
        <ele>488</ele>
        <time>2023-04-14T15:18:54.139Z</time>
      </trkpt>
      <trkpt lat="45.85198" lon="3.04543">
        <ele>489</ele>
        <time>2023-04-14T15:18:54.610Z</time>
      </trkpt>
      <trkpt lat="45.85164" lon="3.04568">
        <ele>490</ele>
        <time>2023-04-14T15:18:55.088Z</time>
      </trkpt>
      <trkpt lat="45.85115" lon="3.04602">
        <ele>492</ele>
        <time>2023-04-14T15:18:55.574Z</time>
      </trkpt>
      <trkpt lat="45.85073" lon="3.04625">
        <ele>493</ele>
        <time>2023-04-14T15:18:56.067Z</time>
      </trkpt>
      <trkpt lat="45.85041" lon="3.04635">
        <ele>495</ele>
        <time>2023-04-14T15:18:56.566Z</time>
      </trkpt>
      <trkpt lat="45.85006" lon="3.04644">
        <ele>496</ele>
        <time>2023-04-14T15:18:57.070Z</time>
      </trkpt>
      <trkpt lat="45.84961" lon="3.04656">
        <ele>498</ele>
        <time>2023-04-14T15:18:57.582Z</time>
      </trkpt>
      <trkpt lat="45.84946" lon="3.04662">
        <ele>500</ele>
        <time>2023-04-14T15:18:58.096Z</time>
      </trkpt>
      <trkpt lat="45.84826" lon="3.04692">
        <ele>502</ele>
        <time>2023-04-14T15:18:58.630Z</time>
      </trkpt>
      <trkpt lat="45.84793" lon="3.04698">
        <ele>504</ele>
        <time>2023-04-14T15:18:59.169Z</time>
      </trkpt>
      <trkpt lat="45.84775" lon="3.04695">
        <ele>506</ele>
        <time>2023-04-14T15:18:59.711Z</time>
      </trkpt>
      <trkpt lat="45.84757" lon="3.04689">
        <ele>509</ele>
        <time>2023-04-14T15:19:00.256Z</time>
      </trkpt>
      <trkpt lat="45.84737" lon="3.04679">
        <ele>511</ele>
        <time>2023-04-14T15:19:00.804Z</time>
      </trkpt>
      <trkpt lat="45.84728" lon="3.04672">
        <ele>513</ele>
        <time>2023-04-14T15:19:01.354Z</time>
      </trkpt>
      <trkpt lat="45.84652" lon="3.046">
        <ele>515</ele>
        <time>2023-04-14T15:19:01.919Z</time>
      </trkpt>
      <trkpt lat="45.84573" lon="3.04524">
        <ele>518</ele>
        <time>2023-04-14T15:19:02.499Z</time>
      </trkpt>
      <trkpt lat="45.84552" lon="3.04508">
        <ele>520</ele>
        <time>2023-04-14T15:19:03.083Z</time>
      </trkpt>
      <trkpt lat="45.84539" lon="3.04502">
        <ele>522</ele>
        <time>2023-04-14T15:19:03.669Z</time>
      </trkpt>
      <trkpt lat="45.84514" lon="3.04497">
        <ele>524</ele>
        <time>2023-04-14T15:19:04.259Z</time>
      </trkpt>
      <trkpt lat="45.84494" lon="3.04496">
        <ele>526</ele>
        <time>2023-04-14T15:19:04.852Z</time>
      </trkpt>
      <trkpt lat="45.84473" lon="3.045">
        <ele>528</ele>
        <time>2023-04-14T15:19:05.448Z</time>
      </trkpt>
      <trkpt lat="45.84453" lon="3.04509">
        <ele>529</ele>
        <time>2023-04-14T15:19:06.048Z</time>
      </trkpt>
      <trkpt lat="45.84433" lon="3.04523">
        <ele>531</ele>
        <time>2023-04-14T15:19:06.651Z</time>
      </trkpt>
      <trkpt lat="45.84392" lon="3.04564">
        <ele>532</ele>
        <time>2023-04-14T15:19:07.262Z</time>
      </trkpt>
      <trkpt lat="45.84392" lon="3.04564">
        <ele>534</ele>
        <time>2023-04-14T15:19:07.873Z</time>
      </trkpt>
      <trkpt lat="45.84317" lon="3.04642">
        <ele>535</ele>
        <time>2023-04-14T15:19:08.499Z</time>
      </trkpt>
      <trkpt lat="45.84298" lon="3.04658">
        <ele>536</ele>
        <time>2023-04-14T15:19:09.129Z</time>
      </trkpt>
      <trkpt lat="45.84278" lon="3.04671">
        <ele>537</ele>
        <time>2023-04-14T15:19:09.762Z</time>
      </trkpt>
      <trkpt lat="45.84241" lon="3.04686">
        <ele>538</ele>
        <time>2023-04-14T15:19:10.401Z</time>
      </trkpt>
      <trkpt lat="45.84226" lon="3.04689">
        <ele>538</ele>
        <time>2023-04-14T15:19:11.043Z</time>
      </trkpt>
      <trkpt lat="45.84213" lon="3.0469">
        <ele>539</ele>
        <time>2023-04-14T15:19:11.687Z</time>
      </trkpt>
      <trkpt lat="45.84204" lon="3.04686">
        <ele>539</ele>
        <time>2023-04-14T15:19:12.332Z</time>
      </trkpt>
      <trkpt lat="45.84197" lon="3.04678">
        <ele>540</ele>
        <time>2023-04-14T15:19:12.979Z</time>
      </trkpt>
      <trkpt lat="45.8419" lon="3.0467">
        <ele>540</ele>
        <time>2023-04-14T15:19:13.627Z</time>
      </trkpt>
      <trkpt lat="45.84181" lon="3.04666">
        <ele>540</ele>
        <time>2023-04-14T15:19:14.277Z</time>
      </trkpt>
      <trkpt lat="45.84172" lon="3.04667">
        <ele>540</ele>
        <time>2023-04-14T15:19:14.928Z</time>
      </trkpt>
      <trkpt lat="45.84162" lon="3.04676">
        <ele>540</ele>
        <time>2023-04-14T15:19:15.581Z</time>
      </trkpt>
      <trkpt lat="45.84157" lon="3.04687">
        <ele>539</ele>
        <time>2023-04-14T15:19:16.236Z</time>
      </trkpt>
      <trkpt lat="45.84151" lon="3.04696">
        <ele>539</ele>
        <time>2023-04-14T15:19:16.892Z</time>
      </trkpt>
      <trkpt lat="45.8414" lon="3.04703">
        <ele>538</ele>
        <time>2023-04-14T15:19:17.550Z</time>
      </trkpt>
      <trkpt lat="45.84128" lon="3.04709">
        <ele>538</ele>
        <time>2023-04-14T15:19:18.210Z</time>
      </trkpt>
      <trkpt lat="45.84114" lon="3.04713">
        <ele>537</ele>
        <time>2023-04-14T15:19:18.872Z</time>
      </trkpt>
      <trkpt lat="45.84082" lon="3.04725">
        <ele>536</ele>
        <time>2023-04-14T15:19:19.539Z</time>
      </trkpt>
      <trkpt lat="45.84006" lon="3.04768">
        <ele>536</ele>
        <time>2023-04-14T15:19:20.220Z</time>
      </trkpt>
      <trkpt lat="45.83879" lon="3.04849">
        <ele>534</ele>
        <time>2023-04-14T15:19:20.923Z</time>
      </trkpt>
      <trkpt lat="45.8386" lon="3.04862">
        <ele>533</ele>
        <time>2023-04-14T15:19:21.629Z</time>
      </trkpt>
      <trkpt lat="45.83802" lon="3.04896">
        <ele>532</ele>
        <time>2023-04-14T15:19:22.345Z</time>
      </trkpt>
      <trkpt lat="45.83779" lon="3.04902">
        <ele>531</ele>
        <time>2023-04-14T15:19:23.065Z</time>
      </trkpt>
      <trkpt lat="45.83767" lon="3.04901">
        <ele>530</ele>
        <time>2023-04-14T15:19:23.787Z</time>
      </trkpt>
      <trkpt lat="45.83749" lon="3.049">
        <ele>529</ele>
        <time>2023-04-14T15:19:24.512Z</time>
      </trkpt>
      <trkpt lat="45.83749" lon="3.04897">
        <ele>528</ele>
        <time>2023-04-14T15:19:25.237Z</time>
      </trkpt>
      <trkpt lat="45.83738" lon="3.04897">
        <ele>527</ele>
        <time>2023-04-14T15:19:25.964Z</time>
      </trkpt>
      <trkpt lat="45.83738" lon="3.04897">
        <ele>526</ele>
        <time>2023-04-14T15:19:26.691Z</time>
      </trkpt>
      <trkpt lat="45.83707" lon="3.0488">
        <ele>525</ele>
        <time>2023-04-14T15:19:27.423Z</time>
      </trkpt>
      <trkpt lat="45.83655" lon="3.04832">
        <ele>524</ele>
        <time>2023-04-14T15:19:28.165Z</time>
      </trkpt>
      <trkpt lat="45.83596" lon="3.04771">
        <ele>523</ele>
        <time>2023-04-14T15:19:28.919Z</time>
      </trkpt>
      <trkpt lat="45.83509" lon="3.04659">
        <ele>522</ele>
        <time>2023-04-14T15:19:29.691Z</time>
      </trkpt>
      <trkpt lat="45.83509" lon="3.04659">
        <ele>521</ele>
        <time>2023-04-14T15:19:30.463Z</time>
      </trkpt>
      <trkpt lat="45.834" lon="3.04506">
        <ele>520</ele>
        <time>2023-04-14T15:19:31.260Z</time>
      </trkpt>
      <trkpt lat="45.83375" lon="3.04453">
        <ele>520</ele>
        <time>2023-04-14T15:19:32.064Z</time>
      </trkpt>
      <trkpt lat="45.83294" lon="3.04491">
        <ele>519</ele>
        <time>2023-04-14T15:19:32.882Z</time>
      </trkpt>
      <trkpt lat="45.83258" lon="3.045">
        <ele>517</ele>
        <time>2023-04-14T15:19:33.706Z</time>
      </trkpt>
      <trkpt lat="45.83175" lon="3.04484">
        <ele>516</ele>
        <time>2023-04-14T15:19:34.543Z</time>
      </trkpt>
      <trkpt lat="45.83143" lon="3.04438">
        <ele>515</ele>
        <time>2023-04-14T15:19:35.387Z</time>
      </trkpt>
      <trkpt lat="45.8313" lon="3.04428">
        <ele>514</ele>
        <time>2023-04-14T15:19:36.234Z</time>
      </trkpt>
      <trkpt lat="45.83113" lon="3.0443">
        <ele>513</ele>
        <time>2023-04-14T15:19:37.083Z</time>
      </trkpt>
      <trkpt lat="45.83099" lon="3.04447">
        <ele>512</ele>
        <time>2023-04-14T15:19:37.935Z</time>
      </trkpt>
      <trkpt lat="45.83089" lon="3.04539">
        <ele>510</ele>
        <time>2023-04-14T15:19:38.798Z</time>
      </trkpt>
      <trkpt lat="45.83089" lon="3.04539">
        <ele>509</ele>
        <time>2023-04-14T15:19:39.661Z</time>
      </trkpt>
      <trkpt lat="45.83078" lon="3.04562">
        <ele>507</ele>
        <time>2023-04-14T15:19:40.527Z</time>
      </trkpt>
      <trkpt lat="45.83038" lon="3.04605">
        <ele>506</ele>
        <time>2023-04-14T15:19:41.401Z</time>
      </trkpt>
      <trkpt lat="45.8299" lon="3.04635">
        <ele>504</ele>
        <time>2023-04-14T15:19:42.283Z</time>
      </trkpt>
      <trkpt lat="45.82892" lon="3.04668">
        <ele>503</ele>
        <time>2023-04-14T15:19:43.181Z</time>
      </trkpt>
      <trkpt lat="45.82866" lon="3.04677">
        <ele>501</ele>
        <time>2023-04-14T15:19:44.084Z</time>
      </trkpt>
      <trkpt lat="45.82837" lon="3.04682">
        <ele>500</ele>
        <time>2023-04-14T15:19:44.991Z</time>
      </trkpt>
      <trkpt lat="45.82837" lon="3.04682">
        <ele>498</ele>
        <time>2023-04-14T15:19:45.898Z</time>
      </trkpt>
      <trkpt lat="45.82778" lon="3.04645">
        <ele>497</ele>
        <time>2023-04-14T15:19:46.816Z</time>
      </trkpt>
      <trkpt lat="45.82762" lon="3.04645">
        <ele>496</ele>
        <time>2023-04-14T15:19:47.736Z</time>
      </trkpt>
      <trkpt lat="45.82749" lon="3.04657">
        <ele>494</ele>
        <time>2023-04-14T15:19:48.659Z</time>
      </trkpt>
      <trkpt lat="45.82737" lon="3.0471">
        <ele>493</ele>
        <time>2023-04-14T15:19:49.588Z</time>
      </trkpt>
      <trkpt lat="45.82719" lon="3.04749">
        <ele>491</ele>
        <time>2023-04-14T15:19:50.522Z</time>
      </trkpt>
      <trkpt lat="45.82691" lon="3.04794">
        <ele>490</ele>
        <time>2023-04-14T15:19:51.463Z</time>
      </trkpt>
      <trkpt lat="45.82666" lon="3.04815">
        <ele>488</ele>
        <time>2023-04-14T15:19:52.409Z</time>
      </trkpt>
      <trkpt lat="45.82466" lon="3.04865">
        <ele>487</ele>
        <time>2023-04-14T15:19:53.387Z</time>
      </trkpt>
      <trkpt lat="45.82359" lon="3.04922">
        <ele>485</ele>
        <time>2023-04-14T15:19:54.383Z</time>
      </trkpt>
      <trkpt lat="45.82305" lon="3.04962">
        <ele>484</ele>
        <time>2023-04-14T15:19:55.389Z</time>
      </trkpt>
      <trkpt lat="45.82287" lon="3.04964">
        <ele>483</ele>
        <time>2023-04-14T15:19:56.398Z</time>
      </trkpt>
      <trkpt lat="45.8224" lon="3.04946">
        <ele>482</ele>
        <time>2023-04-14T15:19:57.415Z</time>
      </trkpt>
      <trkpt lat="45.82212" lon="3.04945">
        <ele>481</ele>
        <time>2023-04-14T15:19:58.436Z</time>
      </trkpt>
      <trkpt lat="45.82212" lon="3.04945">
        <ele>480</ele>
        <time>2023-04-14T15:19:59.457Z</time>
      </trkpt>
      <trkpt lat="45.82082" lon="3.04964">
        <ele>479</ele>
        <time>2023-04-14T15:20:00.499Z</time>
      </trkpt>
      <trkpt lat="45.81991" lon="3.04951">
        <ele>479</ele>
        <time>2023-04-14T15:20:01.556Z</time>
      </trkpt>
      <trkpt lat="45.81991" lon="3.04951">
        <ele>478</ele>
        <time>2023-04-14T15:20:02.613Z</time>
      </trkpt>
      <trkpt lat="45.81971" lon="3.04948">
        <ele>477</ele>
        <time>2023-04-14T15:20:03.673Z</time>
      </trkpt>
      <trkpt lat="45.81951" lon="3.04948">
        <ele>477</ele>
        <time>2023-04-14T15:20:04.736Z</time>
      </trkpt>
      <trkpt lat="45.81918" lon="3.04949">
        <ele>476</ele>
        <time>2023-04-14T15:20:05.805Z</time>
      </trkpt>
      <trkpt lat="45.81903" lon="3.04942">
        <ele>476</ele>
        <time>2023-04-14T15:20:06.876Z</time>
      </trkpt>
      <trkpt lat="45.81888" lon="3.04921">
        <ele>476</ele>
        <time>2023-04-14T15:20:07.950Z</time>
      </trkpt>
      <trkpt lat="45.81875" lon="3.04897">
        <ele>475</ele>
        <time>2023-04-14T15:20:09.028Z</time>
      </trkpt>
      <trkpt lat="45.81864" lon="3.04886">
        <ele>475</ele>
        <time>2023-04-14T15:20:10.108Z</time>
      </trkpt>
      <trkpt lat="45.81844" lon="3.04876">
        <ele>475</ele>
        <time>2023-04-14T15:20:11.191Z</time>
      </trkpt>
      <trkpt lat="45.818" lon="3.04867">
        <ele>475</ele>
        <time>2023-04-14T15:20:12.281Z</time>
      </trkpt>
      <trkpt lat="45.81758" lon="3.0486">
        <ele>475</ele>
        <time>2023-04-14T15:20:13.378Z</time>
      </trkpt>
      <trkpt lat="45.81741" lon="3.04863">
        <ele>475</ele>
        <time>2023-04-14T15:20:14.478Z</time>
      </trkpt>
      <trkpt lat="45.81729" lon="3.04869">
        <ele>474</ele>
        <time>2023-04-14T15:20:15.580Z</time>
      </trkpt>
      <trkpt lat="45.81713" lon="3.04882">
        <ele>474</ele>
        <time>2023-04-14T15:20:16.685Z</time>
      </trkpt>
      <trkpt lat="45.81688" lon="3.04907">
        <ele>474</ele>
        <time>2023-04-14T15:20:17.795Z</time>
      </trkpt>
      <trkpt lat="45.81669" lon="3.04922">
        <ele>474</ele>
        <time>2023-04-14T15:20:18.908Z</time>
      </trkpt>
      <trkpt lat="45.81657" lon="3.04927">
        <ele>474</ele>
        <time>2023-04-14T15:20:20.023Z</time>
      </trkpt>
      <trkpt lat="45.81647" lon="3.04929">
        <ele>474</ele>
        <time>2023-04-14T15:20:21.140Z</time>
      </trkpt>
      <trkpt lat="45.81634" lon="3.04928">
        <ele>474</ele>
        <time>2023-04-14T15:20:22.259Z</time>
      </trkpt>
      <trkpt lat="45.81613" lon="3.04924">
        <ele>474</ele>
        <time>2023-04-14T15:20:23.381Z</time>
      </trkpt>
      <trkpt lat="45.81579" lon="3.04917">
        <ele>474</ele>
        <time>2023-04-14T15:20:24.509Z</time>
      </trkpt>
      <trkpt lat="45.81564" lon="3.04915">
        <ele>474</ele>
        <time>2023-04-14T15:20:25.639Z</time>
      </trkpt>
      <trkpt lat="45.81542" lon="3.04918">
        <ele>474</ele>
        <time>2023-04-14T15:20:26.773Z</time>
      </trkpt>
      <trkpt lat="45.81527" lon="3.04924">
        <ele>474</ele>
        <time>2023-04-14T15:20:27.909Z</time>
      </trkpt>
      <trkpt lat="45.81526" lon="3.04923">
        <ele>474</ele>
        <time>2023-04-14T15:20:29.046Z</time>
      </trkpt>
      <trkpt lat="45.81469" lon="3.04955">
        <ele>474</ele>
        <time>2023-04-14T15:20:30.192Z</time>
      </trkpt>
      <trkpt lat="45.81456" lon="3.04962">
        <ele>474</ele>
        <time>2023-04-14T15:20:31.341Z</time>
      </trkpt>
      <trkpt lat="45.81447" lon="3.04964">
        <ele>474</ele>
        <time>2023-04-14T15:20:32.491Z</time>
      </trkpt>
      <trkpt lat="45.81423" lon="3.04978">
        <ele>474</ele>
        <time>2023-04-14T15:20:33.645Z</time>
      </trkpt>
      <trkpt lat="45.81419" lon="3.04977">
        <ele>474</ele>
        <time>2023-04-14T15:20:34.800Z</time>
      </trkpt>
      <trkpt lat="45.81413" lon="3.04979">
        <ele>473</ele>
        <time>2023-04-14T15:20:35.956Z</time>
      </trkpt>
      <trkpt lat="45.81409" lon="3.04982">
        <ele>473</ele>
        <time>2023-04-14T15:20:37.113Z</time>
      </trkpt>
      <trkpt lat="45.81406" lon="3.04988">
        <ele>473</ele>
        <time>2023-04-14T15:20:38.270Z</time>
      </trkpt>
      <trkpt lat="45.81385" lon="3.04987">
        <ele>473</ele>
        <time>2023-04-14T15:20:39.431Z</time>
      </trkpt>
      <trkpt lat="45.81378" lon="3.0499">
        <ele>473</ele>
        <time>2023-04-14T15:20:40.593Z</time>
      </trkpt>
      <trkpt lat="45.8137" lon="3.04991">
        <ele>473</ele>
        <time>2023-04-14T15:20:41.756Z</time>
      </trkpt>
      <trkpt lat="45.81349" lon="3.05003">
        <ele>473</ele>
        <time>2023-04-14T15:20:42.923Z</time>
      </trkpt>
      <trkpt lat="45.81329" lon="3.0501">
        <ele>473</ele>
        <time>2023-04-14T15:20:44.093Z</time>
      </trkpt>
      <trkpt lat="45.81325" lon="3.0501">
        <ele>473</ele>
        <time>2023-04-14T15:20:45.264Z</time>
      </trkpt>
      <trkpt lat="45.81324" lon="3.0501">
        <ele>473</ele>
        <time>2023-04-14T15:20:46.435Z</time>
      </trkpt>
      <trkpt lat="45.81323" lon="3.0501">
        <ele>473</ele>
        <time>2023-04-14T15:20:47.606Z</time>
      </trkpt>
      <trkpt lat="45.81299" lon="3.05006">
        <ele>473</ele>
        <time>2023-04-14T15:20:48.781Z</time>
      </trkpt>
      <trkpt lat="45.81274" lon="3.04993">
        <ele>473</ele>
        <time>2023-04-14T15:20:49.960Z</time>
      </trkpt>
      <trkpt lat="45.8126" lon="3.04988">
        <ele>473</ele>
        <time>2023-04-14T15:20:51.142Z</time>
      </trkpt>
      <trkpt lat="45.81247" lon="3.04986">
        <ele>473</ele>
        <time>2023-04-14T15:20:52.326Z</time>
      </trkpt>
      <trkpt lat="45.81235" lon="3.04986">
        <ele>473</ele>
        <time>2023-04-14T15:20:53.512Z</time>
      </trkpt>
      <trkpt lat="45.81204" lon="3.04994">
        <ele>473</ele>
        <time>2023-04-14T15:20:54.703Z</time>
      </trkpt>
      <trkpt lat="45.81093" lon="3.0503">
        <ele>473</ele>
        <time>2023-04-14T15:20:55.912Z</time>
      </trkpt>
      <trkpt lat="45.81072" lon="3.05032">
        <ele>473</ele>
        <time>2023-04-14T15:20:57.124Z</time>
      </trkpt>
      <trkpt lat="45.81046" lon="3.05027">
        <ele>473</ele>
        <time>2023-04-14T15:20:58.340Z</time>
      </trkpt>
      <trkpt lat="45.80994" lon="3.05011">
        <ele>474</ele>
        <time>2023-04-14T15:20:59.565Z</time>
      </trkpt>
      <trkpt lat="45.80896" lon="3.04989">
        <ele>474</ele>
        <time>2023-04-14T15:21:00.806Z</time>
      </trkpt>
      <trkpt lat="45.80854" lon="3.04979">
        <ele>475</ele>
        <time>2023-04-14T15:21:02.054Z</time>
      </trkpt>
      <trkpt lat="45.80831" lon="3.04976">
        <ele>475</ele>
        <time>2023-04-14T15:21:03.305Z</time>
      </trkpt>
      <trkpt lat="45.8082" lon="3.04981">
        <ele>476</ele>
        <time>2023-04-14T15:21:04.558Z</time>
      </trkpt>
      <trkpt lat="45.80811" lon="3.04989">
        <ele>476</ele>
        <time>2023-04-14T15:21:05.813Z</time>
      </trkpt>
      <trkpt lat="45.80804" lon="3.05">
        <ele>477</ele>
        <time>2023-04-14T15:21:07.069Z</time>
      </trkpt>
      <trkpt lat="45.80797" lon="3.05027">
        <ele>478</ele>
        <time>2023-04-14T15:21:08.329Z</time>
      </trkpt>
      <trkpt lat="45.80791" lon="3.05053">
        <ele>479</ele>
        <time>2023-04-14T15:21:09.592Z</time>
      </trkpt>
      <trkpt lat="45.80781" lon="3.05072">
        <ele>479</ele>
        <time>2023-04-14T15:21:10.857Z</time>
      </trkpt>
      <trkpt lat="45.80769" lon="3.05084">
        <ele>480</ele>
        <time>2023-04-14T15:21:12.125Z</time>
      </trkpt>
      <trkpt lat="45.8076" lon="3.05089">
        <ele>481</ele>
        <time>2023-04-14T15:21:13.394Z</time>
      </trkpt>
      <trkpt lat="45.80742" lon="3.05089">
        <ele>482</ele>
        <time>2023-04-14T15:21:14.666Z</time>
      </trkpt>
      <trkpt lat="45.80618" lon="3.05061">
        <ele>483</ele>
        <time>2023-04-14T15:21:15.958Z</time>
      </trkpt>
      <trkpt lat="45.8051" lon="3.05035">
        <ele>485</ele>
        <time>2023-04-14T15:21:17.268Z</time>
      </trkpt>
      <trkpt lat="45.80441" lon="3.05021">
        <ele>486</ele>
        <time>2023-04-14T15:21:18.589Z</time>
      </trkpt>
      <trkpt lat="45.80423" lon="3.05026">
        <ele>487</ele>
        <time>2023-04-14T15:21:19.913Z</time>
      </trkpt>
      <trkpt lat="45.80406" lon="3.05043">
        <ele>488</ele>
        <time>2023-04-14T15:21:21.240Z</time>
      </trkpt>
      <trkpt lat="45.80377" lon="3.05081">
        <ele>489</ele>
        <time>2023-04-14T15:21:22.574Z</time>
      </trkpt>
      <trkpt lat="45.80356" lon="3.05096">
        <ele>491</ele>
        <time>2023-04-14T15:21:23.911Z</time>
      </trkpt>
      <trkpt lat="45.80298" lon="3.05128">
        <ele>492</ele>
        <time>2023-04-14T15:21:25.258Z</time>
      </trkpt>
      <trkpt lat="45.80288" lon="3.05131">
        <ele>493</ele>
        <time>2023-04-14T15:21:26.607Z</time>
      </trkpt>
      <trkpt lat="45.80269" lon="3.05133">
        <ele>494</ele>
        <time>2023-04-14T15:21:27.959Z</time>
      </trkpt>
      <trkpt lat="45.80242" lon="3.05134">
        <ele>495</ele>
        <time>2023-04-14T15:21:29.315Z</time>
      </trkpt>
      <trkpt lat="45.80227" lon="3.05135">
        <ele>497</ele>
        <time>2023-04-14T15:21:30.674Z</time>
      </trkpt>
      <trkpt lat="45.80207" lon="3.05144">
        <ele>497</ele>
        <time>2023-04-14T15:21:32.036Z</time>
      </trkpt>
      <trkpt lat="45.80155" lon="3.0518">
        <ele>498</ele>
        <time>2023-04-14T15:21:33.407Z</time>
      </trkpt>
      <trkpt lat="45.80138" lon="3.05188">
        <ele>499</ele>
        <time>2023-04-14T15:21:34.781Z</time>
      </trkpt>
      <trkpt lat="45.80123" lon="3.05193">
        <ele>500</ele>
        <time>2023-04-14T15:21:36.158Z</time>
      </trkpt>
      <trkpt lat="45.80088" lon="3.05192">
        <ele>501</ele>
        <time>2023-04-14T15:21:37.540Z</time>
      </trkpt>
      <trkpt lat="45.80038" lon="3.05186">
        <ele>502</ele>
        <time>2023-04-14T15:21:38.930Z</time>
      </trkpt>
      <trkpt lat="45.80017" lon="3.05187">
        <ele>503</ele>
        <time>2023-04-14T15:21:40.324Z</time>
      </trkpt>
      <trkpt lat="45.79823" lon="3.05221">
        <ele>504</ele>
        <time>2023-04-14T15:21:41.749Z</time>
      </trkpt>
      <trkpt lat="45.79814" lon="3.05223">
        <ele>505</ele>
        <time>2023-04-14T15:21:43.175Z</time>
      </trkpt>
      <trkpt lat="45.79802" lon="3.05231">
        <ele>506</ele>
        <time>2023-04-14T15:21:44.603Z</time>
      </trkpt>
      <trkpt lat="45.7979" lon="3.05242">
        <ele>506</ele>
        <time>2023-04-14T15:21:46.034Z</time>
      </trkpt>
      <trkpt lat="45.79777" lon="3.05242">
        <ele>507</ele>
        <time>2023-04-14T15:21:47.467Z</time>
      </trkpt>
      <trkpt lat="45.79776" lon="3.05241">
        <ele>508</ele>
        <time>2023-04-14T15:21:48.900Z</time>
      </trkpt>
      <trkpt lat="45.79775" lon="3.0524">
        <ele>508</ele>
        <time>2023-04-14T15:21:50.333Z</time>
      </trkpt>
      <trkpt lat="45.79774" lon="3.05239">
        <ele>509</ele>
        <time>2023-04-14T15:21:51.766Z</time>
      </trkpt>
      <trkpt lat="45.79771" lon="3.05238">
        <ele>509</ele>
        <time>2023-04-14T15:21:53.200Z</time>
      </trkpt>
      <trkpt lat="45.79769" lon="3.05238">
        <ele>510</ele>
        <time>2023-04-14T15:21:54.634Z</time>
      </trkpt>
      <trkpt lat="45.79746" lon="3.05234">
        <ele>510</ele>
        <time>2023-04-14T15:21:56.072Z</time>
      </trkpt>
      <trkpt lat="45.79738" lon="3.05234">
        <ele>511</ele>
        <time>2023-04-14T15:21:57.511Z</time>
      </trkpt>
      <trkpt lat="45.79732" lon="3.05237">
        <ele>511</ele>
        <time>2023-04-14T15:21:58.951Z</time>
      </trkpt>
      <trkpt lat="45.79715" lon="3.05239">
        <ele>512</ele>
        <time>2023-04-14T15:22:00.394Z</time>
      </trkpt>
      <trkpt lat="45.79693" lon="3.05248">
        <ele>512</ele>
        <time>2023-04-14T15:22:01.841Z</time>
      </trkpt>
      <trkpt lat="45.79674" lon="3.05251">
        <ele>513</ele>
        <time>2023-04-14T15:22:03.291Z</time>
      </trkpt>
      <trkpt lat="45.79641" lon="3.0525">
        <ele>513</ele>
        <time>2023-04-14T15:22:04.746Z</time>
      </trkpt>
      <trkpt lat="45.79602" lon="3.05239">
        <ele>514</ele>
        <time>2023-04-14T15:22:06.207Z</time>
      </trkpt>
      <trkpt lat="45.79581" lon="3.05244">
        <ele>515</ele>
        <time>2023-04-14T15:22:07.672Z</time>
      </trkpt>
      <trkpt lat="45.79565" lon="3.05246">
        <ele>515</ele>
        <time>2023-04-14T15:22:09.139Z</time>
      </trkpt>
      <trkpt lat="45.79551" lon="3.05247">
        <ele>516</ele>
        <time>2023-04-14T15:22:10.609Z</time>
      </trkpt>
      <trkpt lat="45.79548" lon="3.05222">
        <ele>516</ele>
        <time>2023-04-14T15:22:12.081Z</time>
      </trkpt>
      <trkpt lat="45.79541" lon="3.05194">
        <ele>517</ele>
        <time>2023-04-14T15:22:13.557Z</time>
      </trkpt>
      <trkpt lat="45.79533" lon="3.05157">
        <ele>518</ele>
        <time>2023-04-14T15:22:15.037Z</time>
      </trkpt>
      <trkpt lat="45.79524" lon="3.05141">
        <ele>518</ele>
        <time>2023-04-14T15:22:16.519Z</time>
      </trkpt>
      <trkpt lat="45.79487" lon="3.05087">
        <ele>519</ele>
        <time>2023-04-14T15:22:18.010Z</time>
      </trkpt>
      <trkpt lat="45.79436" lon="3.05023">
        <ele>520</ele>
        <time>2023-04-14T15:22:19.512Z</time>
      </trkpt>
      <trkpt lat="45.7938" lon="3.0496">
        <ele>521</ele>
        <time>2023-04-14T15:22:21.025Z</time>
      </trkpt>
      <trkpt lat="45.79361" lon="3.04939">
        <ele>522</ele>
        <time>2023-04-14T15:22:22.542Z</time>
      </trkpt>
      <trkpt lat="45.79355" lon="3.0493">
        <ele>522</ele>
        <time>2023-04-14T15:22:24.060Z</time>
      </trkpt>
      <trkpt lat="45.79356" lon="3.04925">
        <ele>523</ele>
        <time>2023-04-14T15:22:25.579Z</time>
      </trkpt>
      <trkpt lat="45.79358" lon="3.04918">
        <ele>524</ele>
        <time>2023-04-14T15:22:27.099Z</time>
      </trkpt>
      <trkpt lat="45.79361" lon="3.04886">
        <ele>525</ele>
        <time>2023-04-14T15:22:28.622Z</time>
      </trkpt>
      <trkpt lat="45.79371" lon="3.04867">
        <ele>526</ele>
        <time>2023-04-14T15:22:30.148Z</time>
      </trkpt>
      <trkpt lat="45.79383" lon="3.04855">
        <ele>527</ele>
        <time>2023-04-14T15:22:31.676Z</time>
      </trkpt>
      <trkpt lat="45.79391" lon="3.04852">
        <ele>528</ele>
        <time>2023-04-14T15:22:33.206Z</time>
      </trkpt>
      <trkpt lat="45.79424" lon="3.04852">
        <ele>530</ele>
        <time>2023-04-14T15:22:34.741Z</time>
      </trkpt>
      <trkpt lat="45.79435" lon="3.04844">
        <ele>531</ele>
        <time>2023-04-14T15:22:36.278Z</time>
      </trkpt>
      <trkpt lat="45.79441" lon="3.04832">
        <ele>533</ele>
        <time>2023-04-14T15:22:37.817Z</time>
      </trkpt>
      <trkpt lat="45.79443" lon="3.0482">
        <ele>534</ele>
        <time>2023-04-14T15:22:39.357Z</time>
      </trkpt>
      <trkpt lat="45.79441" lon="3.04803">
        <ele>536</ele>
        <time>2023-04-14T15:22:40.899Z</time>
      </trkpt>
      <trkpt lat="45.7943" lon="3.0478">
        <ele>538</ele>
        <time>2023-04-14T15:22:42.444Z</time>
      </trkpt>
      <trkpt lat="45.79398" lon="3.04725">
        <ele>540</ele>
        <time>2023-04-14T15:22:43.997Z</time>
      </trkpt>
      <trkpt lat="45.79394" lon="3.0471">
        <ele>542</ele>
        <time>2023-04-14T15:22:45.552Z</time>
      </trkpt>
      <trkpt lat="45.79393" lon="3.04692">
        <ele>545</ele>
        <time>2023-04-14T15:22:47.109Z</time>
      </trkpt>
      <trkpt lat="45.79396" lon="3.04661">
        <ele>548</ele>
        <time>2023-04-14T15:22:48.669Z</time>
      </trkpt>
      <trkpt lat="45.79396" lon="3.0464">
        <ele>550</ele>
        <time>2023-04-14T15:22:50.232Z</time>
      </trkpt>
      <trkpt lat="45.79389" lon="3.04609">
        <ele>553</ele>
        <time>2023-04-14T15:22:51.798Z</time>
      </trkpt>
      <trkpt lat="45.79346" lon="3.04507">
        <ele>557</ele>
        <time>2023-04-14T15:22:53.378Z</time>
      </trkpt>
      <trkpt lat="45.79335" lon="3.04476">
        <ele>560</ele>
        <time>2023-04-14T15:22:54.962Z</time>
      </trkpt>
      <trkpt lat="45.79318" lon="3.04412">
        <ele>563</ele>
        <time>2023-04-14T15:22:56.553Z</time>
      </trkpt>
      <trkpt lat="45.79286" lon="3.04285">
        <ele>566</ele>
        <time>2023-04-14T15:22:58.159Z</time>
      </trkpt>
      <trkpt lat="45.79267" lon="3.04232">
        <ele>570</ele>
        <time>2023-04-14T15:22:59.772Z</time>
      </trkpt>
      <trkpt lat="45.79254" lon="3.042">
        <ele>573</ele>
        <time>2023-04-14T15:23:01.389Z</time>
      </trkpt>
      <trkpt lat="45.79243" lon="3.04176">
        <ele>576</ele>
        <time>2023-04-14T15:23:03.009Z</time>
      </trkpt>
      <trkpt lat="45.7924" lon="3.0416">
        <ele>579</ele>
        <time>2023-04-14T15:23:04.631Z</time>
      </trkpt>
      <trkpt lat="45.79233" lon="3.04105">
        <ele>582</ele>
        <time>2023-04-14T15:23:06.259Z</time>
      </trkpt>
      <trkpt lat="45.79241" lon="3.04">
        <ele>586</ele>
        <time>2023-04-14T15:23:07.899Z</time>
      </trkpt>
      <trkpt lat="45.79239" lon="3.03949">
        <ele>589</ele>
        <time>2023-04-14T15:23:09.545Z</time>
      </trkpt>
      <trkpt lat="45.79229" lon="3.03899">
        <ele>592</ele>
        <time>2023-04-14T15:23:11.197Z</time>
      </trkpt>
      <trkpt lat="45.79214" lon="3.03853">
        <ele>595</ele>
        <time>2023-04-14T15:23:12.855Z</time>
      </trkpt>
      <trkpt lat="45.79204" lon="3.0381">
        <ele>598</ele>
        <time>2023-04-14T15:23:14.518Z</time>
      </trkpt>
      <trkpt lat="45.79204" lon="3.03802">
        <ele>600</ele>
        <time>2023-04-14T15:23:16.181Z</time>
      </trkpt>
      <trkpt lat="45.79204" lon="3.03801">
        <ele>602</ele>
        <time>2023-04-14T15:23:17.845Z</time>
      </trkpt>
      <trkpt lat="45.79205" lon="3.03799">
        <ele>604</ele>
        <time>2023-04-14T15:23:19.509Z</time>
      </trkpt>
      <trkpt lat="45.79207" lon="3.03791">
        <ele>606</ele>
        <time>2023-04-14T15:23:21.174Z</time>
      </trkpt>
      <trkpt lat="45.79211" lon="3.03782">
        <ele>607</ele>
        <time>2023-04-14T15:23:22.840Z</time>
      </trkpt>
      <trkpt lat="45.79224" lon="3.03774">
        <ele>608</ele>
        <time>2023-04-14T15:23:24.508Z</time>
      </trkpt>
      <trkpt lat="45.79235" lon="3.03774">
        <ele>609</ele>
        <time>2023-04-14T15:23:26.178Z</time>
      </trkpt>
      <trkpt lat="45.79242" lon="3.03779">
        <ele>610</ele>
        <time>2023-04-14T15:23:27.849Z</time>
      </trkpt>
      <trkpt lat="45.79246" lon="3.03783">
        <ele>611</ele>
        <time>2023-04-14T15:23:29.521Z</time>
      </trkpt>
      <trkpt lat="45.79251" lon="3.03796">
        <ele>611</ele>
        <time>2023-04-14T15:23:31.195Z</time>
      </trkpt>
      <trkpt lat="45.79252" lon="3.03812">
        <ele>612</ele>
        <time>2023-04-14T15:23:32.871Z</time>
      </trkpt>
      <trkpt lat="45.79251" lon="3.03826">
        <ele>612</ele>
        <time>2023-04-14T15:23:34.548Z</time>
      </trkpt>
      <trkpt lat="45.79251" lon="3.0385">
        <ele>612</ele>
        <time>2023-04-14T15:23:36.228Z</time>
      </trkpt>
      <trkpt lat="45.79255" lon="3.03876">
        <ele>613</ele>
        <time>2023-04-14T15:23:37.911Z</time>
      </trkpt>
      <trkpt lat="45.7926" lon="3.039">
        <ele>613</ele>
        <time>2023-04-14T15:23:39.597Z</time>
      </trkpt>
      <trkpt lat="45.79278" lon="3.03945">
        <ele>614</ele>
        <time>2023-04-14T15:23:41.288Z</time>
      </trkpt>
      <trkpt lat="45.79287" lon="3.03967">
        <ele>614</ele>
        <time>2023-04-14T15:23:42.982Z</time>
      </trkpt>
      <trkpt lat="45.79293" lon="3.03991">
        <ele>614</ele>
        <time>2023-04-14T15:23:44.679Z</time>
      </trkpt>
      <trkpt lat="45.79298" lon="3.04046">
        <ele>615</ele>
        <time>2023-04-14T15:23:46.382Z</time>
      </trkpt>
      <trkpt lat="45.79302" lon="3.04071">
        <ele>615</ele>
        <time>2023-04-14T15:23:48.088Z</time>
      </trkpt>
      <trkpt lat="45.79303" lon="3.04071">
        <ele>615</ele>
        <time>2023-04-14T15:23:49.794Z</time>
      </trkpt>
      <trkpt lat="45.79302" lon="3.04071">
        <ele>615</ele>
        <time>2023-04-14T15:23:51.501Z</time>
      </trkpt>
      <trkpt lat="45.79307" lon="3.04092">
        <ele>616</ele>
        <time>2023-04-14T15:23:53.210Z</time>
      </trkpt>
      <trkpt lat="45.79317" lon="3.04114">
        <ele>617</ele>
        <time>2023-04-14T15:23:54.922Z</time>
      </trkpt>
      <trkpt lat="45.79325" lon="3.04124">
        <ele>617</ele>
        <time>2023-04-14T15:23:56.636Z</time>
      </trkpt>
      <trkpt lat="45.79334" lon="3.04129">
        <ele>618</ele>
        <time>2023-04-14T15:23:58.351Z</time>
      </trkpt>
      <trkpt lat="45.79341" lon="3.04131">
        <ele>619</ele>
        <time>2023-04-14T15:24:00.067Z</time>
      </trkpt>
      <trkpt lat="45.79367" lon="3.04127">
        <ele>620</ele>
        <time>2023-04-14T15:24:01.788Z</time>
      </trkpt>
      <trkpt lat="45.79386" lon="3.04124">
        <ele>621</ele>
        <time>2023-04-14T15:24:03.512Z</time>
      </trkpt>
      <trkpt lat="45.79403" lon="3.04125">
        <ele>622</ele>
        <time>2023-04-14T15:24:05.238Z</time>
      </trkpt>
      <trkpt lat="45.79416" lon="3.04136">
        <ele>622</ele>
        <time>2023-04-14T15:24:06.967Z</time>
      </trkpt>
      <trkpt lat="45.79423" lon="3.04164">
        <ele>623</ele>
        <time>2023-04-14T15:24:08.699Z</time>
      </trkpt>
      <trkpt lat="45.79422" lon="3.04181">
        <ele>624</ele>
        <time>2023-04-14T15:24:10.433Z</time>
      </trkpt>
      <trkpt lat="45.79408" lon="3.04237">
        <ele>624</ele>
        <time>2023-04-14T15:24:12.174Z</time>
      </trkpt>
      <trkpt lat="45.79406" lon="3.04268">
        <ele>625</ele>
        <time>2023-04-14T15:24:13.918Z</time>
      </trkpt>
      <trkpt lat="45.79409" lon="3.04283">
        <ele>625</ele>
        <time>2023-04-14T15:24:15.664Z</time>
      </trkpt>
      <trkpt lat="45.79415" lon="3.04297">
        <ele>626</ele>
        <time>2023-04-14T15:24:17.412Z</time>
      </trkpt>
      <trkpt lat="45.79421" lon="3.04304">
        <ele>627</ele>
        <time>2023-04-14T15:24:19.161Z</time>
      </trkpt>
      <trkpt lat="45.79432" lon="3.0431">
        <ele>628</ele>
        <time>2023-04-14T15:24:20.912Z</time>
      </trkpt>
      <trkpt lat="45.79441" lon="3.04308">
        <ele>629</ele>
        <time>2023-04-14T15:24:22.664Z</time>
      </trkpt>
      <trkpt lat="45.79443" lon="3.04305">
        <ele>630</ele>
        <time>2023-04-14T15:24:24.417Z</time>
      </trkpt>
      <trkpt lat="45.79444" lon="3.04304">
        <ele>631</ele>
        <time>2023-04-14T15:24:26.170Z</time>
      </trkpt>
      <trkpt lat="45.79444" lon="3.04303">
        <ele>632</ele>
        <time>2023-04-14T15:24:27.923Z</time>
      </trkpt>
      <trkpt lat="45.79444" lon="3.04303">
        <ele>632</ele>
        <time>2023-04-14T15:24:29.676Z</time>
      </trkpt>
      <trkpt lat="45.79451" lon="3.04295">
        <ele>633</ele>
        <time>2023-04-14T15:24:31.430Z</time>
      </trkpt>
      <trkpt lat="45.79455" lon="3.04271">
        <ele>635</ele>
        <time>2023-04-14T15:24:33.187Z</time>
      </trkpt>
      <trkpt lat="45.79453" lon="3.04219">
        <ele>636</ele>
        <time>2023-04-14T15:24:34.950Z</time>
      </trkpt>
      <trkpt lat="45.79451" lon="3.04194">
        <ele>637</ele>
        <time>2023-04-14T15:24:36.716Z</time>
      </trkpt>
      <trkpt lat="45.79446" lon="3.04121">
        <ele>638</ele>
        <time>2023-04-14T15:24:38.490Z</time>
      </trkpt>
      <trkpt lat="45.79444" lon="3.04094">
        <ele>639</ele>
        <time>2023-04-14T15:24:40.267Z</time>
      </trkpt>
      <trkpt lat="45.79438" lon="3.04081">
        <ele>640</ele>
        <time>2023-04-14T15:24:42.046Z</time>
      </trkpt>
      <trkpt lat="45.79426" lon="3.04066">
        <ele>641</ele>
        <time>2023-04-14T15:24:43.827Z</time>
      </trkpt>
      <trkpt lat="45.79415" lon="3.04062">
        <ele>642</ele>
        <time>2023-04-14T15:24:45.610Z</time>
      </trkpt>
      <trkpt lat="45.7939" lon="3.04055">
        <ele>643</ele>
        <time>2023-04-14T15:24:47.397Z</time>
      </trkpt>
      <trkpt lat="45.79381" lon="3.04049">
        <ele>644</ele>
        <time>2023-04-14T15:24:49.186Z</time>
      </trkpt>
      <trkpt lat="45.79373" lon="3.04035">
        <ele>645</ele>
        <time>2023-04-14T15:24:50.977Z</time>
      </trkpt>
      <trkpt lat="45.79371" lon="3.0402">
        <ele>646</ele>
        <time>2023-04-14T15:24:52.770Z</time>
      </trkpt>
      <trkpt lat="45.79372" lon="3.04001">
        <ele>648</ele>
        <time>2023-04-14T15:24:54.565Z</time>
      </trkpt>
      <trkpt lat="45.79372" lon="3.03974">
        <ele>649</ele>
        <time>2023-04-14T15:24:56.363Z</time>
      </trkpt>
      <trkpt lat="45.79369" lon="3.03949">
        <ele>650</ele>
        <time>2023-04-14T15:24:58.164Z</time>
      </trkpt>
      <trkpt lat="45.79359" lon="3.03899">
        <ele>651</ele>
        <time>2023-04-14T15:24:59.970Z</time>
      </trkpt>
      <trkpt lat="45.79356" lon="3.03849">
        <ele>653</ele>
        <time>2023-04-14T15:25:01.782Z</time>
      </trkpt>
      <trkpt lat="45.79356" lon="3.03826">
        <ele>654</ele>
        <time>2023-04-14T15:25:03.597Z</time>
      </trkpt>
      <trkpt lat="45.79362" lon="3.03803">
        <ele>656</ele>
        <time>2023-04-14T15:25:05.414Z</time>
      </trkpt>
      <trkpt lat="45.79377" lon="3.03767">
        <ele>657</ele>
        <time>2023-04-14T15:25:07.236Z</time>
      </trkpt>
      <trkpt lat="45.79385" lon="3.03725">
        <ele>659</ele>
        <time>2023-04-14T15:25:09.063Z</time>
      </trkpt>
      <trkpt lat="45.79392" lon="3.03668">
        <ele>660</ele>
        <time>2023-04-14T15:25:10.896Z</time>
      </trkpt>
      <trkpt lat="45.79392" lon="3.03666">
        <ele>662</ele>
        <time>2023-04-14T15:25:12.730Z</time>
      </trkpt>
      <trkpt lat="45.79392" lon="3.03666">
        <ele>663</ele>
        <time>2023-04-14T15:25:14.564Z</time>
      </trkpt>
      <trkpt lat="45.79392" lon="3.03666">
        <ele>665</ele>
        <time>2023-04-14T15:25:16.398Z</time>
      </trkpt>
      <trkpt lat="45.79408" lon="3.03609">
        <ele>667</ele>
        <time>2023-04-14T15:25:18.239Z</time>
      </trkpt>
      <trkpt lat="45.79411" lon="3.03591">
        <ele>668</ele>
        <time>2023-04-14T15:25:20.082Z</time>
      </trkpt>
      <trkpt lat="45.79411" lon="3.03577">
        <ele>670</ele>
        <time>2023-04-14T15:25:21.926Z</time>
      </trkpt>
      <trkpt lat="45.79401" lon="3.03512">
        <ele>671</ele>
        <time>2023-04-14T15:25:23.778Z</time>
      </trkpt>
      <trkpt lat="45.79398" lon="3.03487">
        <ele>672</ele>
        <time>2023-04-14T15:25:25.632Z</time>
      </trkpt>
      <trkpt lat="45.79399" lon="3.03471">
        <ele>674</ele>
        <time>2023-04-14T15:25:27.488Z</time>
      </trkpt>
      <trkpt lat="45.79406" lon="3.03453">
        <ele>676</ele>
        <time>2023-04-14T15:25:29.347Z</time>
      </trkpt>
      <trkpt lat="45.79422" lon="3.03425">
        <ele>677</ele>
        <time>2023-04-14T15:25:31.210Z</time>
      </trkpt>
      <trkpt lat="45.79434" lon="3.03396">
        <ele>679</ele>
        <time>2023-04-14T15:25:33.076Z</time>
      </trkpt>
      <trkpt lat="45.79444" lon="3.03366">
        <ele>680</ele>
        <time>2023-04-14T15:25:34.946Z</time>
      </trkpt>
      <trkpt lat="45.79461" lon="3.0332">
        <ele>682</ele>
        <time>2023-04-14T15:25:36.822Z</time>
      </trkpt>
      <trkpt lat="45.79477" lon="3.0328">
        <ele>684</ele>
        <time>2023-04-14T15:25:38.703Z</time>
      </trkpt>
      <trkpt lat="45.79486" lon="3.03267">
        <ele>685</ele>
        <time>2023-04-14T15:25:40.586Z</time>
      </trkpt>
      <trkpt lat="45.79494" lon="3.03261">
        <ele>687</ele>
        <time>2023-04-14T15:25:42.471Z</time>
      </trkpt>
      <trkpt lat="45.79508" lon="3.03259">
        <ele>688</ele>
        <time>2023-04-14T15:25:44.358Z</time>
      </trkpt>
      <trkpt lat="45.79518" lon="3.03261">
        <ele>690</ele>
        <time>2023-04-14T15:25:46.246Z</time>
      </trkpt>
      <trkpt lat="45.79531" lon="3.03271">
        <ele>691</ele>
        <time>2023-04-14T15:25:48.137Z</time>
      </trkpt>
      <trkpt lat="45.79585" lon="3.03338">
        <ele>693</ele>
        <time>2023-04-14T15:25:50.039Z</time>
      </trkpt>
      <trkpt lat="45.796" lon="3.03355">
        <ele>694</ele>
        <time>2023-04-14T15:25:51.944Z</time>
      </trkpt>
      <trkpt lat="45.79613" lon="3.03364">
        <ele>696</ele>
        <time>2023-04-14T15:25:53.852Z</time>
      </trkpt>
      <trkpt lat="45.7963" lon="3.03368">
        <ele>697</ele>
        <time>2023-04-14T15:25:55.762Z</time>
      </trkpt>
      <trkpt lat="45.79641" lon="3.03366">
        <ele>699</ele>
        <time>2023-04-14T15:25:57.674Z</time>
      </trkpt>
      <trkpt lat="45.79658" lon="3.03351">
        <ele>700</ele>
        <time>2023-04-14T15:25:59.589Z</time>
      </trkpt>
      <trkpt lat="45.79672" lon="3.03325">
        <ele>702</ele>
        <time>2023-04-14T15:26:01.508Z</time>
      </trkpt>
      <trkpt lat="45.79684" lon="3.03299">
        <ele>704</ele>
        <time>2023-04-14T15:26:03.431Z</time>
      </trkpt>
      <trkpt lat="45.79686" lon="3.033">
        <ele>706</ele>
        <time>2023-04-14T15:26:05.354Z</time>
      </trkpt>
      <trkpt lat="45.79696" lon="3.03281">
        <ele>707</ele>
        <time>2023-04-14T15:26:07.279Z</time>
      </trkpt>
      <trkpt lat="45.79723" lon="3.03244">
        <ele>709</ele>
        <time>2023-04-14T15:26:09.210Z</time>
      </trkpt>
      <trkpt lat="45.79762" lon="3.0317">
        <ele>711</ele>
        <time>2023-04-14T15:26:11.152Z</time>
      </trkpt>
      <trkpt lat="45.79776" lon="3.03128">
        <ele>714</ele>
        <time>2023-04-14T15:26:13.099Z</time>
      </trkpt>
      <trkpt lat="45.79787" lon="3.03118">
        <ele>716</ele>
        <time>2023-04-14T15:26:15.048Z</time>
      </trkpt>
      <trkpt lat="45.79792" lon="3.03112">
        <ele>717</ele>
        <time>2023-04-14T15:26:16.998Z</time>
      </trkpt>
      <trkpt lat="45.7983" lon="3.03074">
        <ele>720</ele>
        <time>2023-04-14T15:26:18.956Z</time>
      </trkpt>
      <trkpt lat="45.79876" lon="3.03006">
        <ele>722</ele>
        <time>2023-04-14T15:26:20.924Z</time>
      </trkpt>
      <trkpt lat="45.79954" lon="3.02993">
        <ele>724</ele>
        <time>2023-04-14T15:26:22.905Z</time>
      </trkpt>
      <trkpt lat="45.8004" lon="3.02921">
        <ele>727</ele>
        <time>2023-04-14T15:26:24.902Z</time>
      </trkpt>
      <trkpt lat="45.80069" lon="3.02882">
        <ele>729</ele>
        <time>2023-04-14T15:26:26.905Z</time>
      </trkpt>
      <trkpt lat="45.80099" lon="3.02797">
        <ele>732</ele>
        <time>2023-04-14T15:26:28.919Z</time>
      </trkpt>
      <trkpt lat="45.80116" lon="3.02787">
        <ele>734</ele>
        <time>2023-04-14T15:26:30.936Z</time>
      </trkpt>
      <trkpt lat="45.80141" lon="3.02791">
        <ele>736</ele>
        <time>2023-04-14T15:26:32.957Z</time>
      </trkpt>
      <trkpt lat="45.80247" lon="3.02824">
        <ele>739</ele>
        <time>2023-04-14T15:26:34.995Z</time>
      </trkpt>
      <trkpt lat="45.80271" lon="3.02804">
        <ele>741</ele>
        <time>2023-04-14T15:26:37.037Z</time>
      </trkpt>
      <trkpt lat="45.80281" lon="3.02796">
        <ele>743</ele>
        <time>2023-04-14T15:26:39.081Z</time>
      </trkpt>
      <trkpt lat="45.80289" lon="3.02746">
        <ele>746</ele>
        <time>2023-04-14T15:26:41.131Z</time>
      </trkpt>
      <trkpt lat="45.80276" lon="3.02716">
        <ele>748</ele>
        <time>2023-04-14T15:26:43.185Z</time>
      </trkpt>
      <trkpt lat="45.80275" lon="3.02712">
        <ele>751</ele>
        <time>2023-04-14T15:26:45.239Z</time>
      </trkpt>
      <trkpt lat="45.80275" lon="3.02712">
        <ele>753</ele>
        <time>2023-04-14T15:26:47.293Z</time>
      </trkpt>
      <trkpt lat="45.80255" lon="3.02664">
        <ele>756</ele>
        <time>2023-04-14T15:26:49.354Z</time>
      </trkpt>
      <trkpt lat="45.80252" lon="3.02631">
        <ele>759</ele>
        <time>2023-04-14T15:26:51.418Z</time>
      </trkpt>
      <trkpt lat="45.80262" lon="3.02571">
        <ele>762</ele>
        <time>2023-04-14T15:26:53.489Z</time>
      </trkpt>
      <trkpt lat="45.8028" lon="3.02519">
        <ele>765</ele>
        <time>2023-04-14T15:26:55.567Z</time>
      </trkpt>
      <trkpt lat="45.80304" lon="3.02483">
        <ele>767</ele>
        <time>2023-04-14T15:26:57.650Z</time>
      </trkpt>
      <trkpt lat="45.80357" lon="3.02453">
        <ele>770</ele>
        <time>2023-04-14T15:26:59.742Z</time>
      </trkpt>
      <trkpt lat="45.80403" lon="3.02358">
        <ele>774</ele>
        <time>2023-04-14T15:27:01.847Z</time>
      </trkpt>
      <trkpt lat="45.80402" lon="3.02313">
        <ele>777</ele>
        <time>2023-04-14T15:27:03.957Z</time>
      </trkpt>
      <trkpt lat="45.80387" lon="3.0227">
        <ele>780</ele>
        <time>2023-04-14T15:27:06.073Z</time>
      </trkpt>
      <trkpt lat="45.8037" lon="3.02228">
        <ele>782</ele>
        <time>2023-04-14T15:27:08.194Z</time>
      </trkpt>
      <trkpt lat="45.8034" lon="3.022">
        <ele>786</ele>
        <time>2023-04-14T15:27:10.321Z</time>
      </trkpt>
      <trkpt lat="45.80305" lon="3.02133">
        <ele>789</ele>
        <time>2023-04-14T15:27:12.457Z</time>
      </trkpt>
      <trkpt lat="45.8026" lon="3.02088">
        <ele>792</ele>
        <time>2023-04-14T15:27:14.602Z</time>
      </trkpt>
      <trkpt lat="45.80253" lon="3.02052">
        <ele>795</ele>
        <time>2023-04-14T15:27:16.751Z</time>
      </trkpt>
      <trkpt lat="45.80284" lon="3.02027">
        <ele>798</ele>
        <time>2023-04-14T15:27:18.906Z</time>
      </trkpt>
      <trkpt lat="45.80307" lon="3.02023">
        <ele>801</ele>
        <time>2023-04-14T15:27:21.065Z</time>
      </trkpt>
      <trkpt lat="45.8036" lon="3.02047">
        <ele>803</ele>
        <time>2023-04-14T15:27:23.233Z</time>
      </trkpt>
      <trkpt lat="45.80379" lon="3.02042">
        <ele>807</ele>
        <time>2023-04-14T15:27:25.404Z</time>
      </trkpt>
      <trkpt lat="45.80457" lon="3.01978">
        <ele>810</ele>
        <time>2023-04-14T15:27:27.589Z</time>
      </trkpt>
      <trkpt lat="45.80506" lon="3.0198">
        <ele>813</ele>
        <time>2023-04-14T15:27:29.782Z</time>
      </trkpt>
      <trkpt lat="45.80539" lon="3.01967">
        <ele>817</ele>
        <time>2023-04-14T15:27:31.980Z</time>
      </trkpt>
      <trkpt lat="45.80591" lon="3.01933">
        <ele>820</ele>
        <time>2023-04-14T15:27:34.188Z</time>
      </trkpt>
      <trkpt lat="45.80591" lon="3.01933">
        <ele>823</ele>
        <time>2023-04-14T15:27:36.396Z</time>
      </trkpt>
      <trkpt lat="45.80591" lon="3.01933">
        <ele>826</ele>
        <time>2023-04-14T15:27:38.604Z</time>
      </trkpt>
      <trkpt lat="45.80652" lon="3.01805">
        <ele>830</ele>
        <time>2023-04-14T15:27:40.829Z</time>
      </trkpt>
      <trkpt lat="45.80726" lon="3.01681">
        <ele>834</ele>
        <time>2023-04-14T15:27:43.072Z</time>
      </trkpt>
      <trkpt lat="45.8075" lon="3.01618">
        <ele>837</ele>
        <time>2023-04-14T15:27:45.323Z</time>
      </trkpt>
      <trkpt lat="45.80761" lon="3.01536">
        <ele>840</ele>
        <time>2023-04-14T15:27:47.584Z</time>
      </trkpt>
      <trkpt lat="45.80754" lon="3.01507">
        <ele>843</ele>
        <time>2023-04-14T15:27:49.848Z</time>
      </trkpt>
      <trkpt lat="45.80695" lon="3.01399">
        <ele>846</ele>
        <time>2023-04-14T15:27:52.127Z</time>
      </trkpt>
      <trkpt lat="45.80684" lon="3.01372">
        <ele>849</ele>
        <time>2023-04-14T15:27:54.410Z</time>
      </trkpt>
      <trkpt lat="45.80681" lon="3.01337">
        <ele>852</ele>
        <time>2023-04-14T15:27:56.697Z</time>
      </trkpt>
      <trkpt lat="45.80685" lon="3.01303">
        <ele>855</ele>
        <time>2023-04-14T15:27:58.988Z</time>
      </trkpt>
      <trkpt lat="45.80698" lon="3.01279">
        <ele>858</ele>
        <time>2023-04-14T15:28:01.282Z</time>
      </trkpt>
      <trkpt lat="45.80743" lon="3.01227">
        <ele>860</ele>
        <time>2023-04-14T15:28:03.585Z</time>
      </trkpt>
      <trkpt lat="45.80754" lon="3.01193">
        <ele>863</ele>
        <time>2023-04-14T15:28:05.893Z</time>
      </trkpt>
      <trkpt lat="45.8075" lon="3.01168">
        <ele>865</ele>
        <time>2023-04-14T15:28:08.203Z</time>
      </trkpt>
      <trkpt lat="45.80773" lon="3.01117">
        <ele>867</ele>
        <time>2023-04-14T15:28:10.520Z</time>
      </trkpt>
      <trkpt lat="45.80772" lon="3.01066">
        <ele>869</ele>
        <time>2023-04-14T15:28:12.843Z</time>
      </trkpt>
      <trkpt lat="45.80759" lon="3.01012">
        <ele>871</ele>
        <time>2023-04-14T15:28:15.172Z</time>
      </trkpt>
      <trkpt lat="45.80758" lon="3.01012">
        <ele>873</ele>
        <time>2023-04-14T15:28:17.501Z</time>
      </trkpt>
      <trkpt lat="45.80754" lon="3.00995">
        <ele>875</ele>
        <time>2023-04-14T15:28:19.832Z</time>
      </trkpt>
      <trkpt lat="45.80737" lon="3.00935">
        <ele>876</ele>
        <time>2023-04-14T15:28:22.171Z</time>
      </trkpt>
      <trkpt lat="45.80734" lon="3.00897">
        <ele>878</ele>
        <time>2023-04-14T15:28:24.514Z</time>
      </trkpt>
      <trkpt lat="45.8073" lon="3.00882">
        <ele>879</ele>
        <time>2023-04-14T15:28:26.859Z</time>
      </trkpt>
      <trkpt lat="45.807" lon="3.00826">
        <ele>881</ele>
        <time>2023-04-14T15:28:29.212Z</time>
      </trkpt>
      <trkpt lat="45.80707" lon="3.00807">
        <ele>882</ele>
        <time>2023-04-14T15:28:31.567Z</time>
      </trkpt>
      <trkpt lat="45.80711" lon="3.00796">
        <ele>883</ele>
        <time>2023-04-14T15:28:33.923Z</time>
      </trkpt>
      <trkpt lat="45.80722" lon="3.00785">
        <ele>884</ele>
        <time>2023-04-14T15:28:36.282Z</time>
      </trkpt>
      <trkpt lat="45.80732" lon="3.00751">
        <ele>885</ele>
        <time>2023-04-14T15:28:38.645Z</time>
      </trkpt>
      <trkpt lat="45.80745" lon="3.0074">
        <ele>886</ele>
        <time>2023-04-14T15:28:41.010Z</time>
      </trkpt>
      <trkpt lat="45.80773" lon="3.0074">
        <ele>887</ele>
        <time>2023-04-14T15:28:43.380Z</time>
      </trkpt>
      <trkpt lat="45.80795" lon="3.00749">
        <ele>888</ele>
        <time>2023-04-14T15:28:45.753Z</time>
      </trkpt>
      <trkpt lat="45.80872" lon="3.00809">
        <ele>889</ele>
        <time>2023-04-14T15:28:48.140Z</time>
      </trkpt>
      <trkpt lat="45.80906" lon="3.0083">
        <ele>890</ele>
        <time>2023-04-14T15:28:50.533Z</time>
      </trkpt>
      <trkpt lat="45.80921" lon="3.0083">
        <ele>891</ele>
        <time>2023-04-14T15:28:52.929Z</time>
      </trkpt>
      <trkpt lat="45.8096" lon="3.00796">
        <ele>893</ele>
        <time>2023-04-14T15:28:55.332Z</time>
      </trkpt>
      <trkpt lat="45.81052" lon="3.00716">
        <ele>894</ele>
        <time>2023-04-14T15:28:57.752Z</time>
      </trkpt>
      <trkpt lat="45.81065" lon="3.00695">
        <ele>896</ele>
        <time>2023-04-14T15:29:00.175Z</time>
      </trkpt>
      <trkpt lat="45.81084" lon="3.00637">
        <ele>897</ele>
        <time>2023-04-14T15:29:02.606Z</time>
      </trkpt>
      <trkpt lat="45.81093" lon="3.00616">
        <ele>899</ele>
        <time>2023-04-14T15:29:05.039Z</time>
      </trkpt>
      <trkpt lat="45.8111" lon="3.00601">
        <ele>900</ele>
        <time>2023-04-14T15:29:07.476Z</time>
      </trkpt>
      <trkpt lat="45.81168" lon="3.00596">
        <ele>901</ele>
        <time>2023-04-14T15:29:09.922Z</time>
      </trkpt>
      <trkpt lat="45.81185" lon="3.00596">
        <ele>902</ele>
        <time>2023-04-14T15:29:12.371Z</time>
      </trkpt>
      <trkpt lat="45.81234" lon="3.00622">
        <ele>904</ele>
        <time>2023-04-14T15:29:14.828Z</time>
      </trkpt>
      <trkpt lat="45.81318" lon="3.00624">
        <ele>905</ele>
        <time>2023-04-14T15:29:17.298Z</time>
      </trkpt>
      <trkpt lat="45.81335" lon="3.0062">
        <ele>907</ele>
        <time>2023-04-14T15:29:19.771Z</time>
      </trkpt>
      <trkpt lat="45.81383" lon="3.00588">
        <ele>908</ele>
        <time>2023-04-14T15:29:22.253Z</time>
      </trkpt>
      <trkpt lat="45.8141" lon="3.0054">
        <ele>910</ele>
        <time>2023-04-14T15:29:24.741Z</time>
      </trkpt>
      <trkpt lat="45.81434" lon="3.00485">
        <ele>911</ele>
        <time>2023-04-14T15:29:27.237Z</time>
      </trkpt>
      <trkpt lat="45.81505" lon="3.00206">
        <ele>913</ele>
        <time>2023-04-14T15:29:29.766Z</time>
      </trkpt>
      <trkpt lat="45.81539" lon="3.00176">
        <ele>914</ele>
        <time>2023-04-14T15:29:32.301Z</time>
      </trkpt>
      <trkpt lat="45.81591" lon="3.00143">
        <ele>915</ele>
        <time>2023-04-14T15:29:34.845Z</time>
      </trkpt>
      <trkpt lat="45.81689" lon="3.00086">
        <ele>917</ele>
        <time>2023-04-14T15:29:37.406Z</time>
      </trkpt>
      <trkpt lat="45.81722" lon="3.00049">
        <ele>918</ele>
        <time>2023-04-14T15:29:39.974Z</time>
      </trkpt>
      <trkpt lat="45.81724" lon="3">
        <ele>919</ele>
        <time>2023-04-14T15:29:42.548Z</time>
      </trkpt>
      <trkpt lat="45.81696" lon="2.99792">
        <ele>920</ele>
        <time>2023-04-14T15:29:45.145Z</time>
      </trkpt>
      <trkpt lat="45.81689" lon="2.9974">
        <ele>921</ele>
        <time>2023-04-14T15:29:47.748Z</time>
      </trkpt>
      <trkpt lat="45.81668" lon="2.9962">
        <ele>922</ele>
        <time>2023-04-14T15:29:50.365Z</time>
      </trkpt>
      <trkpt lat="45.81642" lon="2.99558">
        <ele>923</ele>
        <time>2023-04-14T15:29:52.990Z</time>
      </trkpt>
      <trkpt lat="45.8155" lon="2.99407">
        <ele>924</ele>
        <time>2023-04-14T15:29:55.637Z</time>
      </trkpt>
      <trkpt lat="45.81505" lon="2.99285">
        <ele>925</ele>
        <time>2023-04-14T15:29:58.300Z</time>
      </trkpt>
      <trkpt lat="45.81486" lon="2.99199">
        <ele>926</ele>
        <time>2023-04-14T15:30:00.973Z</time>
      </trkpt>
      <trkpt lat="45.81481" lon="2.99167">
        <ele>927</ele>
        <time>2023-04-14T15:30:03.650Z</time>
      </trkpt>
      <trkpt lat="45.8149" lon="2.99141">
        <ele>928</ele>
        <time>2023-04-14T15:30:06.330Z</time>
      </trkpt>
      <trkpt lat="45.81571" lon="2.99023">
        <ele>929</ele>
        <time>2023-04-14T15:30:09.028Z</time>
      </trkpt>
      <trkpt lat="45.81591" lon="2.99004">
        <ele>930</ele>
        <time>2023-04-14T15:30:11.730Z</time>
      </trkpt>
      <trkpt lat="45.81627" lon="2.98993">
        <ele>931</ele>
        <time>2023-04-14T15:30:14.438Z</time>
      </trkpt>
      <trkpt lat="45.81668" lon="2.98961">
        <ele>932</ele>
        <time>2023-04-14T15:30:17.154Z</time>
      </trkpt>
      <trkpt lat="45.81782" lon="2.98835">
        <ele>933</ele>
        <time>2023-04-14T15:30:19.893Z</time>
      </trkpt>
      <trkpt lat="45.81846" lon="2.98738">
        <ele>934</ele>
        <time>2023-04-14T15:30:22.647Z</time>
      </trkpt>
      <trkpt lat="45.81992" lon="2.98665">
        <ele>935</ele>
        <time>2023-04-14T15:30:25.425Z</time>
      </trkpt>
      <trkpt lat="45.82069" lon="2.98618">
        <ele>936</ele>
        <time>2023-04-14T15:30:28.217Z</time>
      </trkpt>
      <trkpt lat="45.82123" lon="2.9856">
        <ele>937</ele>
        <time>2023-04-14T15:30:31.020Z</time>
      </trkpt>
      <trkpt lat="45.82149" lon="2.98513">
        <ele>937</ele>
        <time>2023-04-14T15:30:33.829Z</time>
      </trkpt>
      <trkpt lat="45.82179" lon="2.98438">
        <ele>937</ele>
        <time>2023-04-14T15:30:36.648Z</time>
      </trkpt>
      <trkpt lat="45.82219" lon="2.98264">
        <ele>938</ele>
        <time>2023-04-14T15:30:39.488Z</time>
      </trkpt>
      <trkpt lat="45.82228" lon="2.98193">
        <ele>938</ele>
        <time>2023-04-14T15:30:42.336Z</time>
      </trkpt>
      <trkpt lat="45.82219" lon="2.98062">
        <ele>939</ele>
        <time>2023-04-14T15:30:45.198Z</time>
      </trkpt>
      <trkpt lat="45.82206" lon="2.97972">
        <ele>938</ele>
        <time>2023-04-14T15:30:48.071Z</time>
      </trkpt>
      <trkpt lat="45.82174" lon="2.97873">
        <ele>938</ele>
        <time>2023-04-14T15:30:50.956Z</time>
      </trkpt>
      <trkpt lat="45.82095" lon="2.97747">
        <ele>938</ele>
        <time>2023-04-14T15:30:53.860Z</time>
      </trkpt>
      <trkpt lat="45.82194" lon="2.97781">
        <ele>937</ele>
        <time>2023-04-14T15:30:56.780Z</time>
      </trkpt>
      <trkpt lat="45.82258" lon="2.97809">
        <ele>937</ele>
        <time>2023-04-14T15:30:59.711Z</time>
      </trkpt>
      <trkpt lat="45.82288" lon="2.97865">
        <ele>936</ele>
        <time>2023-04-14T15:31:02.650Z</time>
      </trkpt>
      <trkpt lat="45.82324" lon="2.97957">
        <ele>935</ele>
        <time>2023-04-14T15:31:05.601Z</time>
      </trkpt>
      <trkpt lat="45.82322" lon="2.98026">
        <ele>934</ele>
        <time>2023-04-14T15:31:08.559Z</time>
      </trkpt>
      <trkpt lat="45.82333" lon="2.98049">
        <ele>933</ele>
        <time>2023-04-14T15:31:11.520Z</time>
      </trkpt>
      <trkpt lat="45.82346" lon="2.9806">
        <ele>932</ele>
        <time>2023-04-14T15:31:14.484Z</time>
      </trkpt>
      <trkpt lat="45.82419" lon="2.98041">
        <ele>931</ele>
        <time>2023-04-14T15:31:17.460Z</time>
      </trkpt>
      <trkpt lat="45.82451" lon="2.98019">
        <ele>930</ele>
        <time>2023-04-14T15:31:20.441Z</time>
      </trkpt>
      <trkpt lat="45.8247" lon="2.97985">
        <ele>929</ele>
        <time>2023-04-14T15:31:23.427Z</time>
      </trkpt>
      <trkpt lat="45.82479" lon="2.97978">
        <ele>928</ele>
        <time>2023-04-14T15:31:26.415Z</time>
      </trkpt>
      <trkpt lat="45.82485" lon="2.97974">
        <ele>926</ele>
        <time>2023-04-14T15:31:29.404Z</time>
      </trkpt>
      <trkpt lat="45.82503" lon="2.97981">
        <ele>925</ele>
        <time>2023-04-14T15:31:32.396Z</time>
      </trkpt>
      <trkpt lat="45.82513" lon="2.97998">
        <ele>924</ele>
        <time>2023-04-14T15:31:35.390Z</time>
      </trkpt>
      <trkpt lat="45.82513" lon="2.98011">
        <ele>922</ele>
        <time>2023-04-14T15:31:38.386Z</time>
      </trkpt>
      <trkpt lat="45.825" lon="2.98047">
        <ele>921</ele>
        <time>2023-04-14T15:31:41.386Z</time>
      </trkpt>
      <trkpt lat="45.82496" lon="2.98084">
        <ele>920</ele>
        <time>2023-04-14T15:31:44.391Z</time>
      </trkpt>
      <trkpt lat="45.82496" lon="2.98096">
        <ele>918</ele>
        <time>2023-04-14T15:31:47.397Z</time>
      </trkpt>
      <trkpt lat="45.82503" lon="2.9812">
        <ele>917</ele>
        <time>2023-04-14T15:31:50.406Z</time>
      </trkpt>
      <trkpt lat="45.82532" lon="2.98129">
        <ele>915</ele>
        <time>2023-04-14T15:31:53.420Z</time>
      </trkpt>
      <trkpt lat="45.82532" lon="2.98129">
        <ele>913</ele>
        <time>2023-04-14T15:31:56.434Z</time>
      </trkpt>
      <trkpt lat="45.82532" lon="2.98129">
        <ele>911</ele>
        <time>2023-04-14T15:31:59.448Z</time>
      </trkpt>
      <trkpt lat="45.82532" lon="2.98129">
        <ele>909</ele>
        <time>2023-04-14T15:32:02.462Z</time>
      </trkpt>
      <trkpt lat="45.82532" lon="2.98129">
        <ele>907</ele>
        <time>2023-04-14T15:32:05.476Z</time>
      </trkpt>
      <trkpt lat="45.82543" lon="2.98133">
        <ele>905</ele>
        <time>2023-04-14T15:32:08.491Z</time>
      </trkpt>
      <trkpt lat="45.82567" lon="2.98159">
        <ele>902</ele>
        <time>2023-04-14T15:32:11.511Z</time>
      </trkpt>
      <trkpt lat="45.82588" lon="2.98191">
        <ele>899</ele>
        <time>2023-04-14T15:32:14.536Z</time>
      </trkpt>
      <trkpt lat="45.82616" lon="2.98264">
        <ele>897</ele>
        <time>2023-04-14T15:32:17.570Z</time>
      </trkpt>
      <trkpt lat="45.82696" lon="2.98343">
        <ele>894</ele>
        <time>2023-04-14T15:32:20.620Z</time>
      </trkpt>
      <trkpt lat="45.82747" lon="2.98423">
        <ele>891</ele>
        <time>2023-04-14T15:32:23.682Z</time>
      </trkpt>
      <trkpt lat="45.82747" lon="2.98423">
        <ele>888</ele>
        <time>2023-04-14T15:32:26.744Z</time>
      </trkpt>
      <trkpt lat="45.82807" lon="2.98517">
        <ele>885</ele>
        <time>2023-04-14T15:32:29.820Z</time>
      </trkpt>
      <trkpt lat="45.82852" lon="2.98626">
        <ele>882</ele>
        <time>2023-04-14T15:32:32.911Z</time>
      </trkpt>
      <trkpt lat="45.82872" lon="2.98695">
        <ele>879</ele>
        <time>2023-04-14T15:32:36.010Z</time>
      </trkpt>
      <trkpt lat="45.82904" lon="2.98955">
        <ele>876</ele>
        <time>2023-04-14T15:32:39.138Z</time>
      </trkpt>
      <trkpt lat="45.82917" lon="2.99015">
        <ele>873</ele>
        <time>2023-04-14T15:32:42.273Z</time>
      </trkpt>
      <trkpt lat="45.8303" lon="2.99289">
        <ele>869</ele>
        <time>2023-04-14T15:32:45.444Z</time>
      </trkpt>
      <trkpt lat="45.83071" lon="2.99416">
        <ele>867</ele>
        <time>2023-04-14T15:32:48.631Z</time>
      </trkpt>
      <trkpt lat="45.83112" lon="2.99538">
        <ele>863</ele>
        <time>2023-04-14T15:32:51.833Z</time>
      </trkpt>
      <trkpt lat="45.83234" lon="2.99693">
        <ele>860</ele>
        <time>2023-04-14T15:32:55.061Z</time>
      </trkpt>
      <trkpt lat="45.83258" lon="2.99736">
        <ele>857</ele>
        <time>2023-04-14T15:32:58.295Z</time>
      </trkpt>
      <trkpt lat="45.83279" lon="2.99794">
        <ele>854</ele>
        <time>2023-04-14T15:33:01.536Z</time>
      </trkpt>
      <trkpt lat="45.83297" lon="2.99901">
        <ele>851</ele>
        <time>2023-04-14T15:33:04.790Z</time>
      </trkpt>
      <trkpt lat="45.83314" lon="3">
        <ele>848</ele>
        <time>2023-04-14T15:33:08.055Z</time>
      </trkpt>
      <trkpt lat="45.83318" lon="3.00045">
        <ele>846</ele>
        <time>2023-04-14T15:33:11.325Z</time>
      </trkpt>
      <trkpt lat="45.83309" lon="3.003">
        <ele>842</ele>
        <time>2023-04-14T15:33:14.624Z</time>
      </trkpt>
      <trkpt lat="45.83299" lon="3.00403">
        <ele>839</ele>
        <time>2023-04-14T15:33:17.935Z</time>
      </trkpt>
      <trkpt lat="45.83284" lon="3.00525">
        <ele>837</ele>
        <time>2023-04-14T15:33:21.259Z</time>
      </trkpt>
      <trkpt lat="45.83278" lon="3.00836">
        <ele>834</ele>
        <time>2023-04-14T15:33:24.618Z</time>
      </trkpt>
      <trkpt lat="45.83279" lon="3.00836">
        <ele>831</ele>
        <time>2023-04-14T15:33:27.977Z</time>
      </trkpt>
      <trkpt lat="45.83274" lon="3.01107">
        <ele>829</ele>
        <time>2023-04-14T15:33:31.367Z</time>
      </trkpt>
      <trkpt lat="45.83264" lon="3.01172">
        <ele>826</ele>
        <time>2023-04-14T15:33:34.764Z</time>
      </trkpt>
      <trkpt lat="45.83244" lon="3.01212">
        <ele>823</ele>
        <time>2023-04-14T15:33:38.167Z</time>
      </trkpt>
      <trkpt lat="45.83116" lon="3.01382">
        <ele>821</ele>
        <time>2023-04-14T15:33:41.598Z</time>
      </trkpt>
      <trkpt lat="45.83201" lon="3.01371">
        <ele>819</ele>
        <time>2023-04-14T15:33:45.042Z</time>
      </trkpt>
      <trkpt lat="45.83243" lon="3.01352">
        <ele>817</ele>
        <time>2023-04-14T15:33:48.493Z</time>
      </trkpt>
      <trkpt lat="45.83243" lon="3.01352">
        <ele>815</ele>
        <time>2023-04-14T15:33:51.944Z</time>
      </trkpt>
      <trkpt lat="45.83328" lon="3.01304">
        <ele>814</ele>
        <time>2023-04-14T15:33:55.410Z</time>
      </trkpt>
      <trkpt lat="45.83448" lon="3.01286">
        <ele>812</ele>
        <time>2023-04-14T15:33:58.895Z</time>
      </trkpt>
      <trkpt lat="45.8348" lon="3.01267">
        <ele>811</ele>
        <time>2023-04-14T15:34:02.386Z</time>
      </trkpt>
      <trkpt lat="45.83516" lon="3.01193">
        <ele>810</ele>
        <time>2023-04-14T15:34:05.887Z</time>
      </trkpt>
      <trkpt lat="45.8359" lon="3.01095">
        <ele>809</ele>
        <time>2023-04-14T15:34:09.404Z</time>
      </trkpt>
      <trkpt lat="45.83618" lon="3.01031">
        <ele>808</ele>
        <time>2023-04-14T15:34:12.929Z</time>
      </trkpt>
      <trkpt lat="45.83627" lon="3.00985">
        <ele>808</ele>
        <time>2023-04-14T15:34:16.460Z</time>
      </trkpt>
      <trkpt lat="45.83589" lon="3.00849">
        <ele>807</ele>
        <time>2023-04-14T15:34:20.007Z</time>
      </trkpt>
      <trkpt lat="45.83595" lon="3.00638">
        <ele>806</ele>
        <time>2023-04-14T15:34:23.578Z</time>
      </trkpt>
      <trkpt lat="45.836" lon="3.006">
        <ele>805</ele>
        <time>2023-04-14T15:34:27.153Z</time>
      </trkpt>
      <trkpt lat="45.83617" lon="3.0057">
        <ele>804</ele>
        <time>2023-04-14T15:34:30.732Z</time>
      </trkpt>
      <trkpt lat="45.83648" lon="3.00538">
        <ele>804</ele>
        <time>2023-04-14T15:34:34.317Z</time>
      </trkpt>
      <trkpt lat="45.83684" lon="3.00492">
        <ele>803</ele>
        <time>2023-04-14T15:34:37.910Z</time>
      </trkpt>
      <trkpt lat="45.83707" lon="3.0046">
        <ele>802</ele>
        <time>2023-04-14T15:34:41.508Z</time>
      </trkpt>
      <trkpt lat="45.83718" lon="3.00454">
        <ele>801</ele>
        <time>2023-04-14T15:34:45.108Z</time>
      </trkpt>
      <trkpt lat="45.83756" lon="3.00455">
        <ele>800</ele>
        <time>2023-04-14T15:34:48.714Z</time>
      </trkpt>
      <trkpt lat="45.838" lon="3.0046">
        <ele>800</ele>
        <time>2023-04-14T15:34:52.327Z</time>
      </trkpt>
      <trkpt lat="45.83815" lon="3.00462">
        <ele>799</ele>
        <time>2023-04-14T15:34:55.943Z</time>
      </trkpt>
      <trkpt lat="45.83848" lon="3.00466">
        <ele>798</ele>
        <time>2023-04-14T15:34:59.564Z</time>
      </trkpt>
      <trkpt lat="45.83873" lon="3.00465">
        <ele>797</ele>
        <time>2023-04-14T15:35:03.189Z</time>
      </trkpt>
      <trkpt lat="45.8389" lon="3.00463">
        <ele>795</ele>
        <time>2023-04-14T15:35:06.817Z</time>
      </trkpt>
      <trkpt lat="45.83912" lon="3.00446">
        <ele>794</ele>
        <time>2023-04-14T15:35:10.449Z</time>
      </trkpt>
      <trkpt lat="45.83969" lon="3.00386">
        <ele>793</ele>
        <time>2023-04-14T15:35:14.092Z</time>
      </trkpt>
      <trkpt lat="45.84006" lon="3.00358">
        <ele>792</ele>
        <time>2023-04-14T15:35:17.742Z</time>
      </trkpt>
      <trkpt lat="45.84055" lon="3.0037">
        <ele>790</ele>
        <time>2023-04-14T15:35:21.400Z</time>
      </trkpt>
      <trkpt lat="45.84216" lon="3.00444">
        <ele>788</ele>
        <time>2023-04-14T15:35:25.085Z</time>
      </trkpt>
      <trkpt lat="45.84399" lon="3.0052">
        <ele>787</ele>
        <time>2023-04-14T15:35:28.800Z</time>
      </trkpt>
      <trkpt lat="45.84399" lon="3.0052">
        <ele>785</ele>
        <time>2023-04-14T15:35:32.515Z</time>
      </trkpt>
      <trkpt lat="45.84426" lon="3.00532">
        <ele>784</ele>
        <time>2023-04-14T15:35:36.235Z</time>
      </trkpt>
      <trkpt lat="45.84553" lon="3.00534">
        <ele>782</ele>
        <time>2023-04-14T15:35:39.975Z</time>
      </trkpt>
      <trkpt lat="45.84631" lon="3.0059">
        <ele>781</ele>
        <time>2023-04-14T15:35:43.729Z</time>
      </trkpt>
      <trkpt lat="45.84701" lon="3.00652">
        <ele>779</ele>
        <time>2023-04-14T15:35:47.496Z</time>
      </trkpt>
      <trkpt lat="45.84854" lon="3.00739">
        <ele>778</ele>
        <time>2023-04-14T15:35:51.290Z</time>
      </trkpt>
      <trkpt lat="45.84854" lon="3.00739">
        <ele>777</ele>
        <time>2023-04-14T15:35:55.084Z</time>
      </trkpt>
      <trkpt lat="45.84893" lon="3.00772">
        <ele>775</ele>
        <time>2023-04-14T15:35:58.885Z</time>
      </trkpt>
      <trkpt lat="45.84998" lon="3.00895">
        <ele>774</ele>
        <time>2023-04-14T15:36:02.708Z</time>
      </trkpt>
      <trkpt lat="45.85098" lon="3.00971">
        <ele>773</ele>
        <time>2023-04-14T15:36:06.549Z</time>
      </trkpt>
      <trkpt lat="45.85237" lon="3.01065">
        <ele>771</ele>
        <time>2023-04-14T15:36:10.415Z</time>
      </trkpt>
      <trkpt lat="45.8533" lon="3.0108">
        <ele>770</ele>
        <time>2023-04-14T15:36:14.295Z</time>
      </trkpt>
      <trkpt lat="45.85488" lon="3.01017">
        <ele>768</ele>
        <time>2023-04-14T15:36:18.202Z</time>
      </trkpt>
      <trkpt lat="45.85502" lon="3.01022">
        <ele>767</ele>
        <time>2023-04-14T15:36:22.111Z</time>
      </trkpt>
      <trkpt lat="45.8548" lon="3.01051">
        <ele>765</ele>
        <time>2023-04-14T15:36:26.025Z</time>
      </trkpt>
      <trkpt lat="45.8548" lon="3.01051">
        <ele>764</ele>
        <time>2023-04-14T15:36:29.939Z</time>
      </trkpt>
      <trkpt lat="45.85472" lon="3.01061">
        <ele>762</ele>
        <time>2023-04-14T15:36:33.855Z</time>
      </trkpt>
      <trkpt lat="45.85466" lon="3.01099">
        <ele>761</ele>
        <time>2023-04-14T15:36:37.775Z</time>
      </trkpt>
      <trkpt lat="45.85544" lon="3.01296">
        <ele>759</ele>
        <time>2023-04-14T15:36:41.720Z</time>
      </trkpt>
      <trkpt lat="45.85544" lon="3.01296">
        <ele>757</ele>
        <time>2023-04-14T15:36:45.665Z</time>
      </trkpt>
      <trkpt lat="45.8556" lon="3.01336">
        <ele>755</ele>
        <time>2023-04-14T15:36:49.615Z</time>
      </trkpt>
      <trkpt lat="45.85609" lon="3.01582">
        <ele>753</ele>
        <time>2023-04-14T15:36:53.594Z</time>
      </trkpt>
      <trkpt lat="45.8564" lon="3.01739">
        <ele>750</ele>
        <time>2023-04-14T15:36:57.591Z</time>
      </trkpt>
      <trkpt lat="45.85633" lon="3.0181">
        <ele>748</ele>
        <time>2023-04-14T15:37:01.596Z</time>
      </trkpt>
      <trkpt lat="45.85613" lon="3.01849">
        <ele>745</ele>
        <time>2023-04-14T15:37:05.607Z</time>
      </trkpt>
      <trkpt lat="45.85549" lon="3.01919">
        <ele>743</ele>
        <time>2023-04-14T15:37:09.630Z</time>
      </trkpt>
      <trkpt lat="45.85517" lon="3.0197">
        <ele>740</ele>
        <time>2023-04-14T15:37:13.661Z</time>
      </trkpt>
      <trkpt lat="45.85442" lon="3.02208">
        <ele>737</ele>
        <time>2023-04-14T15:37:17.721Z</time>
      </trkpt>
      <trkpt lat="45.85442" lon="3.02208">
        <ele>734</ele>
        <time>2023-04-14T15:37:21.781Z</time>
      </trkpt>
      <trkpt lat="45.85423" lon="3.0223">
        <ele>731</ele>
        <time>2023-04-14T15:37:25.845Z</time>
      </trkpt>
      <trkpt lat="45.85337" lon="3.0229">
        <ele>728</ele>
        <time>2023-04-14T15:37:29.925Z</time>
      </trkpt>
      <trkpt lat="45.85314" lon="3.02332">
        <ele>726</ele>
        <time>2023-04-14T15:37:34.011Z</time>
      </trkpt>
      <trkpt lat="45.85309" lon="3.02396">
        <ele>723</ele>
        <time>2023-04-14T15:37:38.104Z</time>
      </trkpt>
      <trkpt lat="45.8532" lon="3.02597">
        <ele>719</ele>
        <time>2023-04-14T15:37:42.219Z</time>
      </trkpt>
      <trkpt lat="45.85315" lon="3.02665">
        <ele>716</ele>
        <time>2023-04-14T15:37:46.342Z</time>
      </trkpt>
      <trkpt lat="45.85294" lon="3.02725">
        <ele>713</ele>
        <time>2023-04-14T15:37:50.473Z</time>
      </trkpt>
      <trkpt lat="45.85228" lon="3.02836">
        <ele>710</ele>
        <time>2023-04-14T15:37:54.620Z</time>
      </trkpt>
      <trkpt lat="45.85199" lon="3.02878">
        <ele>706</ele>
        <time>2023-04-14T15:37:58.773Z</time>
      </trkpt>
      <trkpt lat="45.85126" lon="3.02917">
        <ele>703</ele>
        <time>2023-04-14T15:38:02.939Z</time>
      </trkpt>
      <trkpt lat="45.85079" lon="3.02931">
        <ele>700</ele>
        <time>2023-04-14T15:38:07.113Z</time>
      </trkpt>
      <trkpt lat="45.85" lon="3.0294">
        <ele>697</ele>
        <time>2023-04-14T15:38:11.299Z</time>
      </trkpt>
      <trkpt lat="45.84905" lon="3.02929">
        <ele>694</ele>
        <time>2023-04-14T15:38:15.500Z</time>
      </trkpt>
      <trkpt lat="45.84843" lon="3.029">
        <ele>691</ele>
        <time>2023-04-14T15:38:19.712Z</time>
      </trkpt>
      <trkpt lat="45.84758" lon="3.02811">
        <ele>688</ele>
        <time>2023-04-14T15:38:23.941Z</time>
      </trkpt>
      <trkpt lat="45.84694" lon="3.02715">
        <ele>685</ele>
        <time>2023-04-14T15:38:28.185Z</time>
      </trkpt>
      <trkpt lat="45.84659" lon="3.02632">
        <ele>683</ele>
        <time>2023-04-14T15:38:32.440Z</time>
      </trkpt>
      <trkpt lat="45.84648" lon="3.02552">
        <ele>680</ele>
        <time>2023-04-14T15:38:36.704Z</time>
      </trkpt>
      <trkpt lat="45.84651" lon="3.02503">
        <ele>678</ele>
        <time>2023-04-14T15:38:40.973Z</time>
      </trkpt>
      <trkpt lat="45.84683" lon="3.02361">
        <ele>676</ele>
        <time>2023-04-14T15:38:45.259Z</time>
      </trkpt>
      <trkpt lat="45.8468" lon="3.0232">
        <ele>673</ele>
        <time>2023-04-14T15:38:49.549Z</time>
      </trkpt>
      <trkpt lat="45.84665" lon="3.02288">
        <ele>671</ele>
        <time>2023-04-14T15:38:53.844Z</time>
      </trkpt>
      <trkpt lat="45.84619" lon="3.0226">
        <ele>669</ele>
        <time>2023-04-14T15:38:58.147Z</time>
      </trkpt>
      <trkpt lat="45.84486" lon="3.02223">
        <ele>667</ele>
        <time>2023-04-14T15:39:02.471Z</time>
      </trkpt>
      <trkpt lat="45.84449" lon="3.02224">
        <ele>666</ele>
        <time>2023-04-14T15:39:06.801Z</time>
      </trkpt>
      <trkpt lat="45.84413" lon="3.0224">
        <ele>664</ele>
        <time>2023-04-14T15:39:11.137Z</time>
      </trkpt>
      <trkpt lat="45.8439" lon="3.02258">
        <ele>663</ele>
        <time>2023-04-14T15:39:15.478Z</time>
      </trkpt>
      <trkpt lat="45.84332" lon="3.02325">
        <ele>661</ele>
        <time>2023-04-14T15:39:19.830Z</time>
      </trkpt>
      <trkpt lat="45.84302" lon="3.02341">
        <ele>659</ele>
        <time>2023-04-14T15:39:24.188Z</time>
      </trkpt>
      <trkpt lat="45.84266" lon="3.0233">
        <ele>658</ele>
        <time>2023-04-14T15:39:28.551Z</time>
      </trkpt>
      <trkpt lat="45.8421" lon="3.02265">
        <ele>657</ele>
        <time>2023-04-14T15:39:32.926Z</time>
      </trkpt>
      <trkpt lat="45.842" lon="3.0226">
        <ele>655</ele>
        <time>2023-04-14T15:39:37.303Z</time>
      </trkpt>
      <trkpt lat="45.842" lon="3.0226">
        <ele>654</ele>
        <time>2023-04-14T15:39:41.680Z</time>
      </trkpt>
      <trkpt lat="45.8416" lon="3.02241">
        <ele>653</ele>
        <time>2023-04-14T15:39:46.063Z</time>
      </trkpt>
      <trkpt lat="45.84122" lon="3.02237">
        <ele>651</ele>
        <time>2023-04-14T15:39:50.453Z</time>
      </trkpt>
      <trkpt lat="45.841" lon="3.02244">
        <ele>650</ele>
        <time>2023-04-14T15:39:54.846Z</time>
      </trkpt>
      <trkpt lat="45.8408" lon="3.02267">
        <ele>648</ele>
        <time>2023-04-14T15:39:59.243Z</time>
      </trkpt>
      <trkpt lat="45.84069" lon="3.02301">
        <ele>647</ele>
        <time>2023-04-14T15:40:03.644Z</time>
      </trkpt>
      <trkpt lat="45.84068" lon="3.02305">
        <ele>645</ele>
        <time>2023-04-14T15:40:08.046Z</time>
      </trkpt>
      <trkpt lat="45.84077" lon="3.02354">
        <ele>644</ele>
        <time>2023-04-14T15:40:12.454Z</time>
      </trkpt>
      <trkpt lat="45.84143" lon="3.02534">
        <ele>641</ele>
        <time>2023-04-14T15:40:16.884Z</time>
      </trkpt>
      <trkpt lat="45.84153" lon="3.02578">
        <ele>635</ele>
        <time>2023-04-14T15:40:21.320Z</time>
      </trkpt>
      <trkpt lat="45.84162" lon="3.02729">
        <ele>632</ele>
        <time>2023-04-14T15:40:25.772Z</time>
      </trkpt>
      <trkpt lat="45.84152" lon="3.02786">
        <ele>629</ele>
        <time>2023-04-14T15:40:30.231Z</time>
      </trkpt>
      <trkpt lat="45.84131" lon="3.02824">
        <ele>626</ele>
        <time>2023-04-14T15:40:34.695Z</time>
      </trkpt>
      <trkpt lat="45.84062" lon="3.02906">
        <ele>624</ele>
        <time>2023-04-14T15:40:39.174Z</time>
      </trkpt>
      <trkpt lat="45.84026" lon="3.02987">
        <ele>621</ele>
        <time>2023-04-14T15:40:43.664Z</time>
      </trkpt>
      <trkpt lat="45.84011" lon="3.03058">
        <ele>617</ele>
        <time>2023-04-14T15:40:48.162Z</time>
      </trkpt>
      <trkpt lat="45.84006" lon="3.03289">
        <ele>614</ele>
        <time>2023-04-14T15:40:52.686Z</time>
      </trkpt>
      <trkpt lat="45.84004" lon="3.03416">
        <ele>611</ele>
        <time>2023-04-14T15:40:57.224Z</time>
      </trkpt>
      <trkpt lat="45.84004" lon="3.03416">
        <ele>607</ele>
        <time>2023-04-14T15:41:01.762Z</time>
      </trkpt>
      <trkpt lat="45.83997" lon="3.03537">
        <ele>604</ele>
        <time>2023-04-14T15:41:06.314Z</time>
      </trkpt>
      <trkpt lat="45.83962" lon="3.03632">
        <ele>601</ele>
        <time>2023-04-14T15:41:10.877Z</time>
      </trkpt>
      <trkpt lat="45.83913" lon="3.03727">
        <ele>597</ele>
        <time>2023-04-14T15:41:15.454Z</time>
      </trkpt>
      <trkpt lat="45.8391" lon="3.03731">
        <ele>593</ele>
        <time>2023-04-14T15:41:20.031Z</time>
      </trkpt>
      <trkpt lat="45.8391" lon="3.03731">
        <ele>590</ele>
        <time>2023-04-14T15:41:24.608Z</time>
      </trkpt>
      <trkpt lat="45.83778" lon="3.03882">
        <ele>587</ele>
        <time>2023-04-14T15:41:29.212Z</time>
      </trkpt>
      <trkpt lat="45.83751" lon="3.03931">
        <ele>583</ele>
        <time>2023-04-14T15:41:33.823Z</time>
      </trkpt>
      <trkpt lat="45.83746" lon="3.03969">
        <ele>580</ele>
        <time>2023-04-14T15:41:38.439Z</time>
      </trkpt>
      <trkpt lat="45.83747" lon="3.03999">
        <ele>576</ele>
        <time>2023-04-14T15:41:43.058Z</time>
      </trkpt>
      <trkpt lat="45.83792" lon="3.04223">
        <ele>573</ele>
        <time>2023-04-14T15:41:47.703Z</time>
      </trkpt>
      <trkpt lat="45.83794" lon="3.04259">
        <ele>570</ele>
        <time>2023-04-14T15:41:52.352Z</time>
      </trkpt>
      <trkpt lat="45.83779" lon="3.04298">
        <ele>567</ele>
        <time>2023-04-14T15:41:57.006Z</time>
      </trkpt>
      <trkpt lat="45.83742" lon="3.04333">
        <ele>564</ele>
        <time>2023-04-14T15:42:01.667Z</time>
      </trkpt>
      <trkpt lat="45.8371" lon="3.04348">
        <ele>561</ele>
        <time>2023-04-14T15:42:06.334Z</time>
      </trkpt>
      <trkpt lat="45.83691" lon="3.04331">
        <ele>558</ele>
        <time>2023-04-14T15:42:11.004Z</time>
      </trkpt>
      <trkpt lat="45.83652" lon="3.04202">
        <ele>555</ele>
        <time>2023-04-14T15:42:15.690Z</time>
      </trkpt>
      <trkpt lat="45.83645" lon="3.0412">
        <ele>553</ele>
        <time>2023-04-14T15:42:20.385Z</time>
      </trkpt>
      <trkpt lat="45.83548" lon="3.03988">
        <ele>550</ele>
        <time>2023-04-14T15:42:25.102Z</time>
      </trkpt>
      <trkpt lat="45.83539" lon="3.03954">
        <ele>548</ele>
        <time>2023-04-14T15:42:29.823Z</time>
      </trkpt>
      <trkpt lat="45.83545" lon="3.03871">
        <ele>547</ele>
        <time>2023-04-14T15:42:34.553Z</time>
      </trkpt>
      <trkpt lat="45.83537" lon="3.03834">
        <ele>545</ele>
        <time>2023-04-14T15:42:39.287Z</time>
      </trkpt>
      <trkpt lat="45.83509" lon="3.03815">
        <ele>543</ele>
        <time>2023-04-14T15:42:44.026Z</time>
      </trkpt>
      <trkpt lat="45.83454" lon="3.03821">
        <ele>541</ele>
        <time>2023-04-14T15:42:48.774Z</time>
      </trkpt>
      <trkpt lat="45.83439" lon="3.03832">
        <ele>540</ele>
        <time>2023-04-14T15:42:53.525Z</time>
      </trkpt>
      <trkpt lat="45.8343" lon="3.03849">
        <ele>538</ele>
        <time>2023-04-14T15:42:58.278Z</time>
      </trkpt>
      <trkpt lat="45.83427" lon="3.03897">
        <ele>537</ele>
        <time>2023-04-14T15:43:03.037Z</time>
      </trkpt>
      <trkpt lat="45.83442" lon="3.03991">
        <ele>536</ele>
        <time>2023-04-14T15:43:07.806Z</time>
      </trkpt>
      <trkpt lat="45.83443" lon="3.04061">
        <ele>535</ele>
        <time>2023-04-14T15:43:12.583Z</time>
      </trkpt>
      <trkpt lat="45.83491" lon="3.04246">
        <ele>534</ele>
        <time>2023-04-14T15:43:17.382Z</time>
      </trkpt>
      <trkpt lat="45.83498" lon="3.0436">
        <ele>532</ele>
        <time>2023-04-14T15:43:22.194Z</time>
      </trkpt>
      <trkpt lat="45.83483" lon="3.04396">
        <ele>531</ele>
        <time>2023-04-14T15:43:27.011Z</time>
      </trkpt>
      <trkpt lat="45.83411" lon="3.04436">
        <ele>531</ele>
        <time>2023-04-14T15:43:31.840Z</time>
      </trkpt>
      <trkpt lat="45.83375" lon="3.04453">
        <ele>520</ele>
        <time>2023-04-14T15:43:36.675Z</time>
      </trkpt>
      <trkpt lat="45.834" lon="3.04506">
        <ele>520</ele>
        <time>2023-04-14T15:43:41.517Z</time>
      </trkpt>
      <trkpt lat="45.83509" lon="3.04659">
        <ele>521</ele>
        <time>2023-04-14T15:43:46.384Z</time>
      </trkpt>
      <trkpt lat="45.83509" lon="3.04659">
        <ele>522</ele>
        <time>2023-04-14T15:43:51.251Z</time>
      </trkpt>
      <trkpt lat="45.83596" lon="3.04771">
        <ele>523</ele>
        <time>2023-04-14T15:43:56.137Z</time>
      </trkpt>
      <trkpt lat="45.83655" lon="3.04832">
        <ele>524</ele>
        <time>2023-04-14T15:44:01.034Z</time>
      </trkpt>
      <trkpt lat="45.83707" lon="3.0488">
        <ele>525</ele>
        <time>2023-04-14T15:44:05.941Z</time>
      </trkpt>
      <trkpt lat="45.83738" lon="3.04897">
        <ele>526</ele>
        <time>2023-04-14T15:44:10.853Z</time>
      </trkpt>
      <trkpt lat="45.83738" lon="3.04897">
        <ele>527</ele>
        <time>2023-04-14T15:44:15.765Z</time>
      </trkpt>
      <trkpt lat="45.83801" lon="3.04896">
        <ele>528</ele>
        <time>2023-04-14T15:44:20.687Z</time>
      </trkpt>
      <trkpt lat="45.83956" lon="3.048">
        <ele>528</ele>
        <time>2023-04-14T15:44:25.637Z</time>
      </trkpt>
      <trkpt lat="45.83956" lon="3.048">
        <ele>528</ele>
        <time>2023-04-14T15:44:30.587Z</time>
      </trkpt>
      <trkpt lat="45.84082" lon="3.04725">
        <ele>528</ele>
        <time>2023-04-14T15:44:35.558Z</time>
      </trkpt>
      <trkpt lat="45.84156" lon="3.04703">
        <ele>528</ele>
        <time>2023-04-14T15:44:40.542Z</time>
      </trkpt>
      <trkpt lat="45.8417" lon="3.04729">
        <ele>527</ele>
        <time>2023-04-14T15:44:45.529Z</time>
      </trkpt>
      <trkpt lat="45.8419" lon="3.04728">
        <ele>526</ele>
        <time>2023-04-14T15:44:50.519Z</time>
      </trkpt>
      <trkpt lat="45.84198" lon="3.04717">
        <ele>525</ele>
        <time>2023-04-14T15:44:55.511Z</time>
      </trkpt>
      <trkpt lat="45.84202" lon="3.04695">
        <ele>524</ele>
        <time>2023-04-14T15:45:00.506Z</time>
      </trkpt>
      <trkpt lat="45.84261" lon="3.04679">
        <ele>523</ele>
        <time>2023-04-14T15:45:05.510Z</time>
      </trkpt>
      <trkpt lat="45.84295" lon="3.04659">
        <ele>522</ele>
        <time>2023-04-14T15:45:10.520Z</time>
      </trkpt>
      <trkpt lat="45.84434" lon="3.04522">
        <ele>520</ele>
        <time>2023-04-14T15:45:15.557Z</time>
      </trkpt>
      <trkpt lat="45.84462" lon="3.04504">
        <ele>518</ele>
        <time>2023-04-14T15:45:20.599Z</time>
      </trkpt>
      <trkpt lat="45.84496" lon="3.04496">
        <ele>516</ele>
        <time>2023-04-14T15:45:25.647Z</time>
      </trkpt>
      <trkpt lat="45.84534" lon="3.045">
        <ele>514</ele>
        <time>2023-04-14T15:45:30.701Z</time>
      </trkpt>
      <trkpt lat="45.84565" lon="3.04518">
        <ele>512</ele>
        <time>2023-04-14T15:45:35.760Z</time>
      </trkpt>
      <trkpt lat="45.8473" lon="3.04674">
        <ele>509</ele>
        <time>2023-04-14T15:45:40.851Z</time>
      </trkpt>
      <trkpt lat="45.84763" lon="3.04691">
        <ele>507</ele>
        <time>2023-04-14T15:45:45.948Z</time>
      </trkpt>
      <trkpt lat="45.84818" lon="3.04693">
        <ele>504</ele>
        <time>2023-04-14T15:45:51.053Z</time>
      </trkpt>
      <trkpt lat="45.84973" lon="3.04654">
        <ele>501</ele>
        <time>2023-04-14T15:45:56.183Z</time>
      </trkpt>
      <trkpt lat="45.84973" lon="3.04654">
        <ele>499</ele>
        <time>2023-04-14T15:46:01.313Z</time>
      </trkpt>
      <trkpt lat="45.85012" lon="3.04645">
        <ele>496</ele>
        <time>2023-04-14T15:46:06.450Z</time>
      </trkpt>
      <trkpt lat="45.85017" lon="3.04643">
        <ele>494</ele>
        <time>2023-04-14T15:46:11.588Z</time>
      </trkpt>
      <trkpt lat="45.85104" lon="3.04608">
        <ele>492</ele>
        <time>2023-04-14T15:46:16.740Z</time>
      </trkpt>
      <trkpt lat="45.85174" lon="3.04561">
        <ele>490</ele>
        <time>2023-04-14T15:46:21.904Z</time>
      </trkpt>
      <trkpt lat="45.85174" lon="3.04561">
        <ele>487</ele>
        <time>2023-04-14T15:46:27.068Z</time>
      </trkpt>
      <trkpt lat="45.85262" lon="3.04512">
        <ele>485</ele>
        <time>2023-04-14T15:46:32.248Z</time>
      </trkpt>
      <trkpt lat="45.85449" lon="3.04466">
        <ele>483</ele>
        <time>2023-04-14T15:46:37.458Z</time>
      </trkpt>
      <trkpt lat="45.85543" lon="3.04393">
        <ele>481</ele>
        <time>2023-04-14T15:46:42.685Z</time>
      </trkpt>
      <trkpt lat="45.85646" lon="3.04358">
        <ele>480</ele>
        <time>2023-04-14T15:46:47.929Z</time>
      </trkpt>
      <trkpt lat="45.85714" lon="3.04348">
        <ele>478</ele>
        <time>2023-04-14T15:46:53.184Z</time>
      </trkpt>
      <trkpt lat="45.85814" lon="3.04401">
        <ele>477</ele>
        <time>2023-04-14T15:46:58.456Z</time>
      </trkpt>
      <trkpt lat="45.85848" lon="3.044">
        <ele>476</ele>
        <time>2023-04-14T15:47:03.733Z</time>
      </trkpt>
      <trkpt lat="45.86121" lon="3.04277">
        <ele>474</ele>
        <time>2023-04-14T15:47:09.056Z</time>
      </trkpt>
      <trkpt lat="45.86299" lon="3.04107">
        <ele>473</ele>
        <time>2023-04-14T15:47:14.414Z</time>
      </trkpt>
      <trkpt lat="45.86337" lon="3.04098">
        <ele>473</ele>
        <time>2023-04-14T15:47:19.778Z</time>
      </trkpt>
      <trkpt lat="45.86352" lon="3.04106">
        <ele>472</ele>
        <time>2023-04-14T15:47:25.144Z</time>
      </trkpt>
      <trkpt lat="45.8636" lon="3.04117">
        <ele>472</ele>
        <time>2023-04-14T15:47:30.512Z</time>
      </trkpt>
      <trkpt lat="45.86369" lon="3.04119">
        <ele>472</ele>
        <time>2023-04-14T15:47:35.881Z</time>
      </trkpt>
      <trkpt lat="45.86381" lon="3.04102">
        <ele>472</ele>
        <time>2023-04-14T15:47:41.253Z</time>
      </trkpt>
      <trkpt lat="45.8638" lon="3.04087">
        <ele>472</ele>
        <time>2023-04-14T15:47:46.627Z</time>
      </trkpt>
      <trkpt lat="45.86403" lon="3.04045">
        <ele>473</ele>
        <time>2023-04-14T15:47:52.007Z</time>
      </trkpt>
      <trkpt lat="45.86411" lon="3.04039">
        <ele>473</ele>
        <time>2023-04-14T15:47:57.388Z</time>
      </trkpt>
      <trkpt lat="45.86463" lon="3.04021">
        <ele>474</ele>
        <time>2023-04-14T15:48:02.778Z</time>
      </trkpt>
      <trkpt lat="45.86491" lon="3.04021">
        <ele>475</ele>
        <time>2023-04-14T15:48:08.172Z</time>
      </trkpt>
      <trkpt lat="45.86493" lon="3.04025">
        <ele>476</ele>
        <time>2023-04-14T15:48:13.567Z</time>
      </trkpt>
      <trkpt lat="45.86506" lon="3.04024">
        <ele>477</ele>
        <time>2023-04-14T15:48:18.964Z</time>
      </trkpt>
      <trkpt lat="45.8651" lon="3.04016">
        <ele>478</ele>
        <time>2023-04-14T15:48:24.362Z</time>
      </trkpt>
      <trkpt lat="45.86538" lon="3.03998">
        <ele>480</ele>
        <time>2023-04-14T15:48:29.765Z</time>
      </trkpt>
      <trkpt lat="45.86638" lon="3.03951">
        <ele>481</ele>
        <time>2023-04-14T15:48:35.185Z</time>
      </trkpt>
      <trkpt lat="45.86646" lon="3.03946">
        <ele>483</ele>
        <time>2023-04-14T15:48:40.606Z</time>
      </trkpt>
      <trkpt lat="45.86782" lon="3.03869">
        <ele>485</ele>
        <time>2023-04-14T15:48:46.051Z</time>
      </trkpt>
      <trkpt lat="45.86782" lon="3.03869">
        <ele>486</ele>
        <time>2023-04-14T15:48:51.496Z</time>
      </trkpt>
      <trkpt lat="45.86828" lon="3.0384">
        <ele>488</ele>
        <time>2023-04-14T15:48:56.949Z</time>
      </trkpt>
      <trkpt lat="45.86856" lon="3.038">
        <ele>490</ele>
        <time>2023-04-14T15:49:02.408Z</time>
      </trkpt>
      <trkpt lat="45.86874" lon="3.03783">
        <ele>491</ele>
        <time>2023-04-14T15:49:07.870Z</time>
      </trkpt>
      <trkpt lat="45.8688" lon="3.03777">
        <ele>493</ele>
        <time>2023-04-14T15:49:13.334Z</time>
      </trkpt>
      <trkpt lat="45.86918" lon="3.03754">
        <ele>495</ele>
        <time>2023-04-14T15:49:18.804Z</time>
      </trkpt>
      <trkpt lat="45.86943" lon="3.03765">
        <ele>496</ele>
        <time>2023-04-14T15:49:24.278Z</time>
      </trkpt>
      <trkpt lat="45.86942" lon="3.03767">
        <ele>498</ele>
        <time>2023-04-14T15:49:29.753Z</time>
      </trkpt>
      <trkpt lat="45.86962" lon="3.03779">
        <ele>500</ele>
        <time>2023-04-14T15:49:35.231Z</time>
      </trkpt>
      <trkpt lat="45.86968" lon="3.0378">
        <ele>501</ele>
        <time>2023-04-14T15:49:40.710Z</time>
      </trkpt>
      <trkpt lat="45.86978" lon="3.03775">
        <ele>503</ele>
        <time>2023-04-14T15:49:46.191Z</time>
      </trkpt>
      <trkpt lat="45.86984" lon="3.03774">
        <ele>504</ele>
        <time>2023-04-14T15:49:51.673Z</time>
      </trkpt>
      <trkpt lat="45.86989" lon="3.03764">
        <ele>506</ele>
        <time>2023-04-14T15:49:57.156Z</time>
      </trkpt>
      <trkpt lat="45.86995" lon="3.03747">
        <ele>507</ele>
        <time>2023-04-14T15:50:02.641Z</time>
      </trkpt>
      <trkpt lat="45.87005" lon="3.03715">
        <ele>509</ele>
        <time>2023-04-14T15:50:08.130Z</time>
      </trkpt>
      <trkpt lat="45.86986" lon="3.03732">
        <ele>510</ele>
        <time>2023-04-14T15:50:13.623Z</time>
      </trkpt>
      <trkpt lat="45.86978" lon="3.03733">
        <ele>511</ele>
        <time>2023-04-14T15:50:19.117Z</time>
      </trkpt>
      <trkpt lat="45.86967" lon="3.03727">
        <ele>512</ele>
        <time>2023-04-14T15:50:24.613Z</time>
      </trkpt>
      <trkpt lat="45.86963" lon="3.03719">
        <ele>514</ele>
        <time>2023-04-14T15:50:30.110Z</time>
      </trkpt>
      <trkpt lat="45.86963" lon="3.03719">
        <ele>515</ele>
        <time>2023-04-14T15:50:35.607Z</time>
      </trkpt>
      <trkpt lat="45.8694" lon="3.03645">
        <ele>516</ele>
        <time>2023-04-14T15:50:41.113Z</time>
      </trkpt>
      <trkpt lat="45.86933" lon="3.03631">
        <ele>517</ele>
        <time>2023-04-14T15:50:46.621Z</time>
      </trkpt>
      <trkpt lat="45.86923" lon="3.0362">
        <ele>518</ele>
        <time>2023-04-14T15:50:52.131Z</time>
      </trkpt>
      <trkpt lat="45.86909" lon="3.03612">
        <ele>519</ele>
        <time>2023-04-14T15:50:57.644Z</time>
      </trkpt>
      <trkpt lat="45.86893" lon="3.03608">
        <ele>520</ele>
        <time>2023-04-14T15:51:03.159Z</time>
      </trkpt>
      <trkpt lat="45.86867" lon="3.0361">
        <ele>521</ele>
        <time>2023-04-14T15:51:08.678Z</time>
      </trkpt>
      <trkpt lat="45.86855" lon="3.0361">
        <ele>522</ele>
        <time>2023-04-14T15:51:14.199Z</time>
      </trkpt>
      <trkpt lat="45.86839" lon="3.03605">
        <ele>523</ele>
        <time>2023-04-14T15:51:19.723Z</time>
      </trkpt>
      <trkpt lat="45.86816" lon="3.03585">
        <ele>524</ele>
        <time>2023-04-14T15:51:25.251Z</time>
      </trkpt>
      <trkpt lat="45.8681" lon="3.03579">
        <ele>524</ele>
        <time>2023-04-14T15:51:30.780Z</time>
      </trkpt>
      <trkpt lat="45.8681" lon="3.03579">
        <ele>525</ele>
        <time>2023-04-14T15:51:36.309Z</time>
      </trkpt>
      <trkpt lat="45.86808" lon="3.03576">
        <ele>525</ele>
        <time>2023-04-14T15:51:41.839Z</time>
      </trkpt>
      <trkpt lat="45.86808" lon="3.03576">
        <ele>526</ele>
        <time>2023-04-14T15:51:47.369Z</time>
      </trkpt>
      <trkpt lat="45.86808" lon="3.03576">
        <ele>527</ele>
        <time>2023-04-14T15:51:52.899Z</time>
      </trkpt>
      <trkpt lat="45.86807" lon="3.03575">
        <ele>527</ele>
        <time>2023-04-14T15:51:58.429Z</time>
      </trkpt>
      <trkpt lat="45.86807" lon="3.03574">
        <ele>528</ele>
        <time>2023-04-14T15:52:03.959Z</time>
      </trkpt>
      <trkpt lat="45.86807" lon="3.03574">
        <ele>528</ele>
        <time>2023-04-14T15:52:09.489Z</time>
      </trkpt>
      <trkpt lat="45.86806" lon="3.03573">
        <ele>529</ele>
        <time>2023-04-14T15:52:15.019Z</time>
      </trkpt>
      <trkpt lat="45.86792" lon="3.03549">
        <ele>529</ele>
        <time>2023-04-14T15:52:20.553Z</time>
      </trkpt>
      <trkpt lat="45.86786" lon="3.03535">
        <ele>530</ele>
        <time>2023-04-14T15:52:26.089Z</time>
      </trkpt>
      <trkpt lat="45.86783" lon="3.03511">
        <ele>530</ele>
        <time>2023-04-14T15:52:31.627Z</time>
      </trkpt>
      <trkpt lat="45.86784" lon="3.03473">
        <ele>531</ele>
        <time>2023-04-14T15:52:37.170Z</time>
      </trkpt>
      <trkpt lat="45.86787" lon="3.03457">
        <ele>531</ele>
        <time>2023-04-14T15:52:42.714Z</time>
      </trkpt>
      <trkpt lat="45.86814" lon="3.03397">
        <ele>532</ele>
        <time>2023-04-14T15:52:48.266Z</time>
      </trkpt>
      <trkpt lat="45.8683" lon="3.03373">
        <ele>533</ele>
        <time>2023-04-14T15:52:53.822Z</time>
      </trkpt>
      <trkpt lat="45.86849" lon="3.03355">
        <ele>533</ele>
        <time>2023-04-14T15:52:59.382Z</time>
      </trkpt>
      <trkpt lat="45.8686" lon="3.03352">
        <ele>534</ele>
        <time>2023-04-14T15:53:04.944Z</time>
      </trkpt>
      <trkpt lat="45.8687" lon="3.03352">
        <ele>534</ele>
        <time>2023-04-14T15:53:10.507Z</time>
      </trkpt>
      <trkpt lat="45.86886" lon="3.03356">
        <ele>535</ele>
        <time>2023-04-14T15:53:16.073Z</time>
      </trkpt>
      <trkpt lat="45.86936" lon="3.03386">
        <ele>536</ele>
        <time>2023-04-14T15:53:21.647Z</time>
      </trkpt>
      <trkpt lat="45.86957" lon="3.03395">
        <ele>536</ele>
        <time>2023-04-14T15:53:27.225Z</time>
      </trkpt>
      <trkpt lat="45.86967" lon="3.03395">
        <ele>537</ele>
        <time>2023-04-14T15:53:32.805Z</time>
      </trkpt>
      <trkpt lat="45.86977" lon="3.03391">
        <ele>538</ele>
        <time>2023-04-14T15:53:38.386Z</time>
      </trkpt>
      <trkpt lat="45.86988" lon="3.03382">
        <ele>538</ele>
        <time>2023-04-14T15:53:43.969Z</time>
      </trkpt>
      <trkpt lat="45.86998" lon="3.03368">
        <ele>539</ele>
        <time>2023-04-14T15:53:49.554Z</time>
      </trkpt>
      <trkpt lat="45.87002" lon="3.03358">
        <ele>540</ele>
        <time>2023-04-14T15:53:55.141Z</time>
      </trkpt>
      <trkpt lat="45.87002" lon="3.03358">
        <ele>540</ele>
        <time>2023-04-14T15:54:00.728Z</time>
      </trkpt>
      <trkpt lat="45.87004" lon="3.03354">
        <ele>541</ele>
        <time>2023-04-14T15:54:06.315Z</time>
      </trkpt>
      <trkpt lat="45.87004" lon="3.03354">
        <ele>542</ele>
        <time>2023-04-14T15:54:11.902Z</time>
      </trkpt>
      <trkpt lat="45.87004" lon="3.03354">
        <ele>543</ele>
        <time>2023-04-14T15:54:17.489Z</time>
      </trkpt>
      <trkpt lat="45.87004" lon="3.03353">
        <ele>544</ele>
        <time>2023-04-14T15:54:23.076Z</time>
      </trkpt>
      <trkpt lat="45.87005" lon="3.03353">
        <ele>545</ele>
        <time>2023-04-14T15:54:28.663Z</time>
      </trkpt>
      <trkpt lat="45.87005" lon="3.03352">
        <ele>546</ele>
        <time>2023-04-14T15:54:34.250Z</time>
      </trkpt>
      <trkpt lat="45.87005" lon="3.03351">
        <ele>547</ele>
        <time>2023-04-14T15:54:39.838Z</time>
      </trkpt>
      <trkpt lat="45.87024" lon="3.03306">
        <ele>548</ele>
        <time>2023-04-14T15:54:45.432Z</time>
      </trkpt>
      <trkpt lat="45.87027" lon="3.03289">
        <ele>549</ele>
        <time>2023-04-14T15:54:51.027Z</time>
      </trkpt>
      <trkpt lat="45.87028" lon="3.03277">
        <ele>551</ele>
        <time>2023-04-14T15:54:56.624Z</time>
      </trkpt>
      <trkpt lat="45.87023" lon="3.03252">
        <ele>552</ele>
        <time>2023-04-14T15:55:02.224Z</time>
      </trkpt>
      <trkpt lat="45.87007" lon="3.03224">
        <ele>554</ele>
        <time>2023-04-14T15:55:07.828Z</time>
      </trkpt>
      <trkpt lat="45.87001" lon="3.03216">
        <ele>555</ele>
        <time>2023-04-14T15:55:13.433Z</time>
      </trkpt>
      <trkpt lat="45.87006" lon="3.03207">
        <ele>556</ele>
        <time>2023-04-14T15:55:19.039Z</time>
      </trkpt>
      <trkpt lat="45.87009" lon="3.03199">
        <ele>558</ele>
        <time>2023-04-14T15:55:24.646Z</time>
      </trkpt>
      <trkpt lat="45.87013" lon="3.03143">
        <ele>560</ele>
        <time>2023-04-14T15:55:30.260Z</time>
      </trkpt>
      <trkpt lat="45.87021" lon="3.03093">
        <ele>561</ele>
        <time>2023-04-14T15:55:35.879Z</time>
      </trkpt>
      <trkpt lat="45.87027" lon="3.03069">
        <ele>563</ele>
        <time>2023-04-14T15:55:41.501Z</time>
      </trkpt>
      <trkpt lat="45.87048" lon="3.03013">
        <ele>565</ele>
        <time>2023-04-14T15:55:47.130Z</time>
      </trkpt>
      <trkpt lat="45.87071" lon="3.02937">
        <ele>566</ele>
        <time>2023-04-14T15:55:52.769Z</time>
      </trkpt>
      <trkpt lat="45.87091" lon="3.02868">
        <ele>568</ele>
        <time>2023-04-14T15:55:58.416Z</time>
      </trkpt>
      <trkpt lat="45.87092" lon="3.02864">
        <ele>569</ele>
        <time>2023-04-14T15:56:04.063Z</time>
      </trkpt>
      <trkpt lat="45.87142" lon="3.02872">
        <ele>571</ele>
        <time>2023-04-14T15:56:09.719Z</time>
      </trkpt>
      <trkpt lat="45.87174" lon="3.02883">
        <ele>572</ele>
        <time>2023-04-14T15:56:15.380Z</time>
      </trkpt>
      <trkpt lat="45.87191" lon="3.02892">
        <ele>574</ele>
        <time>2023-04-14T15:56:21.044Z</time>
      </trkpt>
      <trkpt lat="45.87214" lon="3.02911">
        <ele>575</ele>
        <time>2023-04-14T15:56:26.712Z</time>
      </trkpt>
      <trkpt lat="45.87234" lon="3.02934">
        <ele>576</ele>
        <time>2023-04-14T15:56:32.384Z</time>
      </trkpt>
      <trkpt lat="45.87254" lon="3.02965">
        <ele>577</ele>
        <time>2023-04-14T15:56:38.061Z</time>
      </trkpt>
      <trkpt lat="45.87267" lon="3.02992">
        <ele>578</ele>
        <time>2023-04-14T15:56:43.741Z</time>
      </trkpt>
      <trkpt lat="45.87278" lon="3.03023">
        <ele>578</ele>
        <time>2023-04-14T15:56:49.425Z</time>
      </trkpt>
      <trkpt lat="45.87313" lon="3.03141">
        <ele>579</ele>
        <time>2023-04-14T15:56:55.124Z</time>
      </trkpt>
      <trkpt lat="45.87327" lon="3.03172">
        <ele>580</ele>
        <time>2023-04-14T15:57:00.827Z</time>
      </trkpt>
      <trkpt lat="45.87337" lon="3.03187">
        <ele>581</ele>
        <time>2023-04-14T15:57:06.532Z</time>
      </trkpt>
      <trkpt lat="45.87361" lon="3.03206">
        <ele>581</ele>
        <time>2023-04-14T15:57:12.241Z</time>
      </trkpt>
      <trkpt lat="45.87374" lon="3.03211">
        <ele>582</ele>
        <time>2023-04-14T15:57:17.953Z</time>
      </trkpt>
      <trkpt lat="45.8739" lon="3.03216">
        <ele>583</ele>
        <time>2023-04-14T15:57:23.667Z</time>
      </trkpt>
      <trkpt lat="45.87394" lon="3.03219">
        <ele>583</ele>
        <time>2023-04-14T15:57:29.382Z</time>
      </trkpt>
      <trkpt lat="45.8742" lon="3.03208">
        <ele>584</ele>
        <time>2023-04-14T15:57:35.101Z</time>
      </trkpt>
      <trkpt lat="45.87484" lon="3.03173">
        <ele>584</ele>
        <time>2023-04-14T15:57:40.831Z</time>
      </trkpt>
      <trkpt lat="45.8751" lon="3.0315">
        <ele>584</ele>
        <time>2023-04-14T15:57:46.566Z</time>
      </trkpt>
      <trkpt lat="45.87528" lon="3.03126">
        <ele>585</ele>
        <time>2023-04-14T15:57:52.305Z</time>
      </trkpt>
      <trkpt lat="45.8754" lon="3.03102">
        <ele>585</ele>
        <time>2023-04-14T15:57:58.047Z</time>
      </trkpt>
      <trkpt lat="45.87552" lon="3.0306">
        <ele>585</ele>
        <time>2023-04-14T15:58:03.794Z</time>
      </trkpt>
      <trkpt lat="45.87556" lon="3.03035">
        <ele>586</ele>
        <time>2023-04-14T15:58:09.544Z</time>
      </trkpt>
      <trkpt lat="45.87556" lon="3.03035">
        <ele>586</ele>
        <time>2023-04-14T15:58:15.294Z</time>
      </trkpt>
      <trkpt lat="45.87557" lon="3.03031">
        <ele>586</ele>
        <time>2023-04-14T15:58:21.045Z</time>
      </trkpt>
      <trkpt lat="45.87557" lon="3.03031">
        <ele>586</ele>
        <time>2023-04-14T15:58:26.796Z</time>
      </trkpt>
      <trkpt lat="45.87557" lon="3.0303">
        <ele>586</ele>
        <time>2023-04-14T15:58:32.547Z</time>
      </trkpt>
      <trkpt lat="45.87557" lon="3.03029">
        <ele>587</ele>
        <time>2023-04-14T15:58:38.298Z</time>
      </trkpt>
      <trkpt lat="45.87557" lon="3.03029">
        <ele>587</ele>
        <time>2023-04-14T15:58:44.049Z</time>
      </trkpt>
      <trkpt lat="45.87557" lon="3.03029">
        <ele>587</ele>
        <time>2023-04-14T15:58:49.800Z</time>
      </trkpt>
      <trkpt lat="45.87557" lon="3.03028">
        <ele>587</ele>
        <time>2023-04-14T15:58:55.551Z</time>
      </trkpt>
      <trkpt lat="45.87557" lon="3.0298">
        <ele>588</ele>
        <time>2023-04-14T15:59:01.308Z</time>
      </trkpt>
      <trkpt lat="45.87548" lon="3.02942">
        <ele>588</ele>
        <time>2023-04-14T15:59:07.069Z</time>
      </trkpt>
      <trkpt lat="45.87536" lon="3.02914">
        <ele>589</ele>
        <time>2023-04-14T15:59:12.834Z</time>
      </trkpt>
      <trkpt lat="45.87507" lon="3.02854">
        <ele>589</ele>
        <time>2023-04-14T15:59:18.607Z</time>
      </trkpt>
      <trkpt lat="45.8748" lon="3.02802">
        <ele>589</ele>
        <time>2023-04-14T15:59:24.387Z</time>
      </trkpt>
      <trkpt lat="45.87472" lon="3.02779">
        <ele>590</ele>
        <time>2023-04-14T15:59:30.170Z</time>
      </trkpt>
      <trkpt lat="45.87467" lon="3.02747">
        <ele>591</ele>
        <time>2023-04-14T15:59:35.957Z</time>
      </trkpt>
      <trkpt lat="45.87469" lon="3.0271">
        <ele>591</ele>
        <time>2023-04-14T15:59:41.748Z</time>
      </trkpt>
      <trkpt lat="45.87474" lon="3.02692">
        <ele>592</ele>
        <time>2023-04-14T15:59:47.541Z</time>
      </trkpt>
      <trkpt lat="45.87488" lon="3.02659">
        <ele>593</ele>
        <time>2023-04-14T15:59:53.338Z</time>
      </trkpt>
      <trkpt lat="45.87498" lon="3.02644">
        <ele>594</ele>
        <time>2023-04-14T15:59:59.138Z</time>
      </trkpt>
      <trkpt lat="45.87508" lon="3.02632">
        <ele>595</ele>
        <time>2023-04-14T16:00:04.940Z</time>
      </trkpt>
      <trkpt lat="45.87529" lon="3.02617">
        <ele>595</ele>
        <time>2023-04-14T16:00:10.745Z</time>
      </trkpt>
      <trkpt lat="45.87576" lon="3.02586">
        <ele>596</ele>
        <time>2023-04-14T16:00:16.559Z</time>
      </trkpt>
      <trkpt lat="45.87588" lon="3.02573">
        <ele>597</ele>
        <time>2023-04-14T16:00:22.375Z</time>
      </trkpt>
      <trkpt lat="45.87606" lon="3.02536">
        <ele>598</ele>
        <time>2023-04-14T16:00:28.196Z</time>
      </trkpt>
      <trkpt lat="45.87615" lon="3.02497">
        <ele>600</ele>
        <time>2023-04-14T16:00:34.022Z</time>
      </trkpt>
      <trkpt lat="45.87618" lon="3.02446">
        <ele>601</ele>
        <time>2023-04-14T16:00:39.853Z</time>
      </trkpt>
      <trkpt lat="45.87622" lon="3.02339">
        <ele>602</ele>
        <time>2023-04-14T16:00:45.696Z</time>
      </trkpt>
      <trkpt lat="45.87628" lon="3.02306">
        <ele>603</ele>
        <time>2023-04-14T16:00:51.543Z</time>
      </trkpt>
      <trkpt lat="45.87636" lon="3.02283">
        <ele>604</ele>
        <time>2023-04-14T16:00:57.393Z</time>
      </trkpt>
      <trkpt lat="45.87643" lon="3.02268">
        <ele>606</ele>
        <time>2023-04-14T16:01:03.245Z</time>
      </trkpt>
      <trkpt lat="45.87653" lon="3.02256">
        <ele>607</ele>
        <time>2023-04-14T16:01:09.099Z</time>
      </trkpt>
      <trkpt lat="45.87668" lon="3.02245">
        <ele>608</ele>
        <time>2023-04-14T16:01:14.956Z</time>
      </trkpt>
      <trkpt lat="45.87676" lon="3.02242">
        <ele>610</ele>
        <time>2023-04-14T16:01:20.814Z</time>
      </trkpt>
      <trkpt lat="45.87715" lon="3.0223">
        <ele>611</ele>
        <time>2023-04-14T16:01:26.679Z</time>
      </trkpt>
      <trkpt lat="45.87744" lon="3.02226">
        <ele>613</ele>
        <time>2023-04-14T16:01:32.548Z</time>
      </trkpt>
      <trkpt lat="45.87768" lon="3.02226">
        <ele>615</ele>
        <time>2023-04-14T16:01:38.421Z</time>
      </trkpt>
      <trkpt lat="45.87779" lon="3.02223">
        <ele>616</ele>
        <time>2023-04-14T16:01:44.296Z</time>
      </trkpt>
      <trkpt lat="45.87791" lon="3.02216">
        <ele>618</ele>
        <time>2023-04-14T16:01:50.173Z</time>
      </trkpt>
      <trkpt lat="45.87813" lon="3.02198">
        <ele>619</ele>
        <time>2023-04-14T16:01:56.054Z</time>
      </trkpt>
      <trkpt lat="45.87861" lon="3.02153">
        <ele>621</ele>
        <time>2023-04-14T16:02:01.944Z</time>
      </trkpt>
      <trkpt lat="45.87881" lon="3.02124">
        <ele>623</ele>
        <time>2023-04-14T16:02:07.839Z</time>
      </trkpt>
      <trkpt lat="45.8793" lon="3.02032">
        <ele>624</ele>
        <time>2023-04-14T16:02:13.747Z</time>
      </trkpt>
      <trkpt lat="45.87972" lon="3.01966">
        <ele>626</ele>
        <time>2023-04-14T16:02:19.665Z</time>
      </trkpt>
      <trkpt lat="45.87999" lon="3.01933">
        <ele>628</ele>
        <time>2023-04-14T16:02:25.588Z</time>
      </trkpt>
      <trkpt lat="45.88029" lon="3.01915">
        <ele>630</ele>
        <time>2023-04-14T16:02:31.517Z</time>
      </trkpt>
      <trkpt lat="45.88068" lon="3.01898">
        <ele>632</ele>
        <time>2023-04-14T16:02:37.452Z</time>
      </trkpt>
      <trkpt lat="45.88079" lon="3.01895">
        <ele>633</ele>
        <time>2023-04-14T16:02:43.389Z</time>
      </trkpt>
      <trkpt lat="45.88088" lon="3.01896">
        <ele>635</ele>
        <time>2023-04-14T16:02:49.327Z</time>
      </trkpt>
      <trkpt lat="45.88108" lon="3.01901">
        <ele>637</ele>
        <time>2023-04-14T16:02:55.269Z</time>
      </trkpt>
      <trkpt lat="45.88121" lon="3.01901">
        <ele>639</ele>
        <time>2023-04-14T16:03:01.213Z</time>
      </trkpt>
      <trkpt lat="45.88129" lon="3.01891">
        <ele>640</ele>
        <time>2023-04-14T16:03:07.158Z</time>
      </trkpt>
      <trkpt lat="45.88133" lon="3.0187">
        <ele>642</ele>
        <time>2023-04-14T16:03:13.106Z</time>
      </trkpt>
      <trkpt lat="45.88133" lon="3.01826">
        <ele>643</ele>
        <time>2023-04-14T16:03:19.059Z</time>
      </trkpt>
      <trkpt lat="45.88135" lon="3.01806">
        <ele>645</ele>
        <time>2023-04-14T16:03:25.014Z</time>
      </trkpt>
      <trkpt lat="45.88141" lon="3.01788">
        <ele>646</ele>
        <time>2023-04-14T16:03:30.971Z</time>
      </trkpt>
      <trkpt lat="45.88148" lon="3.01774">
        <ele>648</ele>
        <time>2023-04-14T16:03:36.930Z</time>
      </trkpt>
      <trkpt lat="45.88162" lon="3.01759">
        <ele>650</ele>
        <time>2023-04-14T16:03:42.892Z</time>
      </trkpt>
      <trkpt lat="45.88169" lon="3.01752">
        <ele>651</ele>
        <time>2023-04-14T16:03:48.855Z</time>
      </trkpt>
      <trkpt lat="45.88169" lon="3.01752">
        <ele>653</ele>
        <time>2023-04-14T16:03:54.818Z</time>
      </trkpt>
      <trkpt lat="45.88171" lon="3.0175">
        <ele>654</ele>
        <time>2023-04-14T16:04:00.782Z</time>
      </trkpt>
      <trkpt lat="45.88171" lon="3.0175">
        <ele>656</ele>
        <time>2023-04-14T16:04:06.746Z</time>
      </trkpt>
      <trkpt lat="45.88172" lon="3.01749">
        <ele>658</ele>
        <time>2023-04-14T16:04:12.710Z</time>
      </trkpt>
      <trkpt lat="45.88172" lon="3.01749">
        <ele>660</ele>
        <time>2023-04-14T16:04:18.674Z</time>
      </trkpt>
      <trkpt lat="45.88173" lon="3.01749">
        <ele>662</ele>
        <time>2023-04-14T16:04:24.638Z</time>
      </trkpt>
      <trkpt lat="45.88173" lon="3.01748">
        <ele>663</ele>
        <time>2023-04-14T16:04:30.602Z</time>
      </trkpt>
      <trkpt lat="45.88173" lon="3.01748">
        <ele>665</ele>
        <time>2023-04-14T16:04:36.566Z</time>
      </trkpt>
      <trkpt lat="45.88196" lon="3.01729">
        <ele>668</ele>
        <time>2023-04-14T16:04:42.534Z</time>
      </trkpt>
      <trkpt lat="45.88219" lon="3.01719">
        <ele>670</ele>
        <time>2023-04-14T16:04:48.506Z</time>
      </trkpt>
      <trkpt lat="45.88251" lon="3.01714">
        <ele>673</ele>
        <time>2023-04-14T16:04:54.483Z</time>
      </trkpt>
      <trkpt lat="45.88272" lon="3.01714">
        <ele>675</ele>
        <time>2023-04-14T16:05:00.464Z</time>
      </trkpt>
      <trkpt lat="45.88312" lon="3.01719">
        <ele>677</ele>
        <time>2023-04-14T16:05:06.451Z</time>
      </trkpt>
      <trkpt lat="45.88407" lon="3.0173">
        <ele>680</ele>
        <time>2023-04-14T16:05:12.453Z</time>
      </trkpt>
      <trkpt lat="45.88488" lon="3.01751">
        <ele>683</ele>
        <time>2023-04-14T16:05:18.469Z</time>
      </trkpt>
      <trkpt lat="45.88498" lon="3.01752">
        <ele>685</ele>
        <time>2023-04-14T16:05:24.486Z</time>
      </trkpt>
      <trkpt lat="45.88502" lon="3.0175">
        <ele>687</ele>
        <time>2023-04-14T16:05:30.504Z</time>
      </trkpt>
      <trkpt lat="45.8851" lon="3.01742">
        <ele>689</ele>
        <time>2023-04-14T16:05:36.523Z</time>
      </trkpt>
      <trkpt lat="45.88511" lon="3.0173">
        <ele>692</ele>
        <time>2023-04-14T16:05:42.544Z</time>
      </trkpt>
      <trkpt lat="45.88488" lon="3.01649">
        <ele>693</ele>
        <time>2023-04-14T16:05:48.575Z</time>
      </trkpt>
      <trkpt lat="45.88476" lon="3.01595">
        <ele>695</ele>
        <time>2023-04-14T16:05:54.612Z</time>
      </trkpt>
      <trkpt lat="45.88475" lon="3.01576">
        <ele>697</ele>
        <time>2023-04-14T16:06:00.651Z</time>
      </trkpt>
      <trkpt lat="45.88476" lon="3.01562">
        <ele>699</ele>
        <time>2023-04-14T16:06:06.692Z</time>
      </trkpt>
      <trkpt lat="45.8848" lon="3.0155">
        <ele>701</ele>
        <time>2023-04-14T16:06:12.734Z</time>
      </trkpt>
      <trkpt lat="45.88485" lon="3.0154">
        <ele>703</ele>
        <time>2023-04-14T16:06:18.777Z</time>
      </trkpt>
      <trkpt lat="45.88495" lon="3.01535">
        <ele>705</ele>
        <time>2023-04-14T16:06:24.822Z</time>
      </trkpt>
      <trkpt lat="45.88502" lon="3.01534">
        <ele>707</ele>
        <time>2023-04-14T16:06:30.868Z</time>
      </trkpt>
      <trkpt lat="45.88509" lon="3.01536">
        <ele>709</ele>
        <time>2023-04-14T16:06:36.915Z</time>
      </trkpt>
      <trkpt lat="45.8852" lon="3.01545">
        <ele>711</ele>
        <time>2023-04-14T16:06:42.964Z</time>
      </trkpt>
      <trkpt lat="45.88525" lon="3.01555">
        <ele>713</ele>
        <time>2023-04-14T16:06:49.015Z</time>
      </trkpt>
      <trkpt lat="45.88539" lon="3.01621">
        <ele>714</ele>
        <time>2023-04-14T16:06:55.074Z</time>
      </trkpt>
      <trkpt lat="45.88544" lon="3.01637">
        <ele>716</ele>
        <time>2023-04-14T16:07:01.134Z</time>
      </trkpt>
      <trkpt lat="45.88552" lon="3.01651">
        <ele>718</ele>
        <time>2023-04-14T16:07:07.196Z</time>
      </trkpt>
      <trkpt lat="45.88565" lon="3.01663">
        <ele>719</ele>
        <time>2023-04-14T16:07:13.261Z</time>
      </trkpt>
      <trkpt lat="45.88581" lon="3.01674">
        <ele>721</ele>
        <time>2023-04-14T16:07:19.329Z</time>
      </trkpt>
      <trkpt lat="45.88597" lon="3.0168">
        <ele>723</ele>
        <time>2023-04-14T16:07:25.399Z</time>
      </trkpt>
      <trkpt lat="45.88606" lon="3.0168">
        <ele>724</ele>
        <time>2023-04-14T16:07:31.471Z</time>
      </trkpt>
      <trkpt lat="45.8862" lon="3.01675">
        <ele>726</ele>
        <time>2023-04-14T16:07:37.545Z</time>
      </trkpt>
      <trkpt lat="45.8863" lon="3.01669">
        <ele>727</ele>
        <time>2023-04-14T16:07:43.621Z</time>
      </trkpt>
      <trkpt lat="45.88648" lon="3.0165">
        <ele>728</ele>
        <time>2023-04-14T16:07:49.701Z</time>
      </trkpt>
      <trkpt lat="45.88656" lon="3.01647">
        <ele>729</ele>
        <time>2023-04-14T16:07:55.782Z</time>
      </trkpt>
      <trkpt lat="45.88678" lon="3.01647">
        <ele>731</ele>
        <time>2023-04-14T16:08:01.866Z</time>
      </trkpt>
      <trkpt lat="45.8869" lon="3.01642">
        <ele>732</ele>
        <time>2023-04-14T16:08:07.952Z</time>
      </trkpt>
      <trkpt lat="45.88709" lon="3.01633">
        <ele>733</ele>
        <time>2023-04-14T16:08:14.042Z</time>
      </trkpt>
      <trkpt lat="45.88721" lon="3.01631">
        <ele>734</ele>
        <time>2023-04-14T16:08:20.134Z</time>
      </trkpt>
      <trkpt lat="45.88749" lon="3.01633">
        <ele>735</ele>
        <time>2023-04-14T16:08:26.230Z</time>
      </trkpt>
      <trkpt lat="45.88789" lon="3.01638">
        <ele>736</ele>
        <time>2023-04-14T16:08:32.332Z</time>
      </trkpt>
      <trkpt lat="45.88807" lon="3.01638">
        <ele>737</ele>
        <time>2023-04-14T16:08:38.437Z</time>
      </trkpt>
      <trkpt lat="45.88871" lon="3.0162">
        <ele>737</ele>
        <time>2023-04-14T16:08:44.553Z</time>
      </trkpt>
      <trkpt lat="45.88929" lon="3.01609">
        <ele>738</ele>
        <time>2023-04-14T16:08:50.678Z</time>
      </trkpt>
      <trkpt lat="45.88963" lon="3.01595">
        <ele>739</ele>
        <time>2023-04-14T16:08:56.809Z</time>
      </trkpt>
      <trkpt lat="45.88978" lon="3.01586">
        <ele>740</ele>
        <time>2023-04-14T16:09:02.942Z</time>
      </trkpt>
      <trkpt lat="45.88985" lon="3.01572">
        <ele>740</ele>
        <time>2023-04-14T16:09:09.077Z</time>
      </trkpt>
      <trkpt lat="45.89005" lon="3.015">
        <ele>740</ele>
        <time>2023-04-14T16:09:15.221Z</time>
      </trkpt>
      <trkpt lat="45.89012" lon="3.01439">
        <ele>741</ele>
        <time>2023-04-14T16:09:21.372Z</time>
      </trkpt>
      <trkpt lat="45.89016" lon="3.01424">
        <ele>741</ele>
        <time>2023-04-14T16:09:27.525Z</time>
      </trkpt>
      <trkpt lat="45.89021" lon="3.01415">
        <ele>741</ele>
        <time>2023-04-14T16:09:33.679Z</time>
      </trkpt>
      <trkpt lat="45.89033" lon="3.01403">
        <ele>741</ele>
        <time>2023-04-14T16:09:39.835Z</time>
      </trkpt>
      <trkpt lat="45.89044" lon="3.01396">
        <ele>741</ele>
        <time>2023-04-14T16:09:45.993Z</time>
      </trkpt>
      <trkpt lat="45.8906" lon="3.01391">
        <ele>741</ele>
        <time>2023-04-14T16:09:52.154Z</time>
      </trkpt>
      <trkpt lat="45.89072" lon="3.01382">
        <ele>741</ele>
        <time>2023-04-14T16:09:58.317Z</time>
      </trkpt>
      <trkpt lat="45.8908" lon="3.01367">
        <ele>740</ele>
        <time>2023-04-14T16:10:04.482Z</time>
      </trkpt>
      <trkpt lat="45.89085" lon="3.01343">
        <ele>740</ele>
        <time>2023-04-14T16:10:10.650Z</time>
      </trkpt>
      <trkpt lat="45.89086" lon="3.01319">
        <ele>739</ele>
        <time>2023-04-14T16:10:16.821Z</time>
      </trkpt>
      <trkpt lat="45.89082" lon="3.01275">
        <ele>739</ele>
        <time>2023-04-14T16:10:22.997Z</time>
      </trkpt>
      <trkpt lat="45.89078" lon="3.01246">
        <ele>738</ele>
        <time>2023-04-14T16:10:29.176Z</time>
      </trkpt>
      <trkpt lat="45.8908" lon="3.01223">
        <ele>738</ele>
        <time>2023-04-14T16:10:35.357Z</time>
      </trkpt>
      <trkpt lat="45.89089" lon="3.01186">
        <ele>737</ele>
        <time>2023-04-14T16:10:41.543Z</time>
      </trkpt>
      <trkpt lat="45.89089" lon="3.01152">
        <ele>737</ele>
        <time>2023-04-14T16:10:47.733Z</time>
      </trkpt>
      <trkpt lat="45.89082" lon="3.01088">
        <ele>736</ele>
        <time>2023-04-14T16:10:53.930Z</time>
      </trkpt>
      <trkpt lat="45.89073" lon="3.01048">
        <ele>736</ele>
        <time>2023-04-14T16:11:00.132Z</time>
      </trkpt>
      <trkpt lat="45.89055" lon="3.01005">
        <ele>735</ele>
        <time>2023-04-14T16:11:06.339Z</time>
      </trkpt>
      <trkpt lat="45.89028" lon="3.00953">
        <ele>735</ele>
        <time>2023-04-14T16:11:12.553Z</time>
      </trkpt>
      <trkpt lat="45.89" lon="3.00866">
        <ele>734</ele>
        <time>2023-04-14T16:11:18.778Z</time>
      </trkpt>
      <trkpt lat="45.88959" lon="3.00771">
        <ele>734</ele>
        <time>2023-04-14T16:11:25.016Z</time>
      </trkpt>
      <trkpt lat="45.88955" lon="3.00761">
        <ele>734</ele>
        <time>2023-04-14T16:11:31.255Z</time>
      </trkpt>
      <trkpt lat="45.88955" lon="3.00744">
        <ele>734</ele>
        <time>2023-04-14T16:11:37.496Z</time>
      </trkpt>
      <trkpt lat="45.88962" lon="3.00726">
        <ele>734</ele>
        <time>2023-04-14T16:11:43.739Z</time>
      </trkpt>
      <trkpt lat="45.8897" lon="3.00712">
        <ele>734</ele>
        <time>2023-04-14T16:11:49.984Z</time>
      </trkpt>
      <trkpt lat="45.88975" lon="3.00701">
        <ele>734</ele>
        <time>2023-04-14T16:11:56.231Z</time>
      </trkpt>
      <trkpt lat="45.88978" lon="3.00684">
        <ele>735</ele>
        <time>2023-04-14T16:12:02.480Z</time>
      </trkpt>
      <trkpt lat="45.88976" lon="3.00665">
        <ele>735</ele>
        <time>2023-04-14T16:12:08.731Z</time>
      </trkpt>
      <trkpt lat="45.88966" lon="3.00631">
        <ele>736</ele>
        <time>2023-04-14T16:12:14.986Z</time>
      </trkpt>
      <trkpt lat="45.88956" lon="3.00614">
        <ele>736</ele>
        <time>2023-04-14T16:12:21.243Z</time>
      </trkpt>
      <trkpt lat="45.88947" lon="3.00612">
        <ele>737</ele>
        <time>2023-04-14T16:12:27.502Z</time>
      </trkpt>
      <trkpt lat="45.88931" lon="3.00617">
        <ele>738</ele>
        <time>2023-04-14T16:12:33.763Z</time>
      </trkpt>
      <trkpt lat="45.8889" lon="3.00635">
        <ele>739</ele>
        <time>2023-04-14T16:12:40.031Z</time>
      </trkpt>
      <trkpt lat="45.8884" lon="3.00664">
        <ele>740</ele>
        <time>2023-04-14T16:12:46.308Z</time>
      </trkpt>
      <trkpt lat="45.88824" lon="3.00666">
        <ele>741</ele>
        <time>2023-04-14T16:12:52.587Z</time>
      </trkpt>
      <trkpt lat="45.88796" lon="3.00659">
        <ele>742</ele>
        <time>2023-04-14T16:12:58.871Z</time>
      </trkpt>
      <trkpt lat="45.88755" lon="3.00649">
        <ele>743</ele>
        <time>2023-04-14T16:13:05.162Z</time>
      </trkpt>
      <trkpt lat="45.88724" lon="3.00636">
        <ele>744</ele>
        <time>2023-04-14T16:13:11.458Z</time>
      </trkpt>
      <trkpt lat="45.88707" lon="3.00628">
        <ele>746</ele>
        <time>2023-04-14T16:13:17.757Z</time>
      </trkpt>
      <trkpt lat="45.88681" lon="3.00619">
        <ele>747</ele>
        <time>2023-04-14T16:13:24.060Z</time>
      </trkpt>
      <trkpt lat="45.88651" lon="3.00609">
        <ele>749</ele>
        <time>2023-04-14T16:13:30.368Z</time>
      </trkpt>
      <trkpt lat="45.88631" lon="3.006">
        <ele>750</ele>
        <time>2023-04-14T16:13:36.679Z</time>
      </trkpt>
      <trkpt lat="45.88611" lon="3.00587">
        <ele>751</ele>
        <time>2023-04-14T16:13:42.994Z</time>
      </trkpt>
      <trkpt lat="45.88594" lon="3.00573">
        <ele>753</ele>
        <time>2023-04-14T16:13:49.312Z</time>
      </trkpt>
      <trkpt lat="45.88581" lon="3.00558">
        <ele>754</ele>
        <time>2023-04-14T16:13:55.633Z</time>
      </trkpt>
      <trkpt lat="45.88565" lon="3.00535">
        <ele>755</ele>
        <time>2023-04-14T16:14:01.957Z</time>
      </trkpt>
      <trkpt lat="45.88556" lon="3.00522">
        <ele>756</ele>
        <time>2023-04-14T16:14:08.283Z</time>
      </trkpt>
      <trkpt lat="45.88545" lon="3.00512">
        <ele>757</ele>
        <time>2023-04-14T16:14:14.611Z</time>
      </trkpt>
      <trkpt lat="45.88507" lon="3.00506">
        <ele>758</ele>
        <time>2023-04-14T16:14:20.945Z</time>
      </trkpt>
      <trkpt lat="45.88493" lon="3.00509">
        <ele>759</ele>
        <time>2023-04-14T16:14:27.282Z</time>
      </trkpt>
      <trkpt lat="45.88476" lon="3.00519">
        <ele>760</ele>
        <time>2023-04-14T16:14:33.622Z</time>
      </trkpt>
      <trkpt lat="45.88467" lon="3.00528">
        <ele>760</ele>
        <time>2023-04-14T16:14:39.963Z</time>
      </trkpt>
      <trkpt lat="45.88459" lon="3.00541">
        <ele>761</ele>
        <time>2023-04-14T16:14:46.306Z</time>
      </trkpt>
      <trkpt lat="45.88453" lon="3.0056">
        <ele>761</ele>
        <time>2023-04-14T16:14:52.652Z</time>
      </trkpt>
      <trkpt lat="45.88438" lon="3.00626">
        <ele>762</ele>
        <time>2023-04-14T16:14:59.005Z</time>
      </trkpt>
      <trkpt lat="45.88434" lon="3.00621">
        <ele>762</ele>
        <time>2023-04-14T16:15:05.359Z</time>
      </trkpt>
      <trkpt lat="45.88419" lon="3.00586">
        <ele>763</ele>
        <time>2023-04-14T16:15:11.718Z</time>
      </trkpt>
      <trkpt lat="45.8841" lon="3.0057">
        <ele>763</ele>
        <time>2023-04-14T16:15:18.079Z</time>
      </trkpt>
      <trkpt lat="45.88401" lon="3.0056">
        <ele>763</ele>
        <time>2023-04-14T16:15:24.442Z</time>
      </trkpt>
      <trkpt lat="45.88394" lon="3.00553">
        <ele>763</ele>
        <time>2023-04-14T16:15:30.806Z</time>
      </trkpt>
      <trkpt lat="45.88372" lon="3.00543">
        <ele>763</ele>
        <time>2023-04-14T16:15:37.174Z</time>
      </trkpt>
      <trkpt lat="45.8835" lon="3.00524">
        <ele>763</ele>
        <time>2023-04-14T16:15:43.546Z</time>
      </trkpt>
      <trkpt lat="45.88327" lon="3.00498">
        <ele>763</ele>
        <time>2023-04-14T16:15:49.923Z</time>
      </trkpt>
      <trkpt lat="45.88327" lon="3.00498">
        <ele>762</ele>
        <time>2023-04-14T16:15:56.300Z</time>
      </trkpt>
      <trkpt lat="45.88325" lon="3.00496">
        <ele>762</ele>
        <time>2023-04-14T16:16:02.677Z</time>
      </trkpt>
      <trkpt lat="45.88325" lon="3.00496">
        <ele>762</ele>
        <time>2023-04-14T16:16:09.054Z</time>
      </trkpt>
      <trkpt lat="45.88324" lon="3.00495">
        <ele>761</ele>
        <time>2023-04-14T16:16:15.432Z</time>
      </trkpt>
      <trkpt lat="45.88323" lon="3.00494">
        <ele>760</ele>
        <time>2023-04-14T16:16:21.810Z</time>
      </trkpt>
      <trkpt lat="45.88323" lon="3.00494">
        <ele>760</ele>
        <time>2023-04-14T16:16:28.188Z</time>
      </trkpt>
      <trkpt lat="45.88323" lon="3.00494">
        <ele>759</ele>
        <time>2023-04-14T16:16:34.566Z</time>
      </trkpt>
      <trkpt lat="45.88282" lon="3.00456">
        <ele>758</ele>
        <time>2023-04-14T16:16:40.951Z</time>
      </trkpt>
      <trkpt lat="45.88226" lon="3.00404">
        <ele>758</ele>
        <time>2023-04-14T16:16:47.347Z</time>
      </trkpt>
      <trkpt lat="45.88195" lon="3.00356">
        <ele>757</ele>
        <time>2023-04-14T16:16:53.750Z</time>
      </trkpt>
      <trkpt lat="45.88171" lon="3.00324">
        <ele>756</ele>
        <time>2023-04-14T16:17:00.159Z</time>
      </trkpt>
      <trkpt lat="45.88128" lon="3.0028">
        <ele>755</ele>
        <time>2023-04-14T16:17:06.576Z</time>
      </trkpt>
      <trkpt lat="45.88098" lon="3.00251">
        <ele>755</ele>
        <time>2023-04-14T16:17:12.999Z</time>
      </trkpt>
      <trkpt lat="45.88082" lon="3.002">
        <ele>754</ele>
        <time>2023-04-14T16:17:19.428Z</time>
      </trkpt>
      <trkpt lat="45.88059" lon="3.0013">
        <ele>753</ele>
        <time>2023-04-14T16:17:25.866Z</time>
      </trkpt>
      <trkpt lat="45.88049" lon="3.00093">
        <ele>752</ele>
        <time>2023-04-14T16:17:32.308Z</time>
      </trkpt>
      <trkpt lat="45.88046" lon="3.0005">
        <ele>751</ele>
        <time>2023-04-14T16:17:38.755Z</time>
      </trkpt>
      <trkpt lat="45.88049" lon="3.00016">
        <ele>751</ele>
        <time>2023-04-14T16:17:45.206Z</time>
      </trkpt>
      <trkpt lat="45.88066" lon="2.99953">
        <ele>750</ele>
        <time>2023-04-14T16:17:51.665Z</time>
      </trkpt>
      <trkpt lat="45.8807" lon="2.99926">
        <ele>750</ele>
        <time>2023-04-14T16:17:58.127Z</time>
      </trkpt>
      <trkpt lat="45.88069" lon="2.99917">
        <ele>749</ele>
        <time>2023-04-14T16:18:04.590Z</time>
      </trkpt>
      <trkpt lat="45.88064" lon="2.99909">
        <ele>749</ele>
        <time>2023-04-14T16:18:11.054Z</time>
      </trkpt>
      <trkpt lat="45.88071" lon="2.99889">
        <ele>749</ele>
        <time>2023-04-14T16:18:17.520Z</time>
      </trkpt>
      <trkpt lat="45.88073" lon="2.99874">
        <ele>749</ele>
        <time>2023-04-14T16:18:23.988Z</time>
      </trkpt>
      <trkpt lat="45.88072" lon="2.99847">
        <ele>749</ele>
        <time>2023-04-14T16:18:30.459Z</time>
      </trkpt>
      <trkpt lat="45.88055" lon="2.99758">
        <ele>749</ele>
        <time>2023-04-14T16:18:36.940Z</time>
      </trkpt>
      <trkpt lat="45.88051" lon="2.99749">
        <ele>749</ele>
        <time>2023-04-14T16:18:43.423Z</time>
      </trkpt>
      <trkpt lat="45.8804" lon="2.9973">
        <ele>750</ele>
        <time>2023-04-14T16:18:49.908Z</time>
      </trkpt>
      <trkpt lat="45.88028" lon="2.99714">
        <ele>750</ele>
        <time>2023-04-14T16:18:56.396Z</time>
      </trkpt>
      <trkpt lat="45.87984" lon="2.99659">
        <ele>751</ele>
        <time>2023-04-14T16:19:02.893Z</time>
      </trkpt>
      <trkpt lat="45.87973" lon="2.9964">
        <ele>752</ele>
        <time>2023-04-14T16:19:09.393Z</time>
      </trkpt>
      <trkpt lat="45.87964" lon="2.99619">
        <ele>752</ele>
        <time>2023-04-14T16:19:15.896Z</time>
      </trkpt>
      <trkpt lat="45.8795" lon="2.99573">
        <ele>753</ele>
        <time>2023-04-14T16:19:22.404Z</time>
      </trkpt>
      <trkpt lat="45.87936" lon="2.9951">
        <ele>754</ele>
        <time>2023-04-14T16:19:28.920Z</time>
      </trkpt>
      <trkpt lat="45.87925" lon="2.99444">
        <ele>755</ele>
        <time>2023-04-14T16:19:35.443Z</time>
      </trkpt>
      <trkpt lat="45.87924" lon="2.99414">
        <ele>756</ele>
        <time>2023-04-14T16:19:41.970Z</time>
      </trkpt>
      <trkpt lat="45.87925" lon="2.99384">
        <ele>757</ele>
        <time>2023-04-14T16:19:48.500Z</time>
      </trkpt>
      <trkpt lat="45.87929" lon="2.99369">
        <ele>758</ele>
        <time>2023-04-14T16:19:55.032Z</time>
      </trkpt>
      <trkpt lat="45.87958" lon="2.99262">
        <ele>759</ele>
        <time>2023-04-14T16:20:01.577Z</time>
      </trkpt>
      <trkpt lat="45.87971" lon="2.992">
        <ele>760</ele>
        <time>2023-04-14T16:20:08.129Z</time>
      </trkpt>
      <trkpt lat="45.87984" lon="2.99126">
        <ele>761</ele>
        <time>2023-04-14T16:20:14.689Z</time>
      </trkpt>
      <trkpt lat="45.87994" lon="2.99081">
        <ele>762</ele>
        <time>2023-04-14T16:20:21.255Z</time>
      </trkpt>
      <trkpt lat="45.88008" lon="2.99034">
        <ele>763</ele>
        <time>2023-04-14T16:20:27.826Z</time>
      </trkpt>
      <trkpt lat="45.88039" lon="2.98958">
        <ele>764</ele>
        <time>2023-04-14T16:20:34.407Z</time>
      </trkpt>
      <trkpt lat="45.88084" lon="2.98857">
        <ele>765</ele>
        <time>2023-04-14T16:20:41.002Z</time>
      </trkpt>
      <trkpt lat="45.88097" lon="2.98821">
        <ele>766</ele>
        <time>2023-04-14T16:20:47.601Z</time>
      </trkpt>
      <trkpt lat="45.88123" lon="2.98743">
        <ele>767</ele>
        <time>2023-04-14T16:20:54.210Z</time>
      </trkpt>
      <trkpt lat="45.8814" lon="2.98683">
        <ele>768</ele>
        <time>2023-04-14T16:21:00.826Z</time>
      </trkpt>
      <trkpt lat="45.88147" lon="2.98661">
        <ele>768</ele>
        <time>2023-04-14T16:21:07.445Z</time>
      </trkpt>
      <trkpt lat="45.88155" lon="2.98634">
        <ele>769</ele>
        <time>2023-04-14T16:21:14.067Z</time>
      </trkpt>
      <trkpt lat="45.88165" lon="2.98612">
        <ele>770</ele>
        <time>2023-04-14T16:21:20.692Z</time>
      </trkpt>
      <trkpt lat="45.88204" lon="2.98548">
        <ele>770</ele>
        <time>2023-04-14T16:21:27.327Z</time>
      </trkpt>
      <trkpt lat="45.88204" lon="2.98548">
        <ele>770</ele>
        <time>2023-04-14T16:21:33.962Z</time>
      </trkpt>
      <trkpt lat="45.88204" lon="2.98548">
        <ele>772</ele>
        <time>2023-04-14T16:21:40.597Z</time>
      </trkpt>
      <trkpt lat="45.88212" lon="2.9854">
        <ele>772</ele>
        <time>2023-04-14T16:21:47.233Z</time>
      </trkpt>
      <trkpt lat="45.88228" lon="2.98526">
        <ele>773</ele>
        <time>2023-04-14T16:21:53.872Z</time>
      </trkpt>
      <trkpt lat="45.88242" lon="2.98518">
        <ele>774</ele>
        <time>2023-04-14T16:22:00.514Z</time>
      </trkpt>
      <trkpt lat="45.88249" lon="2.98519">
        <ele>774</ele>
        <time>2023-04-14T16:22:07.157Z</time>
      </trkpt>
      <trkpt lat="45.88254" lon="2.98514">
        <ele>775</ele>
        <time>2023-04-14T16:22:13.801Z</time>
      </trkpt>
      <trkpt lat="45.88257" lon="2.98505">
        <ele>776</ele>
        <time>2023-04-14T16:22:20.446Z</time>
      </trkpt>
      <trkpt lat="45.88256" lon="2.98499">
        <ele>776</ele>
        <time>2023-04-14T16:22:27.091Z</time>
      </trkpt>
      <trkpt lat="45.88254" lon="2.98484">
        <ele>777</ele>
        <time>2023-04-14T16:22:33.738Z</time>
      </trkpt>
      <trkpt lat="45.88254" lon="2.98473">
        <ele>778</ele>
        <time>2023-04-14T16:22:40.386Z</time>
      </trkpt>
      <trkpt lat="45.88257" lon="2.98463">
        <ele>778</ele>
        <time>2023-04-14T16:22:47.036Z</time>
      </trkpt>
      <trkpt lat="45.88266" lon="2.98446">
        <ele>779</ele>
        <time>2023-04-14T16:22:53.688Z</time>
      </trkpt>
      <trkpt lat="45.88313" lon="2.9838">
        <ele>780</ele>
        <time>2023-04-14T16:23:00.351Z</time>
      </trkpt>
      <trkpt lat="45.88376" lon="2.98297">
        <ele>781</ele>
        <time>2023-04-14T16:23:07.027Z</time>
      </trkpt>
      <trkpt lat="45.884" lon="2.98265">
        <ele>782</ele>
        <time>2023-04-14T16:23:13.708Z</time>
      </trkpt>
      <trkpt lat="45.88411" lon="2.98255">
        <ele>783</ele>
        <time>2023-04-14T16:23:20.392Z</time>
      </trkpt>
      <trkpt lat="45.88425" lon="2.98242">
        <ele>784</ele>
        <time>2023-04-14T16:23:27.078Z</time>
      </trkpt>
      <trkpt lat="45.88445" lon="2.98217">
        <ele>785</ele>
        <time>2023-04-14T16:23:33.768Z</time>
      </trkpt>
      <trkpt lat="45.88453" lon="2.98201">
        <ele>786</ele>
        <time>2023-04-14T16:23:40.461Z</time>
      </trkpt>
      <trkpt lat="45.88471" lon="2.98153">
        <ele>787</ele>
        <time>2023-04-14T16:23:47.160Z</time>
      </trkpt>
      <trkpt lat="45.88476" lon="2.98132">
        <ele>787</ele>
        <time>2023-04-14T16:23:53.861Z</time>
      </trkpt>
      <trkpt lat="45.88484" lon="2.98067">
        <ele>788</ele>
        <time>2023-04-14T16:24:00.570Z</time>
      </trkpt>
      <trkpt lat="45.88491" lon="2.97995">
        <ele>789</ele>
        <time>2023-04-14T16:24:07.287Z</time>
      </trkpt>
      <trkpt lat="45.88497" lon="2.97965">
        <ele>790</ele>
        <time>2023-04-14T16:24:14.007Z</time>
      </trkpt>
      <trkpt lat="45.88527" lon="2.9786">
        <ele>791</ele>
        <time>2023-04-14T16:24:20.740Z</time>
      </trkpt>
      <trkpt lat="45.88533" lon="2.97826">
        <ele>792</ele>
        <time>2023-04-14T16:24:27.477Z</time>
      </trkpt>
      <trkpt lat="45.88534" lon="2.97797">
        <ele>792</ele>
        <time>2023-04-14T16:24:34.217Z</time>
      </trkpt>
      <trkpt lat="45.88527" lon="2.97683">
        <ele>793</ele>
        <time>2023-04-14T16:24:40.970Z</time>
      </trkpt>
      <trkpt lat="45.8852" lon="2.9757">
        <ele>793</ele>
        <time>2023-04-14T16:24:47.736Z</time>
      </trkpt>
      <trkpt lat="45.88523" lon="2.97511">
        <ele>794</ele>
        <time>2023-04-14T16:24:54.508Z</time>
      </trkpt>
      <trkpt lat="45.88521" lon="2.97467">
        <ele>794</ele>
        <time>2023-04-14T16:25:01.285Z</time>
      </trkpt>
      <trkpt lat="45.88516" lon="2.97429">
        <ele>795</ele>
        <time>2023-04-14T16:25:08.066Z</time>
      </trkpt>
      <trkpt lat="45.88516" lon="2.97403">
        <ele>795</ele>
        <time>2023-04-14T16:25:14.850Z</time>
      </trkpt>
      <trkpt lat="45.88522" lon="2.97357">
        <ele>796</ele>
        <time>2023-04-14T16:25:21.640Z</time>
      </trkpt>
      <trkpt lat="45.88539" lon="2.97316">
        <ele>797</ele>
        <time>2023-04-14T16:25:28.435Z</time>
      </trkpt>
      <trkpt lat="45.88556" lon="2.97285">
        <ele>797</ele>
        <time>2023-04-14T16:25:35.234Z</time>
      </trkpt>
      <trkpt lat="45.8857" lon="2.97241">
        <ele>798</ele>
        <time>2023-04-14T16:25:42.039Z</time>
      </trkpt>
      <trkpt lat="45.88581" lon="2.97181">
        <ele>798</ele>
        <time>2023-04-14T16:25:48.851Z</time>
      </trkpt>
      <trkpt lat="45.88583" lon="2.97154">
        <ele>799</ele>
        <time>2023-04-14T16:25:55.666Z</time>
      </trkpt>
      <trkpt lat="45.88587" lon="2.97092">
        <ele>800</ele>
        <time>2023-04-14T16:26:02.488Z</time>
      </trkpt>
      <trkpt lat="45.88599" lon="2.97012">
        <ele>801</ele>
        <time>2023-04-14T16:26:09.319Z</time>
      </trkpt>
      <trkpt lat="45.88606" lon="2.96961">
        <ele>802</ele>
        <time>2023-04-14T16:26:16.156Z</time>
      </trkpt>
      <trkpt lat="45.88615" lon="2.96921">
        <ele>803</ele>
        <time>2023-04-14T16:26:22.997Z</time>
      </trkpt>
      <trkpt lat="45.88645" lon="2.9683">
        <ele>804</ele>
        <time>2023-04-14T16:26:29.850Z</time>
      </trkpt>
      <trkpt lat="45.88652" lon="2.96792">
        <ele>805</ele>
        <time>2023-04-14T16:26:36.707Z</time>
      </trkpt>
      <trkpt lat="45.88663" lon="2.96677">
        <ele>807</ele>
        <time>2023-04-14T16:26:43.577Z</time>
      </trkpt>
      <trkpt lat="45.8867" lon="2.96649">
        <ele>808</ele>
        <time>2023-04-14T16:26:50.450Z</time>
      </trkpt>
      <trkpt lat="45.88688" lon="2.96603">
        <ele>809</ele>
        <time>2023-04-14T16:26:57.329Z</time>
      </trkpt>
      <trkpt lat="45.88698" lon="2.9656">
        <ele>810</ele>
        <time>2023-04-14T16:27:04.213Z</time>
      </trkpt>
      <trkpt lat="45.887" lon="2.9653">
        <ele>810</ele>
        <time>2023-04-14T16:27:11.101Z</time>
      </trkpt>
      <trkpt lat="45.88696" lon="2.96498">
        <ele>811</ele>
        <time>2023-04-14T16:27:17.992Z</time>
      </trkpt>
      <trkpt lat="45.88689" lon="2.96481">
        <ele>812</ele>
        <time>2023-04-14T16:27:24.885Z</time>
      </trkpt>
      <trkpt lat="45.88663" lon="2.96436">
        <ele>813</ele>
        <time>2023-04-14T16:27:31.785Z</time>
      </trkpt>
      <trkpt lat="45.88637" lon="2.96384">
        <ele>814</ele>
        <time>2023-04-14T16:27:38.692Z</time>
      </trkpt>
      <trkpt lat="45.88619" lon="2.9633">
        <ele>814</ele>
        <time>2023-04-14T16:27:45.606Z</time>
      </trkpt>
      <trkpt lat="45.88606" lon="2.96286">
        <ele>815</ele>
        <time>2023-04-14T16:27:52.525Z</time>
      </trkpt>
      <trkpt lat="45.8858" lon="2.9622">
        <ele>815</ele>
        <time>2023-04-14T16:27:59.453Z</time>
      </trkpt>
      <trkpt lat="45.88574" lon="2.96184">
        <ele>816</ele>
        <time>2023-04-14T16:28:06.385Z</time>
      </trkpt>
      <trkpt lat="45.88573" lon="2.96153">
        <ele>816</ele>
        <time>2023-04-14T16:28:13.320Z</time>
      </trkpt>
      <trkpt lat="45.88576" lon="2.96108">
        <ele>816</ele>
        <time>2023-04-14T16:28:20.260Z</time>
      </trkpt>
      <trkpt lat="45.88582" lon="2.96076">
        <ele>817</ele>
        <time>2023-04-14T16:28:27.204Z</time>
      </trkpt>
      <trkpt lat="45.8863" lon="2.95946">
        <ele>817</ele>
        <time>2023-04-14T16:28:34.164Z</time>
      </trkpt>
      <trkpt lat="45.88723" lon="2.95781">
        <ele>817</ele>
        <time>2023-04-14T16:28:41.148Z</time>
      </trkpt>
      <trkpt lat="45.88735" lon="2.95767">
        <ele>817</ele>
        <time>2023-04-14T16:28:48.135Z</time>
      </trkpt>
      <trkpt lat="45.88746" lon="2.95756">
        <ele>817</ele>
        <time>2023-04-14T16:28:55.124Z</time>
      </trkpt>
      <trkpt lat="45.88768" lon="2.95728">
        <ele>817</ele>
        <time>2023-04-14T16:29:02.117Z</time>
      </trkpt>
      <trkpt lat="45.88784" lon="2.95695">
        <ele>817</ele>
        <time>2023-04-14T16:29:09.115Z</time>
      </trkpt>
      <trkpt lat="45.88788" lon="2.95678">
        <ele>817</ele>
        <time>2023-04-14T16:29:16.115Z</time>
      </trkpt>
      <trkpt lat="45.88787" lon="2.95642">
        <ele>817</ele>
        <time>2023-04-14T16:29:23.119Z</time>
      </trkpt>
      <trkpt lat="45.88788" lon="2.95627">
        <ele>817</ele>
        <time>2023-04-14T16:29:30.125Z</time>
      </trkpt>
      <trkpt lat="45.88791" lon="2.95612">
        <ele>817</ele>
        <time>2023-04-14T16:29:37.132Z</time>
      </trkpt>
      <trkpt lat="45.88819" lon="2.95542">
        <ele>817</ele>
        <time>2023-04-14T16:29:44.148Z</time>
      </trkpt>
      <trkpt lat="45.88829" lon="2.95495">
        <ele>817</ele>
        <time>2023-04-14T16:29:51.170Z</time>
      </trkpt>
      <trkpt lat="45.88853" lon="2.95314">
        <ele>817</ele>
        <time>2023-04-14T16:29:58.212Z</time>
      </trkpt>
      <trkpt lat="45.88856" lon="2.9523">
        <ele>818</ele>
        <time>2023-04-14T16:30:05.264Z</time>
      </trkpt>
      <trkpt lat="45.88859" lon="2.95192">
        <ele>818</ele>
        <time>2023-04-14T16:30:12.320Z</time>
      </trkpt>
      <trkpt lat="45.88869" lon="2.95152">
        <ele>818</ele>
        <time>2023-04-14T16:30:19.381Z</time>
      </trkpt>
      <trkpt lat="45.88877" lon="2.95132">
        <ele>818</ele>
        <time>2023-04-14T16:30:26.444Z</time>
      </trkpt>
      <trkpt lat="45.88908" lon="2.95076">
        <ele>819</ele>
        <time>2023-04-14T16:30:33.515Z</time>
      </trkpt>
      <trkpt lat="45.88934" lon="2.9503">
        <ele>819</ele>
        <time>2023-04-14T16:30:40.593Z</time>
      </trkpt>
      <trkpt lat="45.88959" lon="2.94981">
        <ele>819</ele>
        <time>2023-04-14T16:30:47.678Z</time>
      </trkpt>
      <trkpt lat="45.89004" lon="2.94862">
        <ele>820</ele>
        <time>2023-04-14T16:30:54.778Z</time>
      </trkpt>
      <trkpt lat="45.89028" lon="2.94798">
        <ele>820</ele>
        <time>2023-04-14T16:31:01.886Z</time>
      </trkpt>
      <trkpt lat="45.8905" lon="2.94749">
        <ele>821</ele>
        <time>2023-04-14T16:31:09.001Z</time>
      </trkpt>
      <trkpt lat="45.89072" lon="2.94714">
        <ele>821</ele>
        <time>2023-04-14T16:31:16.121Z</time>
      </trkpt>
      <trkpt lat="45.89106" lon="2.94668">
        <ele>822</ele>
        <time>2023-04-14T16:31:23.248Z</time>
      </trkpt>
      <trkpt lat="45.89115" lon="2.9465">
        <ele>823</ele>
        <time>2023-04-14T16:31:30.378Z</time>
      </trkpt>
      <trkpt lat="45.89121" lon="2.94632">
        <ele>824</ele>
        <time>2023-04-14T16:31:37.510Z</time>
      </trkpt>
      <trkpt lat="45.89125" lon="2.94613">
        <ele>825</ele>
        <time>2023-04-14T16:31:44.644Z</time>
      </trkpt>
      <trkpt lat="45.89126" lon="2.94592">
        <ele>826</ele>
        <time>2023-04-14T16:31:51.781Z</time>
      </trkpt>
      <trkpt lat="45.89119" lon="2.94487">
        <ele>827</ele>
        <time>2023-04-14T16:31:58.929Z</time>
      </trkpt>
      <trkpt lat="45.8912" lon="2.94455">
        <ele>829</ele>
        <time>2023-04-14T16:32:06.081Z</time>
      </trkpt>
      <trkpt lat="45.89123" lon="2.94434">
        <ele>830</ele>
        <time>2023-04-14T16:32:13.235Z</time>
      </trkpt>
      <trkpt lat="45.89142" lon="2.94376">
        <ele>831</ele>
        <time>2023-04-14T16:32:20.397Z</time>
      </trkpt>
      <trkpt lat="45.89152" lon="2.94348">
        <ele>833</ele>
        <time>2023-04-14T16:32:27.562Z</time>
      </trkpt>
      <trkpt lat="45.89156" lon="2.94327">
        <ele>835</ele>
        <time>2023-04-14T16:32:34.729Z</time>
      </trkpt>
      <trkpt lat="45.89158" lon="2.94311">
        <ele>836</ele>
        <time>2023-04-14T16:32:41.898Z</time>
      </trkpt>
      <trkpt lat="45.89158" lon="2.94287">
        <ele>838</ele>
        <time>2023-04-14T16:32:49.070Z</time>
      </trkpt>
      <trkpt lat="45.89144" lon="2.94218">
        <ele>840</ele>
        <time>2023-04-14T16:32:56.250Z</time>
      </trkpt>
      <trkpt lat="45.89141" lon="2.94196">
        <ele>842</ele>
        <time>2023-04-14T16:33:03.433Z</time>
      </trkpt>
      <trkpt lat="45.8914" lon="2.94164">
        <ele>844</ele>
        <time>2023-04-14T16:33:10.619Z</time>
      </trkpt>
      <trkpt lat="45.89142" lon="2.93957">
        <ele>846</ele>
        <time>2023-04-14T16:33:17.828Z</time>
      </trkpt>
      <trkpt lat="45.89149" lon="2.93906">
        <ele>849</ele>
        <time>2023-04-14T16:33:25.043Z</time>
      </trkpt>
      <trkpt lat="45.89157" lon="2.9388">
        <ele>851</ele>
        <time>2023-04-14T16:33:32.261Z</time>
      </trkpt>
      <trkpt lat="45.89165" lon="2.93862">
        <ele>853</ele>
        <time>2023-04-14T16:33:39.482Z</time>
      </trkpt>
      <trkpt lat="45.89179" lon="2.9384">
        <ele>855</ele>
        <time>2023-04-14T16:33:46.706Z</time>
      </trkpt>
      <trkpt lat="45.89196" lon="2.93819">
        <ele>857</ele>
        <time>2023-04-14T16:33:53.934Z</time>
      </trkpt>
      <trkpt lat="45.89262" lon="2.93736">
        <ele>859</ele>
        <time>2023-04-14T16:34:01.176Z</time>
      </trkpt>
      <trkpt lat="45.89305" lon="2.93682">
        <ele>861</ele>
        <time>2023-04-14T16:34:08.427Z</time>
      </trkpt>
      <trkpt lat="45.89344" lon="2.93633">
        <ele>862</ele>
        <time>2023-04-14T16:34:15.686Z</time>
      </trkpt>
      <trkpt lat="45.89366" lon="2.9361">
        <ele>864</ele>
        <time>2023-04-14T16:34:22.949Z</time>
      </trkpt>
      <trkpt lat="45.89409" lon="2.93577">
        <ele>866</ele>
        <time>2023-04-14T16:34:30.220Z</time>
      </trkpt>
      <trkpt lat="45.89472" lon="2.93536">
        <ele>867</ele>
        <time>2023-04-14T16:34:37.502Z</time>
      </trkpt>
      <trkpt lat="45.89492" lon="2.93522">
        <ele>868</ele>
        <time>2023-04-14T16:34:44.788Z</time>
      </trkpt>
      <trkpt lat="45.89505" lon="2.93513">
        <ele>870</ele>
        <time>2023-04-14T16:34:52.076Z</time>
      </trkpt>
      <trkpt lat="45.8957" lon="2.93467">
        <ele>871</ele>
        <time>2023-04-14T16:34:59.376Z</time>
      </trkpt>
      <trkpt lat="45.89634" lon="2.93423">
        <ele>873</ele>
        <time>2023-04-14T16:35:06.687Z</time>
      </trkpt>
      <trkpt lat="45.89649" lon="2.9341">
        <ele>874</ele>
        <time>2023-04-14T16:35:14.001Z</time>
      </trkpt>
      <trkpt lat="45.89658" lon="2.93396">
        <ele>875</ele>
        <time>2023-04-14T16:35:21.317Z</time>
      </trkpt>
      <trkpt lat="45.89659" lon="2.93396">
        <ele>876</ele>
        <time>2023-04-14T16:35:28.633Z</time>
      </trkpt>
      <trkpt lat="45.89673" lon="2.93374">
        <ele>877</ele>
        <time>2023-04-14T16:35:35.953Z</time>
      </trkpt>
      <trkpt lat="45.89683" lon="2.93356">
        <ele>878</ele>
        <time>2023-04-14T16:35:43.275Z</time>
      </trkpt>
      <trkpt lat="45.89729" lon="2.93266">
        <ele>878</ele>
        <time>2023-04-14T16:35:50.610Z</time>
      </trkpt>
      <trkpt lat="45.8978" lon="2.93163">
        <ele>879</ele>
        <time>2023-04-14T16:35:57.959Z</time>
      </trkpt>
      <trkpt lat="45.89821" lon="2.93097">
        <ele>880</ele>
        <time>2023-04-14T16:36:05.318Z</time>
      </trkpt>
      <trkpt lat="45.89838" lon="2.93068">
        <ele>880</ele>
        <time>2023-04-14T16:36:12.681Z</time>
      </trkpt>
      <trkpt lat="45.89853" lon="2.93038">
        <ele>881</ele>
        <time>2023-04-14T16:36:20.048Z</time>
      </trkpt>
      <trkpt lat="45.89928" lon="2.92853">
        <ele>881</ele>
        <time>2023-04-14T16:36:27.439Z</time>
      </trkpt>
      <trkpt lat="45.89948" lon="2.92798">
        <ele>882</ele>
        <time>2023-04-14T16:36:34.837Z</time>
      </trkpt>
      <trkpt lat="45.89959" lon="2.92754">
        <ele>882</ele>
        <time>2023-04-14T16:36:42.240Z</time>
      </trkpt>
      <trkpt lat="45.89963" lon="2.9272">
        <ele>881</ele>
        <time>2023-04-14T16:36:49.647Z</time>
      </trkpt>
      <trkpt lat="45.89967" lon="2.92648">
        <ele>881</ele>
        <time>2023-04-14T16:36:57.062Z</time>
      </trkpt>
      <trkpt lat="45.89968" lon="2.92567">
        <ele>880</ele>
        <time>2023-04-14T16:37:04.486Z</time>
      </trkpt>
      <trkpt lat="45.89962" lon="2.92522">
        <ele>880</ele>
        <time>2023-04-14T16:37:11.915Z</time>
      </trkpt>
      <trkpt lat="45.89959" lon="2.9249">
        <ele>879</ele>
        <time>2023-04-14T16:37:19.348Z</time>
      </trkpt>
      <trkpt lat="45.8996" lon="2.92468">
        <ele>878</ele>
        <time>2023-04-14T16:37:26.783Z</time>
      </trkpt>
      <trkpt lat="45.89965" lon="2.92446">
        <ele>877</ele>
        <time>2023-04-14T16:37:34.221Z</time>
      </trkpt>
      <trkpt lat="45.89971" lon="2.92426">
        <ele>876</ele>
        <time>2023-04-14T16:37:41.661Z</time>
      </trkpt>
      <trkpt lat="45.89983" lon="2.92394">
        <ele>874</ele>
        <time>2023-04-14T16:37:49.105Z</time>
      </trkpt>
      <trkpt lat="45.90006" lon="2.92332">
        <ele>873</ele>
        <time>2023-04-14T16:37:56.557Z</time>
      </trkpt>
      <trkpt lat="45.90001" lon="2.92323">
        <ele>871</ele>
        <time>2023-04-14T16:38:04.010Z</time>
      </trkpt>
      <trkpt lat="45.89978" lon="2.92289">
        <ele>870</ele>
        <time>2023-04-14T16:38:11.469Z</time>
      </trkpt>
      <trkpt lat="45.89832" lon="2.921">
        <ele>868</ele>
        <time>2023-04-14T16:38:18.959Z</time>
      </trkpt>
      <trkpt lat="45.89773" lon="2.92022">
        <ele>866</ele>
        <time>2023-04-14T16:38:26.462Z</time>
      </trkpt>
      <trkpt lat="45.89624" lon="2.91831">
        <ele>864</ele>
        <time>2023-04-14T16:38:33.997Z</time>
      </trkpt>
      <trkpt lat="45.89515" lon="2.91689">
        <ele>862</ele>
        <time>2023-04-14T16:38:41.556Z</time>
      </trkpt>
      <trkpt lat="45.89389" lon="2.91524">
        <ele>860</ele>
        <time>2023-04-14T16:38:49.142Z</time>
      </trkpt>
      <trkpt lat="45.89327" lon="2.91445">
        <ele>858</ele>
        <time>2023-04-14T16:38:56.741Z</time>
      </trkpt>
      <trkpt lat="45.89298" lon="2.91414">
        <ele>857</ele>
        <time>2023-04-14T16:39:04.346Z</time>
      </trkpt>
      <trkpt lat="45.89267" lon="2.91387">
        <ele>856</ele>
        <time>2023-04-14T16:39:11.957Z</time>
      </trkpt>
      <trkpt lat="45.89265" lon="2.91386">
        <ele>854</ele>
        <time>2023-04-14T16:39:19.568Z</time>
      </trkpt>
      <trkpt lat="45.89265" lon="2.91386">
        <ele>853</ele>
        <time>2023-04-14T16:39:27.179Z</time>
      </trkpt>
      <trkpt lat="45.89263" lon="2.91384">
        <ele>852</ele>
        <time>2023-04-14T16:39:34.791Z</time>
      </trkpt>
      <trkpt lat="45.89263" lon="2.91384">
        <ele>851</ele>
        <time>2023-04-14T16:39:42.403Z</time>
      </trkpt>
      <trkpt lat="45.89261" lon="2.91383">
        <ele>851</ele>
        <time>2023-04-14T16:39:50.015Z</time>
      </trkpt>
      <trkpt lat="45.89261" lon="2.91383">
        <ele>850</ele>
        <time>2023-04-14T16:39:57.627Z</time>
      </trkpt>
      <trkpt lat="45.89259" lon="2.91381">
        <ele>849</ele>
        <time>2023-04-14T16:40:05.239Z</time>
      </trkpt>
      <trkpt lat="45.89132" lon="2.91275">
        <ele>849</ele>
        <time>2023-04-14T16:40:12.875Z</time>
      </trkpt>
      <trkpt lat="45.89106" lon="2.91265">
        <ele>849</ele>
        <time>2023-04-14T16:40:20.515Z</time>
      </trkpt>
      <trkpt lat="45.89096" lon="2.91264">
        <ele>849</ele>
        <time>2023-04-14T16:40:28.157Z</time>
      </trkpt>
      <trkpt lat="45.89087" lon="2.91267">
        <ele>849</ele>
        <time>2023-04-14T16:40:35.800Z</time>
      </trkpt>
      <trkpt lat="45.89071" lon="2.91278">
        <ele>849</ele>
        <time>2023-04-14T16:40:43.446Z</time>
      </trkpt>
      <trkpt lat="45.89042" lon="2.91311">
        <ele>849</ele>
        <time>2023-04-14T16:40:51.098Z</time>
      </trkpt>
      <trkpt lat="45.89027" lon="2.91323">
        <ele>849</ele>
        <time>2023-04-14T16:40:58.753Z</time>
      </trkpt>
      <trkpt lat="45.89006" lon="2.91334">
        <ele>849</ele>
        <time>2023-04-14T16:41:06.411Z</time>
      </trkpt>
      <trkpt lat="45.88865" lon="2.91363">
        <ele>850</ele>
        <time>2023-04-14T16:41:14.092Z</time>
      </trkpt>
      <trkpt lat="45.88865" lon="2.91363">
        <ele>850</ele>
        <time>2023-04-14T16:41:21.773Z</time>
      </trkpt>
      <trkpt lat="45.88797" lon="2.91374">
        <ele>851</ele>
        <time>2023-04-14T16:41:29.465Z</time>
      </trkpt>
      <trkpt lat="45.88791" lon="2.91372">
        <ele>851</ele>
        <time>2023-04-14T16:41:37.158Z</time>
      </trkpt>
      <trkpt lat="45.88762" lon="2.91377">
        <ele>854</ele>
        <time>2023-04-14T16:41:44.856Z</time>
      </trkpt>
      <trkpt lat="45.88762" lon="2.91377">
        <ele>855</ele>
        <time>2023-04-14T16:41:52.554Z</time>
      </trkpt>
      <trkpt lat="45.88748" lon="2.91375">
        <ele>855</ele>
        <time>2023-04-14T16:42:00.254Z</time>
      </trkpt>
      <trkpt lat="45.88739" lon="2.91368">
        <ele>856</ele>
        <time>2023-04-14T16:42:07.955Z</time>
      </trkpt>
      <trkpt lat="45.88731" lon="2.9134">
        <ele>856</ele>
        <time>2023-04-14T16:42:15.660Z</time>
      </trkpt>
      <trkpt lat="45.88729" lon="2.91382">
        <ele>857</ele>
        <time>2023-04-14T16:42:23.370Z</time>
      </trkpt>
      <trkpt lat="45.88703" lon="2.91386">
        <ele>857</ele>
        <time>2023-04-14T16:42:31.084Z</time>
      </trkpt>
      <trkpt lat="45.88677" lon="2.91393">
        <ele>858</ele>
        <time>2023-04-14T16:42:38.802Z</time>
      </trkpt>
      <trkpt lat="45.88666" lon="2.91399">
        <ele>859</ele>
        <time>2023-04-14T16:42:46.522Z</time>
      </trkpt>
      <trkpt lat="45.88658" lon="2.9141">
        <ele>860</ele>
        <time>2023-04-14T16:42:54.244Z</time>
      </trkpt>
      <trkpt lat="45.88648" lon="2.91423">
        <ele>861</ele>
        <time>2023-04-14T16:43:01.968Z</time>
      </trkpt>
      <trkpt lat="45.88626" lon="2.91463">
        <ele>862</ele>
        <time>2023-04-14T16:43:09.697Z</time>
      </trkpt>
      <trkpt lat="45.88612" lon="2.91482">
        <ele>862</ele>
        <time>2023-04-14T16:43:17.430Z</time>
      </trkpt>
      <trkpt lat="45.88599" lon="2.91494">
        <ele>863</ele>
        <time>2023-04-14T16:43:25.165Z</time>
      </trkpt>
      <trkpt lat="45.88545" lon="2.91528">
        <ele>863</ele>
        <time>2023-04-14T16:43:32.909Z</time>
      </trkpt>
      <trkpt lat="45.88497" lon="2.91551">
        <ele>863</ele>
        <time>2023-04-14T16:43:40.662Z</time>
      </trkpt>
      <trkpt lat="45.88497" lon="2.91551">
        <ele>863</ele>
        <time>2023-04-14T16:43:48.415Z</time>
      </trkpt>
      <trkpt lat="45.88437" lon="2.91577">
        <ele>862</ele>
        <time>2023-04-14T16:43:56.178Z</time>
      </trkpt>
      <trkpt lat="45.88411" lon="2.91589">
        <ele>862</ele>
        <time>2023-04-14T16:44:03.945Z</time>
      </trkpt>
      <trkpt lat="45.88392" lon="2.91605">
        <ele>862</ele>
        <time>2023-04-14T16:44:11.716Z</time>
      </trkpt>
      <trkpt lat="45.88372" lon="2.91624">
        <ele>862</ele>
        <time>2023-04-14T16:44:19.490Z</time>
      </trkpt>
      <trkpt lat="45.88356" lon="2.91643">
        <ele>862</ele>
        <time>2023-04-14T16:44:27.268Z</time>
      </trkpt>
      <trkpt lat="45.88303" lon="2.91716">
        <ele>862</ele>
        <time>2023-04-14T16:44:35.057Z</time>
      </trkpt>
      <trkpt lat="45.8828" lon="2.9174">
        <ele>862</ele>
        <time>2023-04-14T16:44:42.851Z</time>
      </trkpt>
      <trkpt lat="45.88239" lon="2.9177">
        <ele>861</ele>
        <time>2023-04-14T16:44:50.652Z</time>
      </trkpt>
      <trkpt lat="45.88201" lon="2.91796">
        <ele>861</ele>
        <time>2023-04-14T16:44:58.460Z</time>
      </trkpt>
      <trkpt lat="45.88128" lon="2.91848">
        <ele>861</ele>
        <time>2023-04-14T16:45:06.281Z</time>
      </trkpt>
      <trkpt lat="45.88091" lon="2.91875">
        <ele>861</ele>
        <time>2023-04-14T16:45:14.109Z</time>
      </trkpt>
      <trkpt lat="45.88081" lon="2.91884">
        <ele>861</ele>
        <time>2023-04-14T16:45:21.939Z</time>
      </trkpt>
      <trkpt lat="45.88057" lon="2.91904">
        <ele>870</ele>
        <time>2023-04-14T16:45:29.773Z</time>
      </trkpt>
      <trkpt lat="45.87958" lon="2.91999">
        <ele>875</ele>
        <time>2023-04-14T16:45:37.626Z</time>
      </trkpt>
      <trkpt lat="45.8792" lon="2.92031">
        <ele>878</ele>
        <time>2023-04-14T16:45:45.486Z</time>
      </trkpt>
      <trkpt lat="45.87905" lon="2.92039">
        <ele>881</ele>
        <time>2023-04-14T16:45:53.349Z</time>
      </trkpt>
      <trkpt lat="45.87868" lon="2.92052">
        <ele>884</ele>
        <time>2023-04-14T16:46:01.218Z</time>
      </trkpt>
      <trkpt lat="45.87682" lon="2.92098">
        <ele>886</ele>
        <time>2023-04-14T16:46:09.117Z</time>
      </trkpt>
      <trkpt lat="45.87657" lon="2.92109">
        <ele>887</ele>
        <time>2023-04-14T16:46:17.020Z</time>
      </trkpt>
      <trkpt lat="45.87657" lon="2.92109">
        <ele>888</ele>
        <time>2023-04-14T16:46:24.923Z</time>
      </trkpt>
      <trkpt lat="45.87642" lon="2.92115">
        <ele>887</ele>
        <time>2023-04-14T16:46:32.829Z</time>
      </trkpt>
      <trkpt lat="45.87587" lon="2.92144">
        <ele>886</ele>
        <time>2023-04-14T16:46:40.744Z</time>
      </trkpt>
      <trkpt lat="45.87411" lon="2.92247">
        <ele>883</ele>
        <time>2023-04-14T16:46:48.690Z</time>
      </trkpt>
      <trkpt lat="45.87386" lon="2.92259">
        <ele>882</ele>
        <time>2023-04-14T16:46:56.640Z</time>
      </trkpt>
      <trkpt lat="45.87358" lon="2.92269">
        <ele>880</ele>
        <time>2023-04-14T16:47:04.594Z</time>
      </trkpt>
      <trkpt lat="45.87358" lon="2.92269">
        <ele>879</ele>
        <time>2023-04-14T16:47:12.548Z</time>
      </trkpt>
      <trkpt lat="45.87335" lon="2.9227">
        <ele>878</ele>
        <time>2023-04-14T16:47:20.506Z</time>
      </trkpt>
      <trkpt lat="45.87297" lon="2.92266">
        <ele>877</ele>
        <time>2023-04-14T16:47:28.470Z</time>
      </trkpt>
      <trkpt lat="45.87074" lon="2.92237">
        <ele>876</ele>
        <time>2023-04-14T16:47:36.470Z</time>
      </trkpt>
      <trkpt lat="45.86996" lon="2.92228">
        <ele>875</ele>
        <time>2023-04-14T16:47:44.483Z</time>
      </trkpt>
      <trkpt lat="45.86733" lon="2.92194">
        <ele>876</ele>
        <time>2023-04-14T16:47:52.538Z</time>
      </trkpt>
      <trkpt lat="45.86591" lon="2.92179">
        <ele>875</ele>
        <time>2023-04-14T16:48:00.616Z</time>
      </trkpt>
      <trkpt lat="45.86567" lon="2.92171">
        <ele>875</ele>
        <time>2023-04-14T16:48:08.698Z</time>
      </trkpt>
      <trkpt lat="45.8655" lon="2.92162">
        <ele>876</ele>
        <time>2023-04-14T16:48:16.782Z</time>
      </trkpt>
      <trkpt lat="45.8655" lon="2.92162">
        <ele>876</ele>
        <time>2023-04-14T16:48:24.866Z</time>
      </trkpt>
      <trkpt lat="45.86541" lon="2.92157">
        <ele>876</ele>
        <time>2023-04-14T16:48:32.952Z</time>
      </trkpt>
      <trkpt lat="45.86421" lon="2.92084">
        <ele>877</ele>
        <time>2023-04-14T16:48:41.059Z</time>
      </trkpt>
      <trkpt lat="45.86406" lon="2.92073">
        <ele>877</ele>
        <time>2023-04-14T16:48:49.169Z</time>
      </trkpt>
      <trkpt lat="45.86389" lon="2.92066">
        <ele>877</ele>
        <time>2023-04-14T16:48:57.281Z</time>
      </trkpt>
      <trkpt lat="45.86362" lon="2.92059">
        <ele>878</ele>
        <time>2023-04-14T16:49:05.398Z</time>
      </trkpt>
      <trkpt lat="45.86333" lon="2.92055">
        <ele>878</ele>
        <time>2023-04-14T16:49:13.519Z</time>
      </trkpt>
      <trkpt lat="45.86296" lon="2.92053">
        <ele>877</ele>
        <time>2023-04-14T16:49:21.646Z</time>
      </trkpt>
      <trkpt lat="45.86244" lon="2.92049">
        <ele>877</ele>
        <time>2023-04-14T16:49:29.782Z</time>
      </trkpt>
      <trkpt lat="45.86159" lon="2.92027">
        <ele>877</ele>
        <time>2023-04-14T16:49:37.932Z</time>
      </trkpt>
      <trkpt lat="45.86116" lon="2.92014">
        <ele>877</ele>
        <time>2023-04-14T16:49:46.089Z</time>
      </trkpt>
      <trkpt lat="45.86097" lon="2.92001">
        <ele>877</ele>
        <time>2023-04-14T16:49:54.249Z</time>
      </trkpt>
      <trkpt lat="45.8607" lon="2.91978">
        <ele>877</ele>
        <time>2023-04-14T16:50:02.414Z</time>
      </trkpt>
      <trkpt lat="45.86054" lon="2.92001">
        <ele>877</ele>
        <time>2023-04-14T16:50:10.583Z</time>
      </trkpt>
      <trkpt lat="45.8607" lon="2.91978">
        <ele>875</ele>
        <time>2023-04-14T16:50:18.755Z</time>
      </trkpt>
      <trkpt lat="45.86121" lon="2.91898">
        <ele>873</ele>
        <time>2023-04-14T16:50:26.939Z</time>
      </trkpt>
      <trkpt lat="45.86155" lon="2.91846">
        <ele>871</ele>
        <time>2023-04-14T16:50:35.131Z</time>
      </trkpt>
      <trkpt lat="45.8617" lon="2.91794">
        <ele>870</ele>
        <time>2023-04-14T16:50:43.330Z</time>
      </trkpt>
      <trkpt lat="45.86203" lon="2.91664">
        <ele>868</ele>
        <time>2023-04-14T16:50:51.544Z</time>
      </trkpt>
      <trkpt lat="45.86215" lon="2.91642">
        <ele>867</ele>
        <time>2023-04-14T16:50:59.761Z</time>
      </trkpt>
      <trkpt lat="45.86265" lon="2.91585">
        <ele>867</ele>
        <time>2023-04-14T16:51:07.988Z</time>
      </trkpt>
      <trkpt lat="45.86267" lon="2.91581">
        <ele>866</ele>
        <time>2023-04-14T16:51:16.216Z</time>
      </trkpt>
      <trkpt lat="45.86278" lon="2.91557">
        <ele>865</ele>
        <time>2023-04-14T16:51:24.447Z</time>
      </trkpt>
      <trkpt lat="45.86296" lon="2.91517">
        <ele>863</ele>
        <time>2023-04-14T16:51:32.684Z</time>
      </trkpt>
      <trkpt lat="45.86354" lon="2.91391">
        <ele>861</ele>
        <time>2023-04-14T16:51:40.937Z</time>
      </trkpt>
      <trkpt lat="45.86364" lon="2.91344">
        <ele>859</ele>
        <time>2023-04-14T16:51:49.196Z</time>
      </trkpt>
      <trkpt lat="45.86364" lon="2.91344">
        <ele>858</ele>
        <time>2023-04-14T16:51:57.455Z</time>
      </trkpt>
      <trkpt lat="45.864" lon="2.91172">
        <ele>856</ele>
        <time>2023-04-14T16:52:05.734Z</time>
      </trkpt>
      <trkpt lat="45.86404" lon="2.9116">
        <ele>854</ele>
        <time>2023-04-14T16:52:14.014Z</time>
      </trkpt>
      <trkpt lat="45.86395" lon="2.91125">
        <ele>853</ele>
        <time>2023-04-14T16:52:22.299Z</time>
      </trkpt>
      <trkpt lat="45.8635" lon="2.91104">
        <ele>851</ele>
        <time>2023-04-14T16:52:30.591Z</time>
      </trkpt>
      <trkpt lat="45.86323" lon="2.91075">
        <ele>850</ele>
        <time>2023-04-14T16:52:38.889Z</time>
      </trkpt>
      <trkpt lat="45.86288" lon="2.90997">
        <ele>848</ele>
        <time>2023-04-14T16:52:47.197Z</time>
      </trkpt>
      <trkpt lat="45.86279" lon="2.90959">
        <ele>847</ele>
        <time>2023-04-14T16:52:55.510Z</time>
      </trkpt>
      <trkpt lat="45.863" lon="2.90709">
        <ele>845</ele>
        <time>2023-04-14T16:53:03.851Z</time>
      </trkpt>
      <trkpt lat="45.86317" lon="2.90675">
        <ele>844</ele>
        <time>2023-04-14T16:53:12.196Z</time>
      </trkpt>
      <trkpt lat="45.86418" lon="2.90611">
        <ele>842</ele>
        <time>2023-04-14T16:53:20.559Z</time>
      </trkpt>
      <trkpt lat="45.86442" lon="2.90601">
        <ele>841</ele>
        <time>2023-04-14T16:53:28.926Z</time>
      </trkpt>
      <trkpt lat="45.86472" lon="2.90601">
        <ele>840</ele>
        <time>2023-04-14T16:53:37.298Z</time>
      </trkpt>
      <trkpt lat="45.86507" lon="2.9061">
        <ele>840</ele>
        <time>2023-04-14T16:53:45.675Z</time>
      </trkpt>
      <trkpt lat="45.86563" lon="2.90632">
        <ele>839</ele>
        <time>2023-04-14T16:53:54.062Z</time>
      </trkpt>
      <trkpt lat="45.86583" lon="2.90658">
        <ele>838</ele>
        <time>2023-04-14T16:54:02.453Z</time>
      </trkpt>
      <trkpt lat="45.86587" lon="2.90655">
        <ele>838</ele>
        <time>2023-04-14T16:54:10.845Z</time>
      </trkpt>
      <trkpt lat="45.866" lon="2.90662">
        <ele>837</ele>
        <time>2023-04-14T16:54:19.239Z</time>
      </trkpt>
      <trkpt lat="45.86612" lon="2.90666">
        <ele>837</ele>
        <time>2023-04-14T16:54:27.635Z</time>
      </trkpt>
      <trkpt lat="45.86622" lon="2.90692">
        <ele>836</ele>
        <time>2023-04-14T16:54:36.034Z</time>
      </trkpt>
      <trkpt lat="45.86634" lon="2.9071">
        <ele>835</ele>
        <time>2023-04-14T16:54:44.436Z</time>
      </trkpt>
      <trkpt lat="45.8664" lon="2.90715">
        <ele>834</ele>
        <time>2023-04-14T16:54:52.839Z</time>
      </trkpt>
      <trkpt lat="45.86644" lon="2.90696">
        <ele>833</ele>
        <time>2023-04-14T16:55:01.244Z</time>
      </trkpt>
      <trkpt lat="45.86658" lon="2.90663">
        <ele>832</ele>
        <time>2023-04-14T16:55:09.654Z</time>
      </trkpt>
      <trkpt lat="45.8666" lon="2.90654">
        <ele>831</ele>
        <time>2023-04-14T16:55:18.065Z</time>
      </trkpt>
      <trkpt lat="45.86663" lon="2.90625">
        <ele>829</ele>
        <time>2023-04-14T16:55:26.479Z</time>
      </trkpt>
      <trkpt lat="45.86665" lon="2.90571">
        <ele>828</ele>
        <time>2023-04-14T16:55:34.899Z</time>
      </trkpt>
      <trkpt lat="45.86665" lon="2.90555">
        <ele>826</ele>
        <time>2023-04-14T16:55:43.321Z</time>
      </trkpt>
      <trkpt lat="45.86661" lon="2.90542">
        <ele>824</ele>
        <time>2023-04-14T16:55:51.745Z</time>
      </trkpt>
      <trkpt lat="45.86621" lon="2.90473">
        <ele>822</ele>
        <time>2023-04-14T16:56:00.179Z</time>
      </trkpt>
      <trkpt lat="45.86599" lon="2.90438">
        <ele>820</ele>
        <time>2023-04-14T16:56:08.618Z</time>
      </trkpt>
      <trkpt lat="45.86597" lon="2.90429">
        <ele>818</ele>
        <time>2023-04-14T16:56:17.058Z</time>
      </trkpt>
      <trkpt lat="45.86597" lon="2.90415">
        <ele>816</ele>
        <time>2023-04-14T16:56:25.500Z</time>
      </trkpt>
      <trkpt lat="45.86614" lon="2.90353">
        <ele>814</ele>
        <time>2023-04-14T16:56:33.949Z</time>
      </trkpt>
      <trkpt lat="45.86615" lon="2.90333">
        <ele>812</ele>
        <time>2023-04-14T16:56:42.400Z</time>
      </trkpt>
      <trkpt lat="45.86611" lon="2.90285">
        <ele>810</ele>
        <time>2023-04-14T16:56:50.857Z</time>
      </trkpt>
      <trkpt lat="45.86607" lon="2.90213">
        <ele>808</ele>
        <time>2023-04-14T16:56:59.322Z</time>
      </trkpt>
      <trkpt lat="45.86599" lon="2.90172">
        <ele>806</ele>
        <time>2023-04-14T16:57:07.791Z</time>
      </trkpt>
      <trkpt lat="45.86583" lon="2.90116">
        <ele>804</ele>
        <time>2023-04-14T16:57:16.267Z</time>
      </trkpt>
      <trkpt lat="45.86577" lon="2.90103">
        <ele>803</ele>
        <time>2023-04-14T16:57:24.745Z</time>
      </trkpt>
      <trkpt lat="45.86565" lon="2.90082">
        <ele>801</ele>
        <time>2023-04-14T16:57:33.226Z</time>
      </trkpt>
      <trkpt lat="45.86557" lon="2.90066">
        <ele>800</ele>
        <time>2023-04-14T16:57:41.709Z</time>
      </trkpt>
      <trkpt lat="45.86555" lon="2.90056">
        <ele>799</ele>
        <time>2023-04-14T16:57:50.193Z</time>
      </trkpt>
      <trkpt lat="45.86554" lon="2.90045">
        <ele>798</ele>
        <time>2023-04-14T16:57:58.679Z</time>
      </trkpt>
      <trkpt lat="45.86558" lon="2.90017">
        <ele>797</ele>
        <time>2023-04-14T16:58:07.168Z</time>
      </trkpt>
      <trkpt lat="45.8655" lon="2.89967">
        <ele>797</ele>
        <time>2023-04-14T16:58:15.663Z</time>
      </trkpt>
      <trkpt lat="45.86551" lon="2.89944">
        <ele>796</ele>
        <time>2023-04-14T16:58:24.160Z</time>
      </trkpt>
      <trkpt lat="45.86525" lon="2.89922">
        <ele>796</ele>
        <time>2023-04-14T16:58:32.662Z</time>
      </trkpt>
      <trkpt lat="45.86517" lon="2.89914">
        <ele>796</ele>
        <time>2023-04-14T16:58:41.166Z</time>
      </trkpt>
      <trkpt lat="45.86504" lon="2.89888">
        <ele>796</ele>
        <time>2023-04-14T16:58:49.673Z</time>
      </trkpt>
      <trkpt lat="45.86483" lon="2.8985">
        <ele>796</ele>
        <time>2023-04-14T16:58:58.185Z</time>
      </trkpt>
      <trkpt lat="45.86456" lon="2.89793">
        <ele>795</ele>
        <time>2023-04-14T16:59:06.705Z</time>
      </trkpt>
      <trkpt lat="45.86486" lon="2.89791">
        <ele>796</ele>
        <time>2023-04-14T16:59:15.230Z</time>
      </trkpt>
      <trkpt lat="45.86509" lon="2.89788">
        <ele>797</ele>
        <time>2023-04-14T16:59:23.759Z</time>
      </trkpt>
      <trkpt lat="45.86529" lon="2.89779">
        <ele>799</ele>
        <time>2023-04-14T16:59:32.291Z</time>
      </trkpt>
      <trkpt lat="45.8655" lon="2.89765">
        <ele>800</ele>
        <time>2023-04-14T16:59:40.827Z</time>
      </trkpt>
      <trkpt lat="45.86568" lon="2.89746">
        <ele>802</ele>
        <time>2023-04-14T16:59:49.366Z</time>
      </trkpt>
      <trkpt lat="45.86584" lon="2.8972">
        <ele>803</ele>
        <time>2023-04-14T16:59:57.909Z</time>
      </trkpt>
      <trkpt lat="45.86618" lon="2.89651">
        <ele>805</ele>
        <time>2023-04-14T17:00:06.462Z</time>
      </trkpt>
      <trkpt lat="45.86637" lon="2.89621">
        <ele>807</ele>
        <time>2023-04-14T17:00:15.019Z</time>
      </trkpt>
      <trkpt lat="45.8666" lon="2.89597">
        <ele>809</ele>
        <time>2023-04-14T17:00:23.581Z</time>
      </trkpt>
      <trkpt lat="45.86683" lon="2.89579">
        <ele>811</ele>
        <time>2023-04-14T17:00:32.147Z</time>
      </trkpt>
      <trkpt lat="45.86717" lon="2.89561">
        <ele>813</ele>
        <time>2023-04-14T17:00:40.719Z</time>
      </trkpt>
      <trkpt lat="45.86765" lon="2.8954">
        <ele>815</ele>
        <time>2023-04-14T17:00:49.299Z</time>
      </trkpt>
      <trkpt lat="45.86791" lon="2.89524">
        <ele>817</ele>
        <time>2023-04-14T17:00:57.883Z</time>
      </trkpt>
      <trkpt lat="45.86823" lon="2.89495">
        <ele>819</ele>
        <time>2023-04-14T17:01:06.473Z</time>
      </trkpt>
      <trkpt lat="45.8685" lon="2.89468">
        <ele>820</ele>
        <time>2023-04-14T17:01:15.069Z</time>
      </trkpt>
      <trkpt lat="45.86863" lon="2.89453">
        <ele>821</ele>
        <time>2023-04-14T17:01:23.667Z</time>
      </trkpt>
      <trkpt lat="45.86889" lon="2.89424">
        <ele>822</ele>
        <time>2023-04-14T17:01:32.270Z</time>
      </trkpt>
      <trkpt lat="45.86909" lon="2.89396">
        <ele>823</ele>
        <time>2023-04-14T17:01:40.878Z</time>
      </trkpt>
      <trkpt lat="45.86926" lon="2.89363">
        <ele>823</ele>
        <time>2023-04-14T17:01:49.491Z</time>
      </trkpt>
      <trkpt lat="45.86926" lon="2.89363">
        <ele>823</ele>
        <time>2023-04-14T17:01:58.104Z</time>
      </trkpt>
      <trkpt lat="45.86946" lon="2.89308">
        <ele>822</ele>
        <time>2023-04-14T17:02:06.724Z</time>
      </trkpt>
      <trkpt lat="45.86969" lon="2.89222">
        <ele>821</ele>
        <time>2023-04-14T17:02:15.354Z</time>
      </trkpt>
      <trkpt lat="45.86989" lon="2.89161">
        <ele>820</ele>
        <time>2023-04-14T17:02:23.991Z</time>
      </trkpt>
      <trkpt lat="45.87012" lon="2.89122">
        <ele>818</ele>
        <time>2023-04-14T17:02:32.634Z</time>
      </trkpt>
      <trkpt lat="45.87096" lon="2.88999">
        <ele>817</ele>
        <time>2023-04-14T17:02:41.296Z</time>
      </trkpt>
      <trkpt lat="45.8717" lon="2.88891">
        <ele>814</ele>
        <time>2023-04-14T17:02:49.975Z</time>
      </trkpt>
      <trkpt lat="45.8717" lon="2.88891">
        <ele>812</ele>
        <time>2023-04-14T17:02:58.654Z</time>
      </trkpt>
      <trkpt lat="45.87204" lon="2.88841">
        <ele>809</ele>
        <time>2023-04-14T17:03:07.341Z</time>
      </trkpt>
      <trkpt lat="45.87228" lon="2.88788">
        <ele>807</ele>
        <time>2023-04-14T17:03:16.035Z</time>
      </trkpt>
      <trkpt lat="45.87235" lon="2.88743">
        <ele>804</ele>
        <time>2023-04-14T17:03:24.734Z</time>
      </trkpt>
      <trkpt lat="45.87238" lon="2.8871">
        <ele>801</ele>
        <time>2023-04-14T17:03:33.437Z</time>
      </trkpt>
      <trkpt lat="45.87243" lon="2.88622">
        <ele>798</ele>
        <time>2023-04-14T17:03:42.150Z</time>
      </trkpt>
      <trkpt lat="45.87253" lon="2.88564">
        <ele>795</ele>
        <time>2023-04-14T17:03:50.870Z</time>
      </trkpt>
      <trkpt lat="45.87272" lon="2.88521">
        <ele>792</ele>
        <time>2023-04-14T17:03:59.595Z</time>
      </trkpt>
      <trkpt lat="45.87294" lon="2.88493">
        <ele>788</ele>
        <time>2023-04-14T17:04:08.325Z</time>
      </trkpt>
      <trkpt lat="45.87336" lon="2.88454">
        <ele>785</ele>
        <time>2023-04-14T17:04:17.063Z</time>
      </trkpt>
      <trkpt lat="45.87362" lon="2.88428">
        <ele>782</ele>
        <time>2023-04-14T17:04:25.806Z</time>
      </trkpt>
      <trkpt lat="45.87423" lon="2.88325">
        <ele>778</ele>
        <time>2023-04-14T17:04:34.564Z</time>
      </trkpt>
      <trkpt lat="45.87549" lon="2.88142">
        <ele>774</ele>
        <time>2023-04-14T17:04:43.351Z</time>
      </trkpt>
      <trkpt lat="45.87588" lon="2.88085">
        <ele>772</ele>
        <time>2023-04-14T17:04:52.147Z</time>
      </trkpt>
      <trkpt lat="45.87596" lon="2.88076">
        <ele>769</ele>
        <time>2023-04-14T17:05:00.944Z</time>
      </trkpt>
      <trkpt lat="45.87618" lon="2.88043">
        <ele>767</ele>
        <time>2023-04-14T17:05:09.746Z</time>
      </trkpt>
      <trkpt lat="45.87628" lon="2.88033">
        <ele>766</ele>
        <time>2023-04-14T17:05:18.550Z</time>
      </trkpt>
      <trkpt lat="45.8765" lon="2.88017">
        <ele>764</ele>
        <time>2023-04-14T17:05:27.358Z</time>
      </trkpt>
      <trkpt lat="45.87667" lon="2.8801">
        <ele>763</ele>
        <time>2023-04-14T17:05:36.169Z</time>
      </trkpt>
      <trkpt lat="45.87692" lon="2.88002">
        <ele>761</ele>
        <time>2023-04-14T17:05:44.984Z</time>
      </trkpt>
      <trkpt lat="45.87722" lon="2.88">
        <ele>760</ele>
        <time>2023-04-14T17:05:53.804Z</time>
      </trkpt>
      <trkpt lat="45.87745" lon="2.88002">
        <ele>760</ele>
        <time>2023-04-14T17:06:02.628Z</time>
      </trkpt>
      <trkpt lat="45.87766" lon="2.8801">
        <ele>759</ele>
        <time>2023-04-14T17:06:11.455Z</time>
      </trkpt>
      <trkpt lat="45.87814" lon="2.88045">
        <ele>758</ele>
        <time>2023-04-14T17:06:20.291Z</time>
      </trkpt>
      <trkpt lat="45.87835" lon="2.88051">
        <ele>758</ele>
        <time>2023-04-14T17:06:29.130Z</time>
      </trkpt>
      <trkpt lat="45.87853" lon="2.8805">
        <ele>757</ele>
        <time>2023-04-14T17:06:37.972Z</time>
      </trkpt>
      <trkpt lat="45.87873" lon="2.88043">
        <ele>757</ele>
        <time>2023-04-14T17:06:46.818Z</time>
      </trkpt>
      <trkpt lat="45.87894" lon="2.88031">
        <ele>757</ele>
        <time>2023-04-14T17:06:55.667Z</time>
      </trkpt>
      <trkpt lat="45.87943" lon="2.87968">
        <ele>757</ele>
        <time>2023-04-14T17:07:04.527Z</time>
      </trkpt>
      <trkpt lat="45.87955" lon="2.87944">
        <ele>757</ele>
        <time>2023-04-14T17:07:13.390Z</time>
      </trkpt>
      <trkpt lat="45.87955" lon="2.87944">
        <ele>757</ele>
        <time>2023-04-14T17:07:22.253Z</time>
      </trkpt>
      <trkpt lat="45.87964" lon="2.87918">
        <ele>758</ele>
        <time>2023-04-14T17:07:31.119Z</time>
      </trkpt>
      <trkpt lat="45.87985" lon="2.87806">
        <ele>759</ele>
        <time>2023-04-14T17:07:39.998Z</time>
      </trkpt>
      <trkpt lat="45.87995" lon="2.87772">
        <ele>760</ele>
        <time>2023-04-14T17:07:48.881Z</time>
      </trkpt>
      <trkpt lat="45.88027" lon="2.87697">
        <ele>761</ele>
        <time>2023-04-14T17:07:57.774Z</time>
      </trkpt>
      <trkpt lat="45.8803" lon="2.87671">
        <ele>762</ele>
        <time>2023-04-14T17:08:06.670Z</time>
      </trkpt>
      <trkpt lat="45.88032" lon="2.8765">
        <ele>763</ele>
        <time>2023-04-14T17:08:15.568Z</time>
      </trkpt>
      <trkpt lat="45.8803" lon="2.8758">
        <ele>765</ele>
        <time>2023-04-14T17:08:24.474Z</time>
      </trkpt>
      <trkpt lat="45.88032" lon="2.87551">
        <ele>766</ele>
        <time>2023-04-14T17:08:33.383Z</time>
      </trkpt>
      <trkpt lat="45.88041" lon="2.87518">
        <ele>768</ele>
        <time>2023-04-14T17:08:42.296Z</time>
      </trkpt>
      <trkpt lat="45.88054" lon="2.87492">
        <ele>770</ele>
        <time>2023-04-14T17:08:51.213Z</time>
      </trkpt>
      <trkpt lat="45.88072" lon="2.87467">
        <ele>772</ele>
        <time>2023-04-14T17:09:00.134Z</time>
      </trkpt>
      <trkpt lat="45.88118" lon="2.87435">
        <ele>773</ele>
        <time>2023-04-14T17:09:09.063Z</time>
      </trkpt>
      <trkpt lat="45.88221" lon="2.87347">
        <ele>776</ele>
        <time>2023-04-14T17:09:18.011Z</time>
      </trkpt>
      <trkpt lat="45.8825" lon="2.87332">
        <ele>777</ele>
        <time>2023-04-14T17:09:26.964Z</time>
      </trkpt>
      <trkpt lat="45.88262" lon="2.87329">
        <ele>778</ele>
        <time>2023-04-14T17:09:35.919Z</time>
      </trkpt>
      <trkpt lat="45.88318" lon="2.87314">
        <ele>780</ele>
        <time>2023-04-14T17:09:44.883Z</time>
      </trkpt>
      <trkpt lat="45.88394" lon="2.87274">
        <ele>780</ele>
        <time>2023-04-14T17:09:53.860Z</time>
      </trkpt>
      <trkpt lat="45.88394" lon="2.87274">
        <ele>781</ele>
        <time>2023-04-14T17:10:02.837Z</time>
      </trkpt>
      <trkpt lat="45.88455" lon="2.87252">
        <ele>782</ele>
        <time>2023-04-14T17:10:11.824Z</time>
      </trkpt>
      <trkpt lat="45.88485" lon="2.87232">
        <ele>783</ele>
        <time>2023-04-14T17:10:20.817Z</time>
      </trkpt>
      <trkpt lat="45.88499" lon="2.87215">
        <ele>784</ele>
        <time>2023-04-14T17:10:29.813Z</time>
      </trkpt>
      <trkpt lat="45.88511" lon="2.87195">
        <ele>785</ele>
        <time>2023-04-14T17:10:38.812Z</time>
      </trkpt>
      <trkpt lat="45.88521" lon="2.87165">
        <ele>786</ele>
        <time>2023-04-14T17:10:47.814Z</time>
      </trkpt>
      <trkpt lat="45.88537" lon="2.87045">
        <ele>788</ele>
        <time>2023-04-14T17:10:56.830Z</time>
      </trkpt>
      <trkpt lat="45.88539" lon="2.87003">
        <ele>789</ele>
        <time>2023-04-14T17:11:05.851Z</time>
      </trkpt>
      <trkpt lat="45.88538" lon="2.86937">
        <ele>790</ele>
        <time>2023-04-14T17:11:14.879Z</time>
      </trkpt>
      <trkpt lat="45.88541" lon="2.86894">
        <ele>791</ele>
        <time>2023-04-14T17:11:23.912Z</time>
      </trkpt>
      <trkpt lat="45.88547" lon="2.86865">
        <ele>792</ele>
        <time>2023-04-14T17:11:32.948Z</time>
      </trkpt>
      <trkpt lat="45.88559" lon="2.86842">
        <ele>793</ele>
        <time>2023-04-14T17:11:41.987Z</time>
      </trkpt>
      <trkpt lat="45.88576" lon="2.86823">
        <ele>794</ele>
        <time>2023-04-14T17:11:51.030Z</time>
      </trkpt>
      <trkpt lat="45.88598" lon="2.86808">
        <ele>795</ele>
        <time>2023-04-14T17:12:00.077Z</time>
      </trkpt>
      <trkpt lat="45.8862" lon="2.86802">
        <ele>795</ele>
        <time>2023-04-14T17:12:09.127Z</time>
      </trkpt>
      <trkpt lat="45.88643" lon="2.86805">
        <ele>795</ele>
        <time>2023-04-14T17:12:18.181Z</time>
      </trkpt>
      <trkpt lat="45.88662" lon="2.86816">
        <ele>796</ele>
        <time>2023-04-14T17:12:27.238Z</time>
      </trkpt>
      <trkpt lat="45.88712" lon="2.86852">
        <ele>797</ele>
        <time>2023-04-14T17:12:36.304Z</time>
      </trkpt>
      <trkpt lat="45.88722" lon="2.86858">
        <ele>797</ele>
        <time>2023-04-14T17:12:45.372Z</time>
      </trkpt>
      <trkpt lat="45.88768" lon="2.86872">
        <ele>798</ele>
        <time>2023-04-14T17:12:54.448Z</time>
      </trkpt>
      <trkpt lat="45.88798" lon="2.86875">
        <ele>798</ele>
        <time>2023-04-14T17:13:03.528Z</time>
      </trkpt>
      <trkpt lat="45.88836" lon="2.86871">
        <ele>799</ele>
        <time>2023-04-14T17:13:12.614Z</time>
      </trkpt>
      <trkpt lat="45.88899" lon="2.86847">
        <ele>799</ele>
        <time>2023-04-14T17:13:21.711Z</time>
      </trkpt>
      <trkpt lat="45.8892" lon="2.86835">
        <ele>799</ele>
        <time>2023-04-14T17:13:30.811Z</time>
      </trkpt>
      <trkpt lat="45.8892" lon="2.86835">
        <ele>799</ele>
        <time>2023-04-14T17:13:39.911Z</time>
      </trkpt>
      <trkpt lat="45.88982" lon="2.86785">
        <ele>799</ele>
        <time>2023-04-14T17:13:49.023Z</time>
      </trkpt>
      <trkpt lat="45.88998" lon="2.86769">
        <ele>799</ele>
        <time>2023-04-14T17:13:58.138Z</time>
      </trkpt>
      <trkpt lat="45.89014" lon="2.8675">
        <ele>798</ele>
        <time>2023-04-14T17:14:07.256Z</time>
      </trkpt>
      <trkpt lat="45.89104" lon="2.8661">
        <ele>796</ele>
        <time>2023-04-14T17:14:16.396Z</time>
      </trkpt>
      <trkpt lat="45.8913" lon="2.86563">
        <ele>795</ele>
        <time>2023-04-14T17:14:25.542Z</time>
      </trkpt>
      <trkpt lat="45.89144" lon="2.8653">
        <ele>795</ele>
        <time>2023-04-14T17:14:34.693Z</time>
      </trkpt>
      <trkpt lat="45.89144" lon="2.8653">
        <ele>792</ele>
        <time>2023-04-14T17:14:43.844Z</time>
      </trkpt>
      <trkpt lat="45.89151" lon="2.86514">
        <ele>788</ele>
        <time>2023-04-14T17:14:52.997Z</time>
      </trkpt>
      <trkpt lat="45.8921" lon="2.86359">
        <ele>786</ele>
        <time>2023-04-14T17:15:02.170Z</time>
      </trkpt>
      <trkpt lat="45.8922" lon="2.86333">
        <ele>783</ele>
        <time>2023-04-14T17:15:11.346Z</time>
      </trkpt>
      <trkpt lat="45.89228" lon="2.86312">
        <ele>781</ele>
        <time>2023-04-14T17:15:20.525Z</time>
      </trkpt>
      <trkpt lat="45.89247" lon="2.86263">
        <ele>779</ele>
        <time>2023-04-14T17:15:29.710Z</time>
      </trkpt>
      <trkpt lat="45.89255" lon="2.86242">
        <ele>777</ele>
        <time>2023-04-14T17:15:38.898Z</time>
      </trkpt>
      <trkpt lat="45.89288" lon="2.86181">
        <ele>775</ele>
        <time>2023-04-14T17:15:48.094Z</time>
      </trkpt>
      <trkpt lat="45.89288" lon="2.86181">
        <ele>773</ele>
        <time>2023-04-14T17:15:57.290Z</time>
      </trkpt>
      <trkpt lat="45.89316" lon="2.86131">
        <ele>771</ele>
        <time>2023-04-14T17:16:06.493Z</time>
      </trkpt>
      <trkpt lat="45.8936" lon="2.86047">
        <ele>769</ele>
        <time>2023-04-14T17:16:15.708Z</time>
      </trkpt>
      <trkpt lat="45.89441" lon="2.8603">
        <ele>767</ele>
        <time>2023-04-14T17:16:24.936Z</time>
      </trkpt>
      <trkpt lat="45.89505" lon="2.86009">
        <ele>765</ele>
        <time>2023-04-14T17:16:34.175Z</time>
      </trkpt>
      <trkpt lat="45.89588" lon="2.85964">
        <ele>763</ele>
        <time>2023-04-14T17:16:43.428Z</time>
      </trkpt>
      <trkpt lat="45.89664" lon="2.85893">
        <ele>761</ele>
        <time>2023-04-14T17:16:52.695Z</time>
      </trkpt>
      <trkpt lat="45.89684" lon="2.85886">
        <ele>760</ele>
        <time>2023-04-14T17:17:01.966Z</time>
      </trkpt>
      <trkpt lat="45.89709" lon="2.85891">
        <ele>759</ele>
        <time>2023-04-14T17:17:11.241Z</time>
      </trkpt>
      <trkpt lat="45.89883" lon="2.85991">
        <ele>757</ele>
        <time>2023-04-14T17:17:20.546Z</time>
      </trkpt>
      <trkpt lat="45.89924" lon="2.85998">
        <ele>756</ele>
        <time>2023-04-14T17:17:29.857Z</time>
      </trkpt>
      <trkpt lat="45.89989" lon="2.85947">
        <ele>755</ele>
        <time>2023-04-14T17:17:39.180Z</time>
      </trkpt>
      <trkpt lat="45.90084" lon="2.85801">
        <ele>754</ele>
        <time>2023-04-14T17:17:48.525Z</time>
      </trkpt>
      <trkpt lat="45.90145" lon="2.85699">
        <ele>753</ele>
        <time>2023-04-14T17:17:57.886Z</time>
      </trkpt>
      <trkpt lat="45.90196" lon="2.85604">
        <ele>752</ele>
        <time>2023-04-14T17:18:07.260Z</time>
      </trkpt>
      <trkpt lat="45.9022" lon="2.85588">
        <ele>751</ele>
        <time>2023-04-14T17:18:16.638Z</time>
      </trkpt>
      <trkpt lat="45.90308" lon="2.85601">
        <ele>751</ele>
        <time>2023-04-14T17:18:26.030Z</time>
      </trkpt>
      <trkpt lat="45.90329" lon="2.85589">
        <ele>751</ele>
        <time>2023-04-14T17:18:35.426Z</time>
      </trkpt>
      <trkpt lat="45.90348" lon="2.85568">
        <ele>750</ele>
        <time>2023-04-14T17:18:44.826Z</time>
      </trkpt>
      <trkpt lat="45.9036" lon="2.8554">
        <ele>750</ele>
        <time>2023-04-14T17:18:54.229Z</time>
      </trkpt>
      <trkpt lat="45.90385" lon="2.85448">
        <ele>750</ele>
        <time>2023-04-14T17:19:03.643Z</time>
      </trkpt>
      <trkpt lat="45.90419" lon="2.85417">
        <ele>750</ele>
        <time>2023-04-14T17:19:13.064Z</time>
      </trkpt>
      <trkpt lat="45.90446" lon="2.8541">
        <ele>749</ele>
        <time>2023-04-14T17:19:22.489Z</time>
      </trkpt>
      <trkpt lat="45.90521" lon="2.85418">
        <ele>749</ele>
        <time>2023-04-14T17:19:31.926Z</time>
      </trkpt>
      <trkpt lat="45.9054" lon="2.85428">
        <ele>748</ele>
        <time>2023-04-14T17:19:41.367Z</time>
      </trkpt>
      <trkpt lat="45.90567" lon="2.8546">
        <ele>748</ele>
        <time>2023-04-14T17:19:50.813Z</time>
      </trkpt>
      <trkpt lat="45.90644" lon="2.85573">
        <ele>747</ele>
        <time>2023-04-14T17:20:00.277Z</time>
      </trkpt>
      <trkpt lat="45.90644" lon="2.85573">
        <ele>746</ele>
        <time>2023-04-14T17:20:09.741Z</time>
      </trkpt>
      <trkpt lat="45.90691" lon="2.85648">
        <ele>746</ele>
        <time>2023-04-14T17:20:19.216Z</time>
      </trkpt>
      <trkpt lat="45.90711" lon="2.85693">
        <ele>745</ele>
        <time>2023-04-14T17:20:28.697Z</time>
      </trkpt>
      <trkpt lat="45.90788" lon="2.8598">
        <ele>744</ele>
        <time>2023-04-14T17:20:38.212Z</time>
      </trkpt>
      <trkpt lat="45.90827" lon="2.86051">
        <ele>743</ele>
        <time>2023-04-14T17:20:47.737Z</time>
      </trkpt>
      <trkpt lat="45.90899" lon="2.86134">
        <ele>742</ele>
        <time>2023-04-14T17:20:57.277Z</time>
      </trkpt>
      <trkpt lat="45.91093" lon="2.86209">
        <ele>740</ele>
        <time>2023-04-14T17:21:06.849Z</time>
      </trkpt>
      <trkpt lat="45.91236" lon="2.86179">
        <ele>739</ele>
        <time>2023-04-14T17:21:16.445Z</time>
      </trkpt>
      <trkpt lat="45.91269" lon="2.86162">
        <ele>738</ele>
        <time>2023-04-14T17:21:26.046Z</time>
      </trkpt>
      <trkpt lat="45.91371" lon="2.86016">
        <ele>738</ele>
        <time>2023-04-14T17:21:35.670Z</time>
      </trkpt>
      <trkpt lat="45.91423" lon="2.85969">
        <ele>738</ele>
        <time>2023-04-14T17:21:45.304Z</time>
      </trkpt>
      <trkpt lat="45.91555" lon="2.85833">
        <ele>737</ele>
        <time>2023-04-14T17:21:54.964Z</time>
      </trkpt>
      <trkpt lat="45.91581" lon="2.85802">
        <ele>737</ele>
        <time>2023-04-14T17:22:04.629Z</time>
      </trkpt>
      <trkpt lat="45.91601" lon="2.85758">
        <ele>737</ele>
        <time>2023-04-14T17:22:14.300Z</time>
      </trkpt>
      <trkpt lat="45.91601" lon="2.85758">
        <ele>737</ele>
        <time>2023-04-14T17:22:23.971Z</time>
      </trkpt>
      <trkpt lat="45.91601" lon="2.85758">
        <ele>736</ele>
        <time>2023-04-14T17:22:33.642Z</time>
      </trkpt>
      <trkpt lat="45.9163" lon="2.85469">
        <ele>737</ele>
        <time>2023-04-14T17:22:43.346Z</time>
      </trkpt>
      <trkpt lat="45.91621" lon="2.85349">
        <ele>736</ele>
        <time>2023-04-14T17:22:53.063Z</time>
      </trkpt>
      <trkpt lat="45.91612" lon="2.8519">
        <ele>736</ele>
        <time>2023-04-14T17:23:02.798Z</time>
      </trkpt>
      <trkpt lat="45.91624" lon="2.85127">
        <ele>736</ele>
        <time>2023-04-14T17:23:12.541Z</time>
      </trkpt>
      <trkpt lat="45.91675" lon="2.85024">
        <ele>737</ele>
        <time>2023-04-14T17:23:22.298Z</time>
      </trkpt>
      <trkpt lat="45.91729" lon="2.84934">
        <ele>737</ele>
        <time>2023-04-14T17:23:32.068Z</time>
      </trkpt>
      <trkpt lat="45.91759" lon="2.8484">
        <ele>737</ele>
        <time>2023-04-14T17:23:41.849Z</time>
      </trkpt>
      <trkpt lat="45.91777" lon="2.84644">
        <ele>736</ele>
        <time>2023-04-14T17:23:51.653Z</time>
      </trkpt>
      <trkpt lat="45.91814" lon="2.84512">
        <ele>736</ele>
        <time>2023-04-14T17:24:01.472Z</time>
      </trkpt>
      <trkpt lat="45.91814" lon="2.84512">
        <ele>735</ele>
        <time>2023-04-14T17:24:11.291Z</time>
      </trkpt>
      <trkpt lat="45.9185" lon="2.84384">
        <ele>735</ele>
        <time>2023-04-14T17:24:21.126Z</time>
      </trkpt>
      <trkpt lat="45.9185" lon="2.84384">
        <ele>734</ele>
        <time>2023-04-14T17:24:30.961Z</time>
      </trkpt>
      <trkpt lat="45.91935" lon="2.84091">
        <ele>733</ele>
        <time>2023-04-14T17:24:40.831Z</time>
      </trkpt>
      <trkpt lat="45.91942" lon="2.8407">
        <ele>732</ele>
        <time>2023-04-14T17:24:50.704Z</time>
      </trkpt>
      <trkpt lat="45.91976" lon="2.83984">
        <ele>731</ele>
        <time>2023-04-14T17:25:00.588Z</time>
      </trkpt>
      <trkpt lat="45.92001" lon="2.83902">
        <ele>730</ele>
        <time>2023-04-14T17:25:10.482Z</time>
      </trkpt>
      <trkpt lat="45.92001" lon="2.83902">
        <ele>729</ele>
        <time>2023-04-14T17:25:20.376Z</time>
      </trkpt>
      <trkpt lat="45.92049" lon="2.83675">
        <ele>728</ele>
        <time>2023-04-14T17:25:30.296Z</time>
      </trkpt>
      <trkpt lat="45.92102" lon="2.83486">
        <ele>726</ele>
        <time>2023-04-14T17:25:40.239Z</time>
      </trkpt>
      <trkpt lat="45.92156" lon="2.83338">
        <ele>725</ele>
        <time>2023-04-14T17:25:50.201Z</time>
      </trkpt>
      <trkpt lat="45.92188" lon="2.83288">
        <ele>724</ele>
        <time>2023-04-14T17:26:00.170Z</time>
      </trkpt>
      <trkpt lat="45.92242" lon="2.83242">
        <ele>722</ele>
        <time>2023-04-14T17:26:10.149Z</time>
      </trkpt>
      <trkpt lat="45.92294" lon="2.83174">
        <ele>721</ele>
        <time>2023-04-14T17:26:20.140Z</time>
      </trkpt>
      <trkpt lat="45.92343" lon="2.83129">
        <ele>719</ele>
        <time>2023-04-14T17:26:30.140Z</time>
      </trkpt>
      <trkpt lat="45.92376" lon="2.83101">
        <ele>718</ele>
        <time>2023-04-14T17:26:40.146Z</time>
      </trkpt>
      <trkpt lat="45.9242" lon="2.8308">
        <ele>717</ele>
        <time>2023-04-14T17:26:50.160Z</time>
      </trkpt>
      <trkpt lat="45.92435" lon="2.83061">
        <ele>715</ele>
        <time>2023-04-14T17:27:00.177Z</time>
      </trkpt>
      <trkpt lat="45.92446" lon="2.83028">
        <ele>714</ele>
        <time>2023-04-14T17:27:10.198Z</time>
      </trkpt>
      <trkpt lat="45.92446" lon="2.83028">
        <ele>713</ele>
        <time>2023-04-14T17:27:20.219Z</time>
      </trkpt>
      <trkpt lat="45.9246" lon="2.82943">
        <ele>712</ele>
        <time>2023-04-14T17:27:30.250Z</time>
      </trkpt>
      <trkpt lat="45.92463" lon="2.82838">
        <ele>711</ele>
        <time>2023-04-14T17:27:40.292Z</time>
      </trkpt>
      <trkpt lat="45.92494" lon="2.82699">
        <ele>709</ele>
        <time>2023-04-14T17:27:50.351Z</time>
      </trkpt>
      <trkpt lat="45.92517" lon="2.82496">
        <ele>708</ele>
        <time>2023-04-14T17:28:00.433Z</time>
      </trkpt>
      <trkpt lat="45.92513" lon="2.82437">
        <ele>708</ele>
        <time>2023-04-14T17:28:10.521Z</time>
      </trkpt>
      <trkpt lat="45.92512" lon="2.82431">
        <ele>707</ele>
        <time>2023-04-14T17:28:20.610Z</time>
      </trkpt>
      <trkpt lat="45.92511" lon="2.82431">
        <ele>707</ele>
        <time>2023-04-14T17:28:30.699Z</time>
      </trkpt>
      <trkpt lat="45.92486" lon="2.82267">
        <ele>706</ele>
        <time>2023-04-14T17:28:40.807Z</time>
      </trkpt>
      <trkpt lat="45.92479" lon="2.82202">
        <ele>706</ele>
        <time>2023-04-14T17:28:50.922Z</time>
      </trkpt>
      <trkpt lat="45.92479" lon="2.82167">
        <ele>706</ele>
        <time>2023-04-14T17:29:01.041Z</time>
      </trkpt>
      <trkpt lat="45.92479" lon="2.82147">
        <ele>705</ele>
        <time>2023-04-14T17:29:11.162Z</time>
      </trkpt>
      <trkpt lat="45.9248" lon="2.82148">
        <ele>705</ele>
        <time>2023-04-14T17:29:21.284Z</time>
      </trkpt>
      <trkpt lat="45.92536" lon="2.82188">
        <ele>705</ele>
        <time>2023-04-14T17:29:31.416Z</time>
      </trkpt>
      <trkpt lat="45.92537" lon="2.82191">
        <ele>706</ele>
        <time>2023-04-14T17:29:41.548Z</time>
      </trkpt>
      <trkpt lat="45.92543" lon="2.82226">
        <ele>706</ele>
        <time>2023-04-14T17:29:51.684Z</time>
      </trkpt>
      <trkpt lat="45.92555" lon="2.82264">
        <ele>706</ele>
        <time>2023-04-14T17:30:01.825Z</time>
      </trkpt>
      <trkpt lat="45.92557" lon="2.82269">
        <ele>707</ele>
        <time>2023-04-14T17:30:11.966Z</time>
      </trkpt>
      <trkpt lat="45.92605" lon="2.8239">
        <ele>707</ele>
        <time>2023-04-14T17:30:22.123Z</time>
      </trkpt>
      <trkpt lat="45.92605" lon="2.8239">
        <ele>708</ele>
        <time>2023-04-14T17:30:32.280Z</time>
      </trkpt>
      <trkpt lat="45.92606" lon="2.82394">
        <ele>708</ele>
        <time>2023-04-14T17:30:42.437Z</time>
      </trkpt>
      <trkpt lat="45.92606" lon="2.82394">
        <ele>709</ele>
        <time>2023-04-14T17:30:52.594Z</time>
      </trkpt>
      <trkpt lat="45.92607" lon="2.82395">
        <ele>710</ele>
        <time>2023-04-14T17:31:02.752Z</time>
      </trkpt>
      <trkpt lat="45.92607" lon="2.82396">
        <ele>710</ele>
        <time>2023-04-14T17:31:12.910Z</time>
      </trkpt>
      <trkpt lat="45.92608" lon="2.82399">
        <ele>711</ele>
        <time>2023-04-14T17:31:23.068Z</time>
      </trkpt>
      <trkpt lat="45.92608" lon="2.824">
        <ele>712</ele>
        <time>2023-04-14T17:31:33.226Z</time>
      </trkpt>
      <trkpt lat="45.92616" lon="2.82419">
        <ele>713</ele>
        <time>2023-04-14T17:31:43.387Z</time>
      </trkpt>
      <trkpt lat="45.92617" lon="2.82422">
        <ele>713</ele>
        <time>2023-04-14T17:31:53.548Z</time>
      </trkpt>
      <trkpt lat="45.9262" lon="2.82428">
        <ele>714</ele>
        <time>2023-04-14T17:32:03.710Z</time>
      </trkpt>
      <trkpt lat="45.92623" lon="2.82436">
        <ele>715</ele>
        <time>2023-04-14T17:32:13.873Z</time>
      </trkpt>
      <trkpt lat="45.9263" lon="2.82455">
        <ele>715</ele>
        <time>2023-04-14T17:32:24.038Z</time>
      </trkpt>
      <trkpt lat="45.9266" lon="2.82539">
        <ele>716</ele>
        <time>2023-04-14T17:32:34.214Z</time>
      </trkpt>
      <trkpt lat="45.92695" lon="2.8266">
        <ele>717</ele>
        <time>2023-04-14T17:32:44.404Z</time>
      </trkpt>
      <trkpt lat="45.92735" lon="2.82814">
        <ele>717</ele>
        <time>2023-04-14T17:32:54.613Z</time>
      </trkpt>
      <trkpt lat="45.92753" lon="2.8288">
        <ele>718</ele>
        <time>2023-04-14T17:33:04.830Z</time>
      </trkpt>
      <trkpt lat="45.92763" lon="2.82908">
        <ele>718</ele>
        <time>2023-04-14T17:33:15.050Z</time>
      </trkpt>
      <trkpt lat="45.92784" lon="2.82955">
        <ele>718</ele>
        <time>2023-04-14T17:33:25.276Z</time>
      </trkpt>
      <trkpt lat="45.92786" lon="2.82968">
        <ele>719</ele>
        <time>2023-04-14T17:33:35.504Z</time>
      </trkpt>
      <trkpt lat="45.92785" lon="2.82972">
        <ele>719</ele>
        <time>2023-04-14T17:33:45.732Z</time>
      </trkpt>
      <trkpt lat="45.92783" lon="2.82979">
        <ele>719</ele>
        <time>2023-04-14T17:33:55.961Z</time>
      </trkpt>
      <trkpt lat="45.92784" lon="2.82989">
        <ele>718</ele>
        <time>2023-04-14T17:34:06.191Z</time>
      </trkpt>
      <trkpt lat="45.92786" lon="2.82995">
        <ele>718</ele>
        <time>2023-04-14T17:34:16.422Z</time>
      </trkpt>
      <trkpt lat="45.92794" lon="2.83004">
        <ele>718</ele>
        <time>2023-04-14T17:34:26.655Z</time>
      </trkpt>
      <trkpt lat="45.92804" lon="2.83004">
        <ele>717</ele>
        <time>2023-04-14T17:34:36.889Z</time>
      </trkpt>
      <trkpt lat="45.9281" lon="2.83005">
        <ele>717</ele>
        <time>2023-04-14T17:34:47.124Z</time>
      </trkpt>
      <trkpt lat="45.92823" lon="2.83012">
        <ele>716</ele>
        <time>2023-04-14T17:34:57.362Z</time>
      </trkpt>
      <trkpt lat="45.92832" lon="2.83017">
        <ele>715</ele>
        <time>2023-04-14T17:35:07.601Z</time>
      </trkpt>
      <trkpt lat="45.92862" lon="2.83034">
        <ele>714</ele>
        <time>2023-04-14T17:35:17.845Z</time>
      </trkpt>
      <trkpt lat="45.92955" lon="2.83088">
        <ele>713</ele>
        <time>2023-04-14T17:35:28.105Z</time>
      </trkpt>
      <trkpt lat="45.93071" lon="2.83151">
        <ele>712</ele>
        <time>2023-04-14T17:35:38.385Z</time>
      </trkpt>
      <trkpt lat="45.93102" lon="2.83169">
        <ele>711</ele>
        <time>2023-04-14T17:35:48.671Z</time>
      </trkpt>
      <trkpt lat="45.93119" lon="2.83187">
        <ele>710</ele>
        <time>2023-04-14T17:35:58.960Z</time>
      </trkpt>
      <trkpt lat="45.93137" lon="2.8322">
        <ele>709</ele>
        <time>2023-04-14T17:36:09.254Z</time>
      </trkpt>
      <trkpt lat="45.93148" lon="2.83255">
        <ele>708</ele>
        <time>2023-04-14T17:36:19.552Z</time>
      </trkpt>
      <trkpt lat="45.93185" lon="2.83372">
        <ele>706</ele>
        <time>2023-04-14T17:36:29.864Z</time>
      </trkpt>
      <trkpt lat="45.93199" lon="2.83418">
        <ele>705</ele>
        <time>2023-04-14T17:36:40.182Z</time>
      </trkpt>
      <trkpt lat="45.9321" lon="2.83446">
        <ele>704</ele>
        <time>2023-04-14T17:36:50.503Z</time>
      </trkpt>
      <trkpt lat="45.93228" lon="2.83475">
        <ele>703</ele>
        <time>2023-04-14T17:37:00.829Z</time>
      </trkpt>
      <trkpt lat="45.93239" lon="2.8349">
        <ele>703</ele>
        <time>2023-04-14T17:37:11.157Z</time>
      </trkpt>
      <trkpt lat="45.9327" lon="2.83521">
        <ele>702</ele>
        <time>2023-04-14T17:37:21.491Z</time>
      </trkpt>
      <trkpt lat="45.93314" lon="2.83548">
        <ele>702</ele>
        <time>2023-04-14T17:37:31.833Z</time>
      </trkpt>
      <trkpt lat="45.93336" lon="2.83552">
        <ele>701</ele>
        <time>2023-04-14T17:37:42.178Z</time>
      </trkpt>
      <trkpt lat="45.93338" lon="2.83552">
        <ele>701</ele>
        <time>2023-04-14T17:37:52.524Z</time>
      </trkpt>
      <trkpt lat="45.93339" lon="2.83552">
        <ele>700</ele>
        <time>2023-04-14T17:38:02.870Z</time>
      </trkpt>
      <trkpt lat="45.93339" lon="2.83552">
        <ele>700</ele>
        <time>2023-04-14T17:38:13.216Z</time>
      </trkpt>
      <trkpt lat="45.9334" lon="2.83552">
        <ele>700</ele>
        <time>2023-04-14T17:38:23.562Z</time>
      </trkpt>
      <trkpt lat="45.9334" lon="2.83552">
        <ele>700</ele>
        <time>2023-04-14T17:38:33.908Z</time>
      </trkpt>
      <trkpt lat="45.9334" lon="2.83552">
        <ele>700</ele>
        <time>2023-04-14T17:38:44.254Z</time>
      </trkpt>
      <trkpt lat="45.93343" lon="2.83552">
        <ele>700</ele>
        <time>2023-04-14T17:38:54.601Z</time>
      </trkpt>
      <trkpt lat="45.93344" lon="2.83552">
        <ele>701</ele>
        <time>2023-04-14T17:39:04.948Z</time>
      </trkpt>
      <trkpt lat="45.93356" lon="2.83551">
        <ele>701</ele>
        <time>2023-04-14T17:39:15.297Z</time>
      </trkpt>
      <trkpt lat="45.93356" lon="2.83551">
        <ele>702</ele>
        <time>2023-04-14T17:39:25.646Z</time>
      </trkpt>
      <trkpt lat="45.93376" lon="2.8355">
        <ele>702</ele>
        <time>2023-04-14T17:39:35.998Z</time>
      </trkpt>
      <trkpt lat="45.93386" lon="2.8356">
        <ele>703</ele>
        <time>2023-04-14T17:39:46.352Z</time>
      </trkpt>
      <trkpt lat="45.93396" lon="2.83574">
        <ele>704</ele>
        <time>2023-04-14T17:39:56.708Z</time>
      </trkpt>
      <trkpt lat="45.93402" lon="2.83586">
        <ele>705</ele>
        <time>2023-04-14T17:40:07.066Z</time>
      </trkpt>
      <trkpt lat="45.93402" lon="2.83604">
        <ele>705</ele>
        <time>2023-04-14T17:40:17.426Z</time>
      </trkpt>
      <trkpt lat="45.934" lon="2.83621">
        <ele>706</ele>
        <time>2023-04-14T17:40:27.788Z</time>
      </trkpt>
      <trkpt lat="45.934" lon="2.83621">
        <ele>707</ele>
        <time>2023-04-14T17:40:38.150Z</time>
      </trkpt>
      <trkpt lat="45.934" lon="2.83624">
        <ele>708</ele>
        <time>2023-04-14T17:40:48.512Z</time>
      </trkpt>
      <trkpt lat="45.93401" lon="2.83632">
        <ele>710</ele>
        <time>2023-04-14T17:40:58.875Z</time>
      </trkpt>
      <trkpt lat="45.93404" lon="2.83647">
        <ele>711</ele>
        <time>2023-04-14T17:41:09.240Z</time>
      </trkpt>
      <trkpt lat="45.93411" lon="2.83663">
        <ele>712</ele>
        <time>2023-04-14T17:41:19.607Z</time>
      </trkpt>
      <trkpt lat="45.93414" lon="2.83671">
        <ele>713</ele>
        <time>2023-04-14T17:41:29.975Z</time>
      </trkpt>
      <trkpt lat="45.93433" lon="2.83703">
        <ele>714</ele>
        <time>2023-04-14T17:41:40.347Z</time>
      </trkpt>
      <trkpt lat="45.93454" lon="2.83737">
        <ele>716</ele>
        <time>2023-04-14T17:41:50.725Z</time>
      </trkpt>
      <trkpt lat="45.93454" lon="2.83737">
        <ele>717</ele>
        <time>2023-04-14T17:42:01.103Z</time>
      </trkpt>
      <trkpt lat="45.93526" lon="2.83862">
        <ele>718</ele>
        <time>2023-04-14T17:42:11.499Z</time>
      </trkpt>
      <trkpt lat="45.93566" lon="2.83933">
        <ele>720</ele>
        <time>2023-04-14T17:42:21.905Z</time>
      </trkpt>
      <trkpt lat="45.93584" lon="2.8396">
        <ele>721</ele>
        <time>2023-04-14T17:42:32.315Z</time>
      </trkpt>
      <trkpt lat="45.93603" lon="2.83977">
        <ele>722</ele>
        <time>2023-04-14T17:42:42.729Z</time>
      </trkpt>
      <trkpt lat="45.93649" lon="2.84005">
        <ele>723</ele>
        <time>2023-04-14T17:42:53.151Z</time>
      </trkpt>
      <trkpt lat="45.9373" lon="2.84054">
        <ele>724</ele>
        <time>2023-04-14T17:43:03.587Z</time>
      </trkpt>
      <trkpt lat="45.93741" lon="2.8406">
        <ele>726</ele>
        <time>2023-04-14T17:43:14.024Z</time>
      </trkpt>
      <trkpt lat="45.93743" lon="2.84062">
        <ele>726</ele>
        <time>2023-04-14T17:43:24.462Z</time>
      </trkpt>
      <trkpt lat="45.93743" lon="2.84062">
        <ele>727</ele>
        <time>2023-04-14T17:43:34.900Z</time>
      </trkpt>
      <trkpt lat="45.93745" lon="2.84063">
        <ele>728</ele>
        <time>2023-04-14T17:43:45.338Z</time>
      </trkpt>
      <trkpt lat="45.93745" lon="2.84063">
        <ele>729</ele>
        <time>2023-04-14T17:43:55.776Z</time>
      </trkpt>
      <trkpt lat="45.93745" lon="2.84063">
        <ele>730</ele>
        <time>2023-04-14T17:44:06.214Z</time>
      </trkpt>
      <trkpt lat="45.93747" lon="2.84064">
        <ele>730</ele>
        <time>2023-04-14T17:44:16.653Z</time>
      </trkpt>
      <trkpt lat="45.93748" lon="2.84064">
        <ele>731</ele>
        <time>2023-04-14T17:44:27.092Z</time>
      </trkpt>
      <trkpt lat="45.93759" lon="2.84071">
        <ele>732</ele>
        <time>2023-04-14T17:44:37.533Z</time>
      </trkpt>
      <trkpt lat="45.93762" lon="2.84072">
        <ele>732</ele>
        <time>2023-04-14T17:44:47.974Z</time>
      </trkpt>
      <trkpt lat="45.93764" lon="2.84073">
        <ele>733</ele>
        <time>2023-04-14T17:44:58.416Z</time>
      </trkpt>
      <trkpt lat="45.93769" lon="2.84076">
        <ele>733</ele>
        <time>2023-04-14T17:45:08.858Z</time>
      </trkpt>
      <trkpt lat="45.93769" lon="2.84076">
        <ele>734</ele>
        <time>2023-04-14T17:45:19.300Z</time>
      </trkpt>
      <trkpt lat="45.93774" lon="2.8408">
        <ele>734</ele>
        <time>2023-04-14T17:45:29.743Z</time>
      </trkpt>
      <trkpt lat="45.93824" lon="2.84095">
        <ele>735</ele>
        <time>2023-04-14T17:45:40.195Z</time>
      </trkpt>
      <trkpt lat="45.93793" lon="2.84174">
        <ele>735</ele>
        <time>2023-04-14T17:45:50.657Z</time>
      </trkpt>
      <trkpt lat="45.93759" lon="2.84206">
        <ele>735</ele>
        <time>2023-04-14T17:46:01.125Z</time>
      </trkpt>
      <trkpt lat="45.93722" lon="2.84237">
        <ele>735</ele>
        <time>2023-04-14T17:46:11.600Z</time>
      </trkpt>
      <trkpt lat="45.93692" lon="2.84281">
        <ele>736</ele>
        <time>2023-04-14T17:46:22.082Z</time>
      </trkpt>
      <trkpt lat="45.93631" lon="2.84486">
        <ele>736</ele>
        <time>2023-04-14T17:46:32.589Z</time>
      </trkpt>
      <trkpt lat="45.93581" lon="2.84568">
        <ele>736</ele>
        <time>2023-04-14T17:46:43.108Z</time>
      </trkpt>
      <trkpt lat="45.93523" lon="2.84765">
        <ele>736</ele>
        <time>2023-04-14T17:46:53.651Z</time>
      </trkpt>
      <trkpt lat="45.9352" lon="2.84773">
        <ele>736</ele>
        <time>2023-04-14T17:47:04.195Z</time>
      </trkpt>
      <trkpt lat="45.93428" lon="2.84983">
        <ele>736</ele>
        <time>2023-04-14T17:47:14.766Z</time>
      </trkpt>
      <trkpt lat="45.93422" lon="2.84995">
        <ele>736</ele>
        <time>2023-04-14T17:47:25.339Z</time>
      </trkpt>
      <trkpt lat="45.93395" lon="2.85065">
        <ele>736</ele>
        <time>2023-04-14T17:47:35.921Z</time>
      </trkpt>
      <trkpt lat="45.93356" lon="2.85189">
        <ele>736</ele>
        <time>2023-04-14T17:47:46.518Z</time>
      </trkpt>
      <trkpt lat="45.93344" lon="2.85251">
        <ele>737</ele>
        <time>2023-04-14T17:47:57.122Z</time>
      </trkpt>
      <trkpt lat="45.93324" lon="2.85444">
        <ele>737</ele>
        <time>2023-04-14T17:48:07.748Z</time>
      </trkpt>
      <trkpt lat="45.93292" lon="2.85538">
        <ele>738</ele>
        <time>2023-04-14T17:48:18.386Z</time>
      </trkpt>
      <trkpt lat="45.93292" lon="2.85538">
        <ele>738</ele>
        <time>2023-04-14T17:48:29.024Z</time>
      </trkpt>
      <trkpt lat="45.93281" lon="2.85601">
        <ele>738</ele>
        <time>2023-04-14T17:48:39.669Z</time>
      </trkpt>
      <trkpt lat="45.93247" lon="2.85741">
        <ele>738</ele>
        <time>2023-04-14T17:48:50.331Z</time>
      </trkpt>
      <trkpt lat="45.93214" lon="2.85922">
        <ele>738</ele>
        <time>2023-04-14T17:49:01.014Z</time>
      </trkpt>
      <trkpt lat="45.93179" lon="2.86183">
        <ele>738</ele>
        <time>2023-04-14T17:49:11.726Z</time>
      </trkpt>
      <trkpt lat="45.9316" lon="2.86255">
        <ele>737</ele>
        <time>2023-04-14T17:49:22.447Z</time>
      </trkpt>
      <trkpt lat="45.93135" lon="2.86314">
        <ele>737</ele>
        <time>2023-04-14T17:49:33.176Z</time>
      </trkpt>
      <trkpt lat="45.9311" lon="2.86355">
        <ele>737</ele>
        <time>2023-04-14T17:49:43.911Z</time>
      </trkpt>
      <trkpt lat="45.93023" lon="2.86401">
        <ele>737</ele>
        <time>2023-04-14T17:49:54.661Z</time>
      </trkpt>
      <trkpt lat="45.92969" lon="2.86461">
        <ele>736</ele>
        <time>2023-04-14T17:50:05.422Z</time>
      </trkpt>
      <trkpt lat="45.92904" lon="2.86524">
        <ele>736</ele>
        <time>2023-04-14T17:50:16.195Z</time>
      </trkpt>
      <trkpt lat="45.92795" lon="2.8659">
        <ele>737</ele>
        <time>2023-04-14T17:50:26.987Z</time>
      </trkpt>
      <trkpt lat="45.92745" lon="2.86607">
        <ele>737</ele>
        <time>2023-04-14T17:50:37.787Z</time>
      </trkpt>
      <trkpt lat="45.92668" lon="2.86611">
        <ele>736</ele>
        <time>2023-04-14T17:50:48.599Z</time>
      </trkpt>
      <trkpt lat="45.92645" lon="2.86601">
        <ele>736</ele>
        <time>2023-04-14T17:50:59.415Z</time>
      </trkpt>
      <trkpt lat="45.92595" lon="2.86604">
        <ele>736</ele>
        <time>2023-04-14T17:51:10.239Z</time>
      </trkpt>
      <trkpt lat="45.92575" lon="2.86613">
        <ele>736</ele>
        <time>2023-04-14T17:51:21.067Z</time>
      </trkpt>
      <trkpt lat="45.92495" lon="2.86663">
        <ele>736</ele>
        <time>2023-04-14T17:51:31.909Z</time>
      </trkpt>
      <trkpt lat="45.92431" lon="2.86687">
        <ele>736</ele>
        <time>2023-04-14T17:51:42.761Z</time>
      </trkpt>
      <trkpt lat="45.92367" lon="2.86695">
        <ele>736</ele>
        <time>2023-04-14T17:51:53.624Z</time>
      </trkpt>
      <trkpt lat="45.92251" lon="2.86752">
        <ele>736</ele>
        <time>2023-04-14T17:52:04.506Z</time>
      </trkpt>
      <trkpt lat="45.92184" lon="2.8674">
        <ele>736</ele>
        <time>2023-04-14T17:52:15.399Z</time>
      </trkpt>
      <trkpt lat="45.9214" lon="2.86751">
        <ele>736</ele>
        <time>2023-04-14T17:52:26.299Z</time>
      </trkpt>
      <trkpt lat="45.92137" lon="2.86757">
        <ele>736</ele>
        <time>2023-04-14T17:52:37.200Z</time>
      </trkpt>
      <trkpt lat="45.92121" lon="2.86791">
        <ele>737</ele>
        <time>2023-04-14T17:52:48.106Z</time>
      </trkpt>
      <trkpt lat="45.92078" lon="2.86934">
        <ele>738</ele>
        <time>2023-04-14T17:52:59.029Z</time>
      </trkpt>
      <trkpt lat="45.91866" lon="2.87199">
        <ele>738</ele>
        <time>2023-04-14T17:53:09.997Z</time>
      </trkpt>
      <trkpt lat="45.91794" lon="2.87358">
        <ele>739</ele>
        <time>2023-04-14T17:53:20.986Z</time>
      </trkpt>
      <trkpt lat="45.91732" lon="2.87419">
        <ele>740</ele>
        <time>2023-04-14T17:53:31.987Z</time>
      </trkpt>
      <trkpt lat="45.91701" lon="2.87465">
        <ele>741</ele>
        <time>2023-04-14T17:53:42.995Z</time>
      </trkpt>
      <trkpt lat="45.91634" lon="2.87529">
        <ele>742</ele>
        <time>2023-04-14T17:53:54.016Z</time>
      </trkpt>
      <trkpt lat="45.91592" lon="2.87582">
        <ele>743</ele>
        <time>2023-04-14T17:54:05.046Z</time>
      </trkpt>
      <trkpt lat="45.9155" lon="2.87659">
        <ele>744</ele>
        <time>2023-04-14T17:54:16.087Z</time>
      </trkpt>
      <trkpt lat="45.91541" lon="2.87686">
        <ele>745</ele>
        <time>2023-04-14T17:54:27.131Z</time>
      </trkpt>
      <trkpt lat="45.91541" lon="2.87686">
        <ele>746</ele>
        <time>2023-04-14T17:54:38.175Z</time>
      </trkpt>
      <trkpt lat="45.91538" lon="2.87879">
        <ele>747</ele>
        <time>2023-04-14T17:54:49.241Z</time>
      </trkpt>
      <trkpt lat="45.91518" lon="2.88055">
        <ele>748</ele>
        <time>2023-04-14T17:55:00.327Z</time>
      </trkpt>
      <trkpt lat="45.9149" lon="2.88224">
        <ele>749</ele>
        <time>2023-04-14T17:55:11.432Z</time>
      </trkpt>
      <trkpt lat="45.91447" lon="2.88381">
        <ele>751</ele>
        <time>2023-04-14T17:55:22.556Z</time>
      </trkpt>
      <trkpt lat="45.91447" lon="2.88381">
        <ele>752</ele>
        <time>2023-04-14T17:55:33.680Z</time>
      </trkpt>
      <trkpt lat="45.91432" lon="2.88431">
        <ele>753</ele>
        <time>2023-04-14T17:55:44.810Z</time>
      </trkpt>
      <trkpt lat="45.91322" lon="2.88804">
        <ele>755</ele>
        <time>2023-04-14T17:55:55.985Z</time>
      </trkpt>
      <trkpt lat="45.91323" lon="2.88804">
        <ele>757</ele>
        <time>2023-04-14T17:56:07.161Z</time>
      </trkpt>
      <trkpt lat="45.91307" lon="2.88856">
        <ele>759</ele>
        <time>2023-04-14T17:56:18.343Z</time>
      </trkpt>
      <trkpt lat="45.91299" lon="2.88871">
        <ele>760</ele>
        <time>2023-04-14T17:56:29.527Z</time>
      </trkpt>
      <trkpt lat="45.91288" lon="2.88885">
        <ele>762</ele>
        <time>2023-04-14T17:56:40.713Z</time>
      </trkpt>
      <trkpt lat="45.91276" lon="2.88898">
        <ele>764</ele>
        <time>2023-04-14T17:56:51.902Z</time>
      </trkpt>
      <trkpt lat="45.91248" lon="2.88919">
        <ele>766</ele>
        <time>2023-04-14T17:57:03.096Z</time>
      </trkpt>
      <trkpt lat="45.91238" lon="2.88927">
        <ele>768</ele>
        <time>2023-04-14T17:57:14.292Z</time>
      </trkpt>
      <trkpt lat="45.91225" lon="2.88942">
        <ele>769</ele>
        <time>2023-04-14T17:57:25.490Z</time>
      </trkpt>
      <trkpt lat="45.91207" lon="2.88974">
        <ele>771</ele>
        <time>2023-04-14T17:57:36.693Z</time>
      </trkpt>
      <trkpt lat="45.91202" lon="2.88993">
        <ele>773</ele>
        <time>2023-04-14T17:57:47.898Z</time>
      </trkpt>
      <trkpt lat="45.91197" lon="2.89021">
        <ele>775</ele>
        <time>2023-04-14T17:57:59.106Z</time>
      </trkpt>
      <trkpt lat="45.91197" lon="2.89047">
        <ele>777</ele>
        <time>2023-04-14T17:58:10.317Z</time>
      </trkpt>
      <trkpt lat="45.912" lon="2.89085">
        <ele>779</ele>
        <time>2023-04-14T17:58:21.533Z</time>
      </trkpt>
      <trkpt lat="45.91203" lon="2.8912">
        <ele>781</ele>
        <time>2023-04-14T17:58:32.753Z</time>
      </trkpt>
      <trkpt lat="45.91203" lon="2.89146">
        <ele>782</ele>
        <time>2023-04-14T17:58:43.975Z</time>
      </trkpt>
      <trkpt lat="45.91202" lon="2.89197">
        <ele>784</ele>
        <time>2023-04-14T17:58:55.203Z</time>
      </trkpt>
      <trkpt lat="45.91191" lon="2.89292">
        <ele>786</ele>
        <time>2023-04-14T17:59:06.442Z</time>
      </trkpt>
      <trkpt lat="45.9119" lon="2.89328">
        <ele>788</ele>
        <time>2023-04-14T17:59:17.685Z</time>
      </trkpt>
      <trkpt lat="45.91193" lon="2.89354">
        <ele>790</ele>
        <time>2023-04-14T17:59:28.931Z</time>
      </trkpt>
      <trkpt lat="45.91202" lon="2.89392">
        <ele>792</ele>
        <time>2023-04-14T17:59:40.181Z</time>
      </trkpt>
      <trkpt lat="45.91204" lon="2.89416">
        <ele>793</ele>
        <time>2023-04-14T17:59:51.434Z</time>
      </trkpt>
      <trkpt lat="45.91204" lon="2.89436">
        <ele>795</ele>
        <time>2023-04-14T18:00:02.689Z</time>
      </trkpt>
      <trkpt lat="45.91198" lon="2.8947">
        <ele>796</ele>
        <time>2023-04-14T18:00:13.948Z</time>
      </trkpt>
      <trkpt lat="45.91192" lon="2.8949">
        <ele>798</ele>
        <time>2023-04-14T18:00:25.210Z</time>
      </trkpt>
      <trkpt lat="45.91171" lon="2.89531">
        <ele>799</ele>
        <time>2023-04-14T18:00:36.477Z</time>
      </trkpt>
      <trkpt lat="45.91157" lon="2.8957">
        <ele>800</ele>
        <time>2023-04-14T18:00:47.749Z</time>
      </trkpt>
      <trkpt lat="45.91145" lon="2.89638">
        <ele>801</ele>
        <time>2023-04-14T18:00:59.029Z</time>
      </trkpt>
      <trkpt lat="45.91135" lon="2.89701">
        <ele>802</ele>
        <time>2023-04-14T18:01:10.316Z</time>
      </trkpt>
      <trkpt lat="45.91128" lon="2.89753">
        <ele>803</ele>
        <time>2023-04-14T18:01:21.609Z</time>
      </trkpt>
      <trkpt lat="45.91125" lon="2.89805">
        <ele>804</ele>
        <time>2023-04-14T18:01:32.908Z</time>
      </trkpt>
      <trkpt lat="45.91116" lon="2.89887">
        <ele>804</ele>
        <time>2023-04-14T18:01:44.216Z</time>
      </trkpt>
      <trkpt lat="45.91113" lon="2.89958">
        <ele>805</ele>
        <time>2023-04-14T18:01:55.532Z</time>
      </trkpt>
      <trkpt lat="45.91119" lon="2.90023">
        <ele>805</ele>
        <time>2023-04-14T18:02:06.856Z</time>
      </trkpt>
      <trkpt lat="45.91119" lon="2.90049">
        <ele>805</ele>
        <time>2023-04-14T18:02:18.183Z</time>
      </trkpt>
      <trkpt lat="45.91116" lon="2.90071">
        <ele>806</ele>
        <time>2023-04-14T18:02:29.512Z</time>
      </trkpt>
      <trkpt lat="45.91092" lon="2.90177">
        <ele>806</ele>
        <time>2023-04-14T18:02:40.853Z</time>
      </trkpt>
      <trkpt lat="45.91079" lon="2.90233">
        <ele>806</ele>
        <time>2023-04-14T18:02:52.201Z</time>
      </trkpt>
      <trkpt lat="45.91071" lon="2.90269">
        <ele>806</ele>
        <time>2023-04-14T18:03:03.553Z</time>
      </trkpt>
      <trkpt lat="45.91063" lon="2.90346">
        <ele>807</ele>
        <time>2023-04-14T18:03:14.914Z</time>
      </trkpt>
      <trkpt lat="45.9106" lon="2.90379">
        <ele>807</ele>
        <time>2023-04-14T18:03:26.279Z</time>
      </trkpt>
      <trkpt lat="45.91054" lon="2.90398">
        <ele>807</ele>
        <time>2023-04-14T18:03:37.646Z</time>
      </trkpt>
      <trkpt lat="45.91046" lon="2.90417">
        <ele>808</ele>
        <time>2023-04-14T18:03:49.015Z</time>
      </trkpt>
      <trkpt lat="45.91032" lon="2.90437">
        <ele>809</ele>
        <time>2023-04-14T18:04:00.388Z</time>
      </trkpt>
      <trkpt lat="45.9101" lon="2.90453">
        <ele>809</ele>
        <time>2023-04-14T18:04:11.765Z</time>
      </trkpt>
      <trkpt lat="45.90987" lon="2.90462">
        <ele>810</ele>
        <time>2023-04-14T18:04:23.145Z</time>
      </trkpt>
      <trkpt lat="45.90932" lon="2.9047">
        <ele>812</ele>
        <time>2023-04-14T18:04:34.534Z</time>
      </trkpt>
      <trkpt lat="45.90897" lon="2.90478">
        <ele>813</ele>
        <time>2023-04-14T18:04:45.929Z</time>
      </trkpt>
      <trkpt lat="45.90885" lon="2.90484">
        <ele>814</ele>
        <time>2023-04-14T18:04:57.326Z</time>
      </trkpt>
      <trkpt lat="45.90878" lon="2.90489">
        <ele>815</ele>
        <time>2023-04-14T18:05:08.724Z</time>
      </trkpt>
      <trkpt lat="45.90868" lon="2.905">
        <ele>816</ele>
        <time>2023-04-14T18:05:20.124Z</time>
      </trkpt>
      <trkpt lat="45.90856" lon="2.90518">
        <ele>818</ele>
        <time>2023-04-14T18:05:31.527Z</time>
      </trkpt>
      <trkpt lat="45.9084" lon="2.90557">
        <ele>820</ele>
        <time>2023-04-14T18:05:42.935Z</time>
      </trkpt>
      <trkpt lat="45.90819" lon="2.90618">
        <ele>822</ele>
        <time>2023-04-14T18:05:54.351Z</time>
      </trkpt>
      <trkpt lat="45.90794" lon="2.90693">
        <ele>824</ele>
        <time>2023-04-14T18:06:05.776Z</time>
      </trkpt>
      <trkpt lat="45.90775" lon="2.90735">
        <ele>826</ele>
        <time>2023-04-14T18:06:17.207Z</time>
      </trkpt>
      <trkpt lat="45.90741" lon="2.90784">
        <ele>828</ele>
        <time>2023-04-14T18:06:28.645Z</time>
      </trkpt>
      <trkpt lat="45.90722" lon="2.90821">
        <ele>830</ele>
        <time>2023-04-14T18:06:40.088Z</time>
      </trkpt>
      <trkpt lat="45.9071" lon="2.90866">
        <ele>832</ele>
        <time>2023-04-14T18:06:51.537Z</time>
      </trkpt>
      <trkpt lat="45.90689" lon="2.90974">
        <ele>834</ele>
        <time>2023-04-14T18:07:02.998Z</time>
      </trkpt>
      <trkpt lat="45.9068" lon="2.91009">
        <ele>837</ele>
        <time>2023-04-14T18:07:14.463Z</time>
      </trkpt>
      <trkpt lat="45.90671" lon="2.91034">
        <ele>839</ele>
        <time>2023-04-14T18:07:25.932Z</time>
      </trkpt>
      <trkpt lat="45.90635" lon="2.91089">
        <ele>841</ele>
        <time>2023-04-14T18:07:37.409Z</time>
      </trkpt>
      <trkpt lat="45.90581" lon="2.91164">
        <ele>843</ele>
        <time>2023-04-14T18:07:48.898Z</time>
      </trkpt>
      <trkpt lat="45.90553" lon="2.91203">
        <ele>845</ele>
        <time>2023-04-14T18:08:00.393Z</time>
      </trkpt>
      <trkpt lat="45.90541" lon="2.91217">
        <ele>847</ele>
        <time>2023-04-14T18:08:11.891Z</time>
      </trkpt>
      <trkpt lat="45.90516" lon="2.91242">
        <ele>848</ele>
        <time>2023-04-14T18:08:23.394Z</time>
      </trkpt>
      <trkpt lat="45.90485" lon="2.91269">
        <ele>850</ele>
        <time>2023-04-14T18:08:34.903Z</time>
      </trkpt>
      <trkpt lat="45.90378" lon="2.91363">
        <ele>851</ele>
        <time>2023-04-14T18:08:46.432Z</time>
      </trkpt>
      <trkpt lat="45.90365" lon="2.91374">
        <ele>853</ele>
        <time>2023-04-14T18:08:57.963Z</time>
      </trkpt>
      <trkpt lat="45.90335" lon="2.91407">
        <ele>854</ele>
        <time>2023-04-14T18:09:09.500Z</time>
      </trkpt>
      <trkpt lat="45.90276" lon="2.91494">
        <ele>856</ele>
        <time>2023-04-14T18:09:21.051Z</time>
      </trkpt>
      <trkpt lat="45.90231" lon="2.91565">
        <ele>857</ele>
        <time>2023-04-14T18:09:32.612Z</time>
      </trkpt>
      <trkpt lat="45.90219" lon="2.91593">
        <ele>858</ele>
        <time>2023-04-14T18:09:44.177Z</time>
      </trkpt>
      <trkpt lat="45.90207" lon="2.91626">
        <ele>860</ele>
        <time>2023-04-14T18:09:55.746Z</time>
      </trkpt>
      <trkpt lat="45.90199" lon="2.91667">
        <ele>861</ele>
        <time>2023-04-14T18:10:07.320Z</time>
      </trkpt>
      <trkpt lat="45.90174" lon="2.91791">
        <ele>862</ele>
        <time>2023-04-14T18:10:18.908Z</time>
      </trkpt>
      <trkpt lat="45.90151" lon="2.91871">
        <ele>863</ele>
        <time>2023-04-14T18:10:30.506Z</time>
      </trkpt>
      <trkpt lat="45.90125" lon="2.91957">
        <ele>864</ele>
        <time>2023-04-14T18:10:42.114Z</time>
      </trkpt>
      <trkpt lat="45.90118" lon="2.91987">
        <ele>865</ele>
        <time>2023-04-14T18:10:53.726Z</time>
      </trkpt>
      <trkpt lat="45.90112" lon="2.92032">
        <ele>867</ele>
        <time>2023-04-14T18:11:05.343Z</time>
      </trkpt>
      <trkpt lat="45.90111" lon="2.92058">
        <ele>868</ele>
        <time>2023-04-14T18:11:16.963Z</time>
      </trkpt>
      <trkpt lat="45.90114" lon="2.9211">
        <ele>869</ele>
        <time>2023-04-14T18:11:28.589Z</time>
      </trkpt>
      <trkpt lat="45.90117" lon="2.9216">
        <ele>870</ele>
        <time>2023-04-14T18:11:40.220Z</time>
      </trkpt>
      <trkpt lat="45.90116" lon="2.92187">
        <ele>870</ele>
        <time>2023-04-14T18:11:51.855Z</time>
      </trkpt>
      <trkpt lat="45.90109" lon="2.92217">
        <ele>871</ele>
        <time>2023-04-14T18:12:03.493Z</time>
      </trkpt>
      <trkpt lat="45.90093" lon="2.9225">
        <ele>872</ele>
        <time>2023-04-14T18:12:15.136Z</time>
      </trkpt>
      <trkpt lat="45.90076" lon="2.9227">
        <ele>873</ele>
        <time>2023-04-14T18:12:26.782Z</time>
      </trkpt>
      <trkpt lat="45.9006" lon="2.92282">
        <ele>874</ele>
        <time>2023-04-14T18:12:38.431Z</time>
      </trkpt>
      <trkpt lat="45.90038" lon="2.92295">
        <ele>874</ele>
        <time>2023-04-14T18:12:50.084Z</time>
      </trkpt>
      <trkpt lat="45.90022" lon="2.92306">
        <ele>875</ele>
        <time>2023-04-14T18:13:01.740Z</time>
      </trkpt>
      <trkpt lat="45.90022" lon="2.92306">
        <ele>876</ele>
        <time>2023-04-14T18:13:13.396Z</time>
      </trkpt>
      <trkpt lat="45.90021" lon="2.92307">
        <ele>876</ele>
        <time>2023-04-14T18:13:25.052Z</time>
      </trkpt>
      <trkpt lat="45.90019" lon="2.92308">
        <ele>876</ele>
        <time>2023-04-14T18:13:36.708Z</time>
      </trkpt>
      <trkpt lat="45.90017" lon="2.92311">
        <ele>877</ele>
        <time>2023-04-14T18:13:48.365Z</time>
      </trkpt>
      <trkpt lat="45.90015" lon="2.92314">
        <ele>877</ele>
        <time>2023-04-14T18:14:00.022Z</time>
      </trkpt>
      <trkpt lat="45.90015" lon="2.92314">
        <ele>878</ele>
        <time>2023-04-14T18:14:11.679Z</time>
      </trkpt>
      <trkpt lat="45.90015" lon="2.92316">
        <ele>878</ele>
        <time>2023-04-14T18:14:23.336Z</time>
      </trkpt>
      <trkpt lat="45.90014" lon="2.92316">
        <ele>878</ele>
        <time>2023-04-14T18:14:34.993Z</time>
      </trkpt>
      <trkpt lat="45.90013" lon="2.92319">
        <ele>878</ele>
        <time>2023-04-14T18:14:46.651Z</time>
      </trkpt>
      <trkpt lat="45.90013" lon="2.9232">
        <ele>879</ele>
        <time>2023-04-14T18:14:58.309Z</time>
      </trkpt>
      <trkpt lat="45.90005" lon="2.92334">
        <ele>879</ele>
        <time>2023-04-14T18:15:09.969Z</time>
      </trkpt>
      <trkpt lat="45.90008" lon="2.92337">
        <ele>879</ele>
        <time>2023-04-14T18:15:21.629Z</time>
      </trkpt>
      <trkpt lat="45.9001" lon="2.92339">
        <ele>879</ele>
        <time>2023-04-14T18:15:33.290Z</time>
      </trkpt>
      <trkpt lat="45.90013" lon="2.92344">
        <ele>879</ele>
        <time>2023-04-14T18:15:44.951Z</time>
      </trkpt>
      <trkpt lat="45.90013" lon="2.92344">
        <ele>880</ele>
        <time>2023-04-14T18:15:56.612Z</time>
      </trkpt>
      <trkpt lat="45.90054" lon="2.92397">
        <ele>880</ele>
        <time>2023-04-14T18:16:08.282Z</time>
      </trkpt>
      <trkpt lat="45.90055" lon="2.92396">
        <ele>880</ele>
        <time>2023-04-14T18:16:19.952Z</time>
      </trkpt>
      <trkpt lat="45.90084" lon="2.92434">
        <ele>880</ele>
        <time>2023-04-14T18:16:31.629Z</time>
      </trkpt>
      <trkpt lat="45.90096" lon="2.92456">
        <ele>881</ele>
        <time>2023-04-14T18:16:43.309Z</time>
      </trkpt>
      <trkpt lat="45.90178" lon="2.92653">
        <ele>881</ele>
        <time>2023-04-14T18:16:55.015Z</time>
      </trkpt>
      <trkpt lat="45.90201" lon="2.92702">
        <ele>881</ele>
        <time>2023-04-14T18:17:06.727Z</time>
      </trkpt>
      <trkpt lat="45.90208" lon="2.92719">
        <ele>882</ele>
        <time>2023-04-14T18:17:18.441Z</time>
      </trkpt>
      <trkpt lat="45.90208" lon="2.92715">
        <ele>882</ele>
        <time>2023-04-14T18:17:30.156Z</time>
      </trkpt>
      <trkpt lat="45.90216" lon="2.92729">
        <ele>882</ele>
        <time>2023-04-14T18:17:41.873Z</time>
      </trkpt>
      <trkpt lat="45.90235" lon="2.92756">
        <ele>882</ele>
        <time>2023-04-14T18:17:53.594Z</time>
      </trkpt>
      <trkpt lat="45.90271" lon="2.92799">
        <ele>882</ele>
        <time>2023-04-14T18:18:05.323Z</time>
      </trkpt>
      <trkpt lat="45.90286" lon="2.92813">
        <ele>882</ele>
        <time>2023-04-14T18:18:17.054Z</time>
      </trkpt>
      <trkpt lat="45.90299" lon="2.9282">
        <ele>883</ele>
        <time>2023-04-14T18:18:28.788Z</time>
      </trkpt>
      <trkpt lat="45.90319" lon="2.92829">
        <ele>883</ele>
        <time>2023-04-14T18:18:40.525Z</time>
      </trkpt>
      <trkpt lat="45.90343" lon="2.92835">
        <ele>883</ele>
        <time>2023-04-14T18:18:52.266Z</time>
      </trkpt>
      <trkpt lat="45.90392" lon="2.92847">
        <ele>884</ele>
        <time>2023-04-14T18:19:04.015Z</time>
      </trkpt>
      <trkpt lat="45.90466" lon="2.92868">
        <ele>884</ele>
        <time>2023-04-14T18:19:15.776Z</time>
      </trkpt>
      <trkpt lat="45.90539" lon="2.92887">
        <ele>884</ele>
        <time>2023-04-14T18:19:27.549Z</time>
      </trkpt>
      <trkpt lat="45.90661" lon="2.92921">
        <ele>885</ele>
        <time>2023-04-14T18:19:39.342Z</time>
      </trkpt>
      <trkpt lat="45.90688" lon="2.9293">
        <ele>885</ele>
        <time>2023-04-14T18:19:51.139Z</time>
      </trkpt>
      <trkpt lat="45.90698" lon="2.92934">
        <ele>886</ele>
        <time>2023-04-14T18:20:02.938Z</time>
      </trkpt>
      <trkpt lat="45.90762" lon="2.9298">
        <ele>886</ele>
        <time>2023-04-14T18:20:14.748Z</time>
      </trkpt>
      <trkpt lat="45.90793" lon="2.93005">
        <ele>887</ele>
        <time>2023-04-14T18:20:26.564Z</time>
      </trkpt>
      <trkpt lat="45.9081" lon="2.93024">
        <ele>887</ele>
        <time>2023-04-14T18:20:38.383Z</time>
      </trkpt>
      <trkpt lat="45.90842" lon="2.93072">
        <ele>887</ele>
        <time>2023-04-14T18:20:50.210Z</time>
      </trkpt>
      <trkpt lat="45.90912" lon="2.93178">
        <ele>888</ele>
        <time>2023-04-14T18:21:02.053Z</time>
      </trkpt>
      <trkpt lat="45.90943" lon="2.93228">
        <ele>888</ele>
        <time>2023-04-14T18:21:13.904Z</time>
      </trkpt>
      <trkpt lat="45.90979" lon="2.93298">
        <ele>888</ele>
        <time>2023-04-14T18:21:25.764Z</time>
      </trkpt>
      <trkpt lat="45.91014" lon="2.93359">
        <ele>888</ele>
        <time>2023-04-14T18:21:37.633Z</time>
      </trkpt>
      <trkpt lat="45.91037" lon="2.93383">
        <ele>888</ele>
        <time>2023-04-14T18:21:49.507Z</time>
      </trkpt>
      <trkpt lat="45.91037" lon="2.93383">
        <ele>889</ele>
        <time>2023-04-14T18:22:01.381Z</time>
      </trkpt>
      <trkpt lat="45.91036" lon="2.93386">
        <ele>888</ele>
        <time>2023-04-14T18:22:13.255Z</time>
      </trkpt>
      <trkpt lat="45.91037" lon="2.93388">
        <ele>888</ele>
        <time>2023-04-14T18:22:25.129Z</time>
      </trkpt>
      <trkpt lat="45.91072" lon="2.93411">
        <ele>888</ele>
        <time>2023-04-14T18:22:37.010Z</time>
      </trkpt>
      <trkpt lat="45.91081" lon="2.93414">
        <ele>887</ele>
        <time>2023-04-14T18:22:48.892Z</time>
      </trkpt>
      <trkpt lat="45.91086" lon="2.93458">
        <ele>887</ele>
        <time>2023-04-14T18:23:00.779Z</time>
      </trkpt>
      <trkpt lat="45.91085" lon="2.93517">
        <ele>886</ele>
        <time>2023-04-14T18:23:12.673Z</time>
      </trkpt>
      <trkpt lat="45.91088" lon="2.93528">
        <ele>885</ele>
        <time>2023-04-14T18:23:24.568Z</time>
      </trkpt>
      <trkpt lat="45.91131" lon="2.93586">
        <ele>884</ele>
        <time>2023-04-14T18:23:36.472Z</time>
      </trkpt>
      <trkpt lat="45.91198" lon="2.93673">
        <ele>882</ele>
        <time>2023-04-14T18:23:48.391Z</time>
      </trkpt>
      <trkpt lat="45.91206" lon="2.93687">
        <ele>881</ele>
        <time>2023-04-14T18:24:00.312Z</time>
      </trkpt>
      <trkpt lat="45.91265" lon="2.93798">
        <ele>880</ele>
        <time>2023-04-14T18:24:12.249Z</time>
      </trkpt>
      <trkpt lat="45.91303" lon="2.93835">
        <ele>879</ele>
        <time>2023-04-14T18:24:24.193Z</time>
      </trkpt>
      <trkpt lat="45.91307" lon="2.93841">
        <ele>877</ele>
        <time>2023-04-14T18:24:36.138Z</time>
      </trkpt>
      <trkpt lat="45.91308" lon="2.93854">
        <ele>876</ele>
        <time>2023-04-14T18:24:48.084Z</time>
      </trkpt>
      <trkpt lat="45.91312" lon="2.93866">
        <ele>874</ele>
        <time>2023-04-14T18:25:00.032Z</time>
      </trkpt>
      <trkpt lat="45.91366" lon="2.93928">
        <ele>872</ele>
        <time>2023-04-14T18:25:11.991Z</time>
      </trkpt>
      <trkpt lat="45.91401" lon="2.93936">
        <ele>870</ele>
        <time>2023-04-14T18:25:23.956Z</time>
      </trkpt>
      <trkpt lat="45.9139" lon="2.93959">
        <ele>867</ele>
        <time>2023-04-14T18:25:35.924Z</time>
      </trkpt>
      <trkpt lat="45.91349" lon="2.94011">
        <ele>865</ele>
        <time>2023-04-14T18:25:47.901Z</time>
      </trkpt>
      <trkpt lat="45.91302" lon="2.9406">
        <ele>862</ele>
        <time>2023-04-14T18:25:59.887Z</time>
      </trkpt>
      <trkpt lat="45.91288" lon="2.94072">
        <ele>860</ele>
        <time>2023-04-14T18:26:11.875Z</time>
      </trkpt>
      <trkpt lat="45.91273" lon="2.9408">
        <ele>857</ele>
        <time>2023-04-14T18:26:23.866Z</time>
      </trkpt>
      <trkpt lat="45.91256" lon="2.94084">
        <ele>855</ele>
        <time>2023-04-14T18:26:35.860Z</time>
      </trkpt>
      <trkpt lat="45.91148" lon="2.94065">
        <ele>852</ele>
        <time>2023-04-14T18:26:47.871Z</time>
      </trkpt>
      <trkpt lat="45.91122" lon="2.94065">
        <ele>850</ele>
        <time>2023-04-14T18:26:59.886Z</time>
      </trkpt>
      <trkpt lat="45.91122" lon="2.94065">
        <ele>847</ele>
        <time>2023-04-14T18:27:11.901Z</time>
      </trkpt>
      <trkpt lat="45.91091" lon="2.9408">
        <ele>844</ele>
        <time>2023-04-14T18:27:23.922Z</time>
      </trkpt>
      <trkpt lat="45.91057" lon="2.94109">
        <ele>842</ele>
        <time>2023-04-14T18:27:35.949Z</time>
      </trkpt>
      <trkpt lat="45.91" lon="2.94171">
        <ele>838</ele>
        <time>2023-04-14T18:27:47.987Z</time>
      </trkpt>
      <trkpt lat="45.90979" lon="2.94206">
        <ele>836</ele>
        <time>2023-04-14T18:28:00.030Z</time>
      </trkpt>
      <trkpt lat="45.9097" lon="2.94239">
        <ele>833</ele>
        <time>2023-04-14T18:28:12.077Z</time>
      </trkpt>
      <trkpt lat="45.90964" lon="2.94297">
        <ele>830</ele>
        <time>2023-04-14T18:28:24.131Z</time>
      </trkpt>
      <trkpt lat="45.90962" lon="2.94456">
        <ele>827</ele>
        <time>2023-04-14T18:28:36.203Z</time>
      </trkpt>
      <trkpt lat="45.90955" lon="2.9452">
        <ele>825</ele>
        <time>2023-04-14T18:28:48.282Z</time>
      </trkpt>
      <trkpt lat="45.90935" lon="2.94604">
        <ele>823</ele>
        <time>2023-04-14T18:29:00.371Z</time>
      </trkpt>
      <trkpt lat="45.90933" lon="2.94636">
        <ele>820</ele>
        <time>2023-04-14T18:29:12.464Z</time>
      </trkpt>
      <trkpt lat="45.90934" lon="2.94661">
        <ele>818</ele>
        <time>2023-04-14T18:29:24.559Z</time>
      </trkpt>
      <trkpt lat="45.90934" lon="2.94661">
        <ele>816</ele>
        <time>2023-04-14T18:29:36.654Z</time>
      </trkpt>
      <trkpt lat="45.90939" lon="2.94681">
        <ele>815</ele>
        <time>2023-04-14T18:29:48.752Z</time>
      </trkpt>
      <trkpt lat="45.90955" lon="2.94743">
        <ele>813</ele>
        <time>2023-04-14T18:30:00.857Z</time>
      </trkpt>
      <trkpt lat="45.90956" lon="2.94802">
        <ele>811</ele>
        <time>2023-04-14T18:30:12.969Z</time>
      </trkpt>
      <trkpt lat="45.90949" lon="2.94849">
        <ele>810</ele>
        <time>2023-04-14T18:30:25.086Z</time>
      </trkpt>
      <trkpt lat="45.90932" lon="2.94995">
        <ele>808</ele>
        <time>2023-04-14T18:30:37.219Z</time>
      </trkpt>
      <trkpt lat="45.90931" lon="2.95067">
        <ele>807</ele>
        <time>2023-04-14T18:30:49.360Z</time>
      </trkpt>
      <trkpt lat="45.90927" lon="2.95171">
        <ele>806</ele>
        <time>2023-04-14T18:31:01.513Z</time>
      </trkpt>
      <trkpt lat="45.90923" lon="2.95232">
        <ele>806</ele>
        <time>2023-04-14T18:31:13.673Z</time>
      </trkpt>
      <trkpt lat="45.90923" lon="2.95232">
        <ele>806</ele>
        <time>2023-04-14T18:31:25.833Z</time>
      </trkpt>
      <trkpt lat="45.90922" lon="2.95248">
        <ele>804</ele>
        <time>2023-04-14T18:31:37.995Z</time>
      </trkpt>
      <trkpt lat="45.90915" lon="2.95359">
        <ele>804</ele>
        <time>2023-04-14T18:31:50.169Z</time>
      </trkpt>
      <trkpt lat="45.90915" lon="2.95359">
        <ele>804</ele>
        <time>2023-04-14T18:32:02.343Z</time>
      </trkpt>
      <trkpt lat="45.90908" lon="2.95474">
        <ele>803</ele>
        <time>2023-04-14T18:32:14.530Z</time>
      </trkpt>
      <trkpt lat="45.90903" lon="2.95514">
        <ele>803</ele>
        <time>2023-04-14T18:32:26.722Z</time>
      </trkpt>
      <trkpt lat="45.90895" lon="2.95545">
        <ele>803</ele>
        <time>2023-04-14T18:32:38.917Z</time>
      </trkpt>
      <trkpt lat="45.90856" lon="2.95634">
        <ele>803</ele>
        <time>2023-04-14T18:32:51.124Z</time>
      </trkpt>
      <trkpt lat="45.90837" lon="2.9569">
        <ele>803</ele>
        <time>2023-04-14T18:33:03.338Z</time>
      </trkpt>
      <trkpt lat="45.90832" lon="2.95743">
        <ele>803</ele>
        <time>2023-04-14T18:33:15.558Z</time>
      </trkpt>
      <trkpt lat="45.90832" lon="2.95844">
        <ele>803</ele>
        <time>2023-04-14T18:33:27.789Z</time>
      </trkpt>
      <trkpt lat="45.90844" lon="2.95931">
        <ele>803</ele>
        <time>2023-04-14T18:33:40.030Z</time>
      </trkpt>
      <trkpt lat="45.90854" lon="2.95987">
        <ele>803</ele>
        <time>2023-04-14T18:33:52.278Z</time>
      </trkpt>
      <trkpt lat="45.90856" lon="2.96029">
        <ele>802</ele>
        <time>2023-04-14T18:34:04.530Z</time>
      </trkpt>
      <trkpt lat="45.90856" lon="2.96043">
        <ele>802</ele>
        <time>2023-04-14T18:34:16.784Z</time>
      </trkpt>
      <trkpt lat="45.90859" lon="2.96338">
        <ele>802</ele>
        <time>2023-04-14T18:34:29.071Z</time>
      </trkpt>
      <trkpt lat="45.90864" lon="2.96397">
        <ele>801</ele>
        <time>2023-04-14T18:34:41.365Z</time>
      </trkpt>
      <trkpt lat="45.90864" lon="2.96397">
        <ele>800</ele>
        <time>2023-04-14T18:34:53.659Z</time>
      </trkpt>
      <trkpt lat="45.90869" lon="2.96465">
        <ele>799</ele>
        <time>2023-04-14T18:35:05.960Z</time>
      </trkpt>
      <trkpt lat="45.90869" lon="2.96465">
        <ele>798</ele>
        <time>2023-04-14T18:35:18.261Z</time>
      </trkpt>
      <trkpt lat="45.90881" lon="2.9654">
        <ele>796</ele>
        <time>2023-04-14T18:35:30.571Z</time>
      </trkpt>
      <trkpt lat="45.90897" lon="2.96621">
        <ele>795</ele>
        <time>2023-04-14T18:35:42.890Z</time>
      </trkpt>
      <trkpt lat="45.90916" lon="2.96734">
        <ele>793</ele>
        <time>2023-04-14T18:35:55.222Z</time>
      </trkpt>
      <trkpt lat="45.90927" lon="2.96904">
        <ele>791</ele>
        <time>2023-04-14T18:36:07.573Z</time>
      </trkpt>
      <trkpt lat="45.90927" lon="2.96998">
        <ele>789</ele>
        <time>2023-04-14T18:36:19.935Z</time>
      </trkpt>
      <trkpt lat="45.9087" lon="2.97567">
        <ele>785</ele>
        <time>2023-04-14T18:36:32.361Z</time>
      </trkpt>
      <trkpt lat="45.90849" lon="2.97772">
        <ele>782</ele>
        <time>2023-04-14T18:36:44.810Z</time>
      </trkpt>
      <trkpt lat="45.90815" lon="2.98102">
        <ele>778</ele>
        <time>2023-04-14T18:36:57.296Z</time>
      </trkpt>
      <trkpt lat="45.90804" lon="2.98233">
        <ele>775</ele>
        <time>2023-04-14T18:37:09.797Z</time>
      </trkpt>
      <trkpt lat="45.90805" lon="2.98328">
        <ele>772</ele>
        <time>2023-04-14T18:37:22.309Z</time>
      </trkpt>
      <trkpt lat="45.90817" lon="2.98448">
        <ele>768</ele>
        <time>2023-04-14T18:37:34.834Z</time>
      </trkpt>
      <trkpt lat="45.90819" lon="2.98565">
        <ele>765</ele>
        <time>2023-04-14T18:37:47.372Z</time>
      </trkpt>
      <trkpt lat="45.90815" lon="2.98713">
        <ele>762</ele>
        <time>2023-04-14T18:37:59.927Z</time>
      </trkpt>
      <trkpt lat="45.90815" lon="2.98712">
        <ele>762</ele>
        <time>2023-04-14T18:38:12.482Z</time>
      </trkpt>
      <trkpt lat="45.9081" lon="2.989">
        <ele>756</ele>
        <time>2023-04-14T18:38:25.058Z</time>
      </trkpt>
      <trkpt lat="45.90812" lon="2.99097">
        <ele>753</ele>
        <time>2023-04-14T18:38:37.656Z</time>
      </trkpt>
      <trkpt lat="45.9081" lon="2.99196">
        <ele>750</ele>
        <time>2023-04-14T18:38:50.265Z</time>
      </trkpt>
      <trkpt lat="45.90798" lon="2.99294">
        <ele>747</ele>
        <time>2023-04-14T18:39:02.885Z</time>
      </trkpt>
      <trkpt lat="45.90796" lon="2.9937">
        <ele>745</ele>
        <time>2023-04-14T18:39:15.514Z</time>
      </trkpt>
      <trkpt lat="45.90801" lon="2.99438">
        <ele>743</ele>
        <time>2023-04-14T18:39:28.150Z</time>
      </trkpt>
      <trkpt lat="45.90801" lon="2.99581">
        <ele>741</ele>
        <time>2023-04-14T18:39:40.802Z</time>
      </trkpt>
      <trkpt lat="45.90801" lon="2.99593">
        <ele>739</ele>
        <time>2023-04-14T18:39:53.456Z</time>
      </trkpt>
      <trkpt lat="45.90801" lon="2.99593">
        <ele>737</ele>
        <time>2023-04-14T18:40:06.110Z</time>
      </trkpt>
      <trkpt lat="45.90801" lon="2.99682">
        <ele>736</ele>
        <time>2023-04-14T18:40:18.774Z</time>
      </trkpt>
      <trkpt lat="45.90804" lon="2.99721">
        <ele>734</ele>
        <time>2023-04-14T18:40:31.442Z</time>
      </trkpt>
      <trkpt lat="45.90804" lon="2.99721">
        <ele>733</ele>
        <time>2023-04-14T18:40:44.110Z</time>
      </trkpt>
      <trkpt lat="45.90806" lon="2.99739">
        <ele>732</ele>
        <time>2023-04-14T18:40:56.780Z</time>
      </trkpt>
      <trkpt lat="45.90824" lon="2.99825">
        <ele>731</ele>
        <time>2023-04-14T18:41:09.460Z</time>
      </trkpt>
      <trkpt lat="45.90831" lon="2.99828">
        <ele>731</ele>
        <time>2023-04-14T18:41:22.141Z</time>
      </trkpt>
      <trkpt lat="45.90863" lon="2.9984">
        <ele>730</ele>
        <time>2023-04-14T18:41:34.827Z</time>
      </trkpt>
      <trkpt lat="45.9087" lon="2.99844">
        <ele>730</ele>
        <time>2023-04-14T18:41:47.515Z</time>
      </trkpt>
      <trkpt lat="45.90887" lon="2.99866">
        <ele>730</ele>
        <time>2023-04-14T18:42:00.206Z</time>
      </trkpt>
      <trkpt lat="45.90901" lon="2.99893">
        <ele>730</ele>
        <time>2023-04-14T18:42:12.901Z</time>
      </trkpt>
      <trkpt lat="45.90918" lon="2.99935">
        <ele>730</ele>
        <time>2023-04-14T18:42:25.602Z</time>
      </trkpt>
      <trkpt lat="45.90955" lon="3.00021">
        <ele>730</ele>
        <time>2023-04-14T18:42:38.314Z</time>
      </trkpt>
      <trkpt lat="45.90999" lon="3.00122">
        <ele>730</ele>
        <time>2023-04-14T18:42:51.039Z</time>
      </trkpt>
      <trkpt lat="45.91015" lon="3.00149">
        <ele>731</ele>
        <time>2023-04-14T18:43:03.768Z</time>
      </trkpt>
      <trkpt lat="45.91128" lon="3.00293">
        <ele>731</ele>
        <time>2023-04-14T18:43:16.521Z</time>
      </trkpt>
      <trkpt lat="45.91152" lon="3.00318">
        <ele>731</ele>
        <time>2023-04-14T18:43:29.279Z</time>
      </trkpt>
      <trkpt lat="45.9117" lon="3.00331">
        <ele>732</ele>
        <time>2023-04-14T18:43:42.040Z</time>
      </trkpt>
      <trkpt lat="45.91249" lon="3.00375">
        <ele>732</ele>
        <time>2023-04-14T18:43:54.815Z</time>
      </trkpt>
      <trkpt lat="45.91249" lon="3.00385">
        <ele>732</ele>
        <time>2023-04-14T18:44:07.591Z</time>
      </trkpt>
      <trkpt lat="45.91246" lon="3.00394">
        <ele>732</ele>
        <time>2023-04-14T18:44:20.368Z</time>
      </trkpt>
      <trkpt lat="45.91246" lon="3.00394">
        <ele>732</ele>
        <time>2023-04-14T18:44:33.145Z</time>
      </trkpt>
      <trkpt lat="45.91246" lon="3.00394">
        <ele>732</ele>
        <time>2023-04-14T18:44:45.922Z</time>
      </trkpt>
      <trkpt lat="45.91246" lon="3.00394">
        <ele>732</ele>
        <time>2023-04-14T18:44:58.699Z</time>
      </trkpt>
      <trkpt lat="45.91249" lon="3.00385">
        <ele>732</ele>
        <time>2023-04-14T18:45:11.477Z</time>
      </trkpt>
      <trkpt lat="45.91249" lon="3.00375">
        <ele>731</ele>
        <time>2023-04-14T18:45:24.256Z</time>
      </trkpt>
      <trkpt lat="45.91249" lon="3.00375">
        <ele>732</ele>
        <time>2023-04-14T18:45:37.035Z</time>
      </trkpt>
      <trkpt lat="45.91379" lon="3.00441">
        <ele>730</ele>
        <time>2023-04-14T18:45:49.836Z</time>
      </trkpt>
      <trkpt lat="45.91402" lon="3.00444">
        <ele>729</ele>
        <time>2023-04-14T18:46:02.641Z</time>
      </trkpt>
      <trkpt lat="45.91513" lon="3.00441">
        <ele>728</ele>
        <time>2023-04-14T18:46:15.464Z</time>
      </trkpt>
      <trkpt lat="45.91535" lon="3.00441">
        <ele>727</ele>
        <time>2023-04-14T18:46:28.290Z</time>
      </trkpt>
      <trkpt lat="45.91564" lon="3.00448">
        <ele>726</ele>
        <time>2023-04-14T18:46:41.121Z</time>
      </trkpt>
      <trkpt lat="45.91592" lon="3.00463">
        <ele>725</ele>
        <time>2023-04-14T18:46:53.957Z</time>
      </trkpt>
      <trkpt lat="45.91602" lon="3.00472">
        <ele>723</ele>
        <time>2023-04-14T18:47:06.795Z</time>
      </trkpt>
      <trkpt lat="45.91611" lon="3.00486">
        <ele>722</ele>
        <time>2023-04-14T18:47:19.635Z</time>
      </trkpt>
      <trkpt lat="45.9162" lon="3.00504">
        <ele>721</ele>
        <time>2023-04-14T18:47:32.477Z</time>
      </trkpt>
      <trkpt lat="45.91625" lon="3.00526">
        <ele>719</ele>
        <time>2023-04-14T18:47:45.322Z</time>
      </trkpt>
      <trkpt lat="45.91664" lon="3.00709">
        <ele>717</ele>
        <time>2023-04-14T18:47:58.188Z</time>
      </trkpt>
      <trkpt lat="45.91676" lon="3.00741">
        <ele>716</ele>
        <time>2023-04-14T18:48:11.058Z</time>
      </trkpt>
      <trkpt lat="45.91693" lon="3.0077">
        <ele>714</ele>
        <time>2023-04-14T18:48:23.933Z</time>
      </trkpt>
      <trkpt lat="45.91708" lon="3.00785">
        <ele>713</ele>
        <time>2023-04-14T18:48:36.810Z</time>
      </trkpt>
      <trkpt lat="45.9173" lon="3.008">
        <ele>711</ele>
        <time>2023-04-14T18:48:49.691Z</time>
      </trkpt>
      <trkpt lat="45.91747" lon="3.00802">
        <ele>709</ele>
        <time>2023-04-14T18:49:02.575Z</time>
      </trkpt>
      <trkpt lat="45.91757" lon="3.00798">
        <ele>708</ele>
        <time>2023-04-14T18:49:15.461Z</time>
      </trkpt>
      <trkpt lat="45.91766" lon="3.00792">
        <ele>706</ele>
        <time>2023-04-14T18:49:28.348Z</time>
      </trkpt>
      <trkpt lat="45.91778" lon="3.00774">
        <ele>705</ele>
        <time>2023-04-14T18:49:41.238Z</time>
      </trkpt>
      <trkpt lat="45.91815" lon="3.00708">
        <ele>703</ele>
        <time>2023-04-14T18:49:54.138Z</time>
      </trkpt>
      <trkpt lat="45.91828" lon="3.0069">
        <ele>702</ele>
        <time>2023-04-14T18:50:07.041Z</time>
      </trkpt>
      <trkpt lat="45.91862" lon="3.00662">
        <ele>700</ele>
        <time>2023-04-14T18:50:19.950Z</time>
      </trkpt>
      <trkpt lat="45.91871" lon="3.00653">
        <ele>699</ele>
        <time>2023-04-14T18:50:32.860Z</time>
      </trkpt>
      <trkpt lat="45.9188" lon="3.00638">
        <ele>697</ele>
        <time>2023-04-14T18:50:45.773Z</time>
      </trkpt>
      <trkpt lat="45.91887" lon="3.00623">
        <ele>696</ele>
        <time>2023-04-14T18:50:58.688Z</time>
      </trkpt>
      <trkpt lat="45.91894" lon="3.00604">
        <ele>694</ele>
        <time>2023-04-14T18:51:11.605Z</time>
      </trkpt>
      <trkpt lat="45.91915" lon="3.00523">
        <ele>692</ele>
        <time>2023-04-14T18:51:24.532Z</time>
      </trkpt>
      <trkpt lat="45.91935" lon="3.00431">
        <ele>691</ele>
        <time>2023-04-14T18:51:37.470Z</time>
      </trkpt>
      <trkpt lat="45.91946" lon="3.00408">
        <ele>689</ele>
        <time>2023-04-14T18:51:50.411Z</time>
      </trkpt>
      <trkpt lat="45.91956" lon="3.00398">
        <ele>688</ele>
        <time>2023-04-14T18:52:03.354Z</time>
      </trkpt>
      <trkpt lat="45.91965" lon="3.00391">
        <ele>686</ele>
        <time>2023-04-14T18:52:16.298Z</time>
      </trkpt>
      <trkpt lat="45.91975" lon="3.0039">
        <ele>685</ele>
        <time>2023-04-14T18:52:29.244Z</time>
      </trkpt>
      <trkpt lat="45.92003" lon="3.00392">
        <ele>684</ele>
        <time>2023-04-14T18:52:42.194Z</time>
      </trkpt>
      <trkpt lat="45.92012" lon="3.0039">
        <ele>683</ele>
        <time>2023-04-14T18:52:55.146Z</time>
      </trkpt>
      <trkpt lat="45.9202" lon="3.00384">
        <ele>681</ele>
        <time>2023-04-14T18:53:08.099Z</time>
      </trkpt>
      <trkpt lat="45.92029" lon="3.00373">
        <ele>680</ele>
        <time>2023-04-14T18:53:21.054Z</time>
      </trkpt>
      <trkpt lat="45.92065" lon="3.00319">
        <ele>679</ele>
        <time>2023-04-14T18:53:34.017Z</time>
      </trkpt>
      <trkpt lat="45.92088" lon="3.00295">
        <ele>678</ele>
        <time>2023-04-14T18:53:46.985Z</time>
      </trkpt>
      <trkpt lat="45.92107" lon="3.00273">
        <ele>677</ele>
        <time>2023-04-14T18:53:59.957Z</time>
      </trkpt>
      <trkpt lat="45.92178" lon="3.00195">
        <ele>676</ele>
        <time>2023-04-14T18:54:12.943Z</time>
      </trkpt>
      <trkpt lat="45.92196" lon="3.00178">
        <ele>675</ele>
        <time>2023-04-14T18:54:25.933Z</time>
      </trkpt>
      <trkpt lat="45.92208" lon="3.00172">
        <ele>675</ele>
        <time>2023-04-14T18:54:38.925Z</time>
      </trkpt>
      <trkpt lat="45.92224" lon="3.00168">
        <ele>674</ele>
        <time>2023-04-14T18:54:51.919Z</time>
      </trkpt>
      <trkpt lat="45.92249" lon="3.00169">
        <ele>674</ele>
        <time>2023-04-14T18:55:04.917Z</time>
      </trkpt>
      <trkpt lat="45.92249" lon="3.00169">
        <ele>673</ele>
        <time>2023-04-14T18:55:17.915Z</time>
      </trkpt>
      <trkpt lat="45.92255" lon="3.00175">
        <ele>673</ele>
        <time>2023-04-14T18:55:30.914Z</time>
      </trkpt>
      <trkpt lat="45.92265" lon="3.00195">
        <ele>672</ele>
        <time>2023-04-14T18:55:43.916Z</time>
      </trkpt>
      <trkpt lat="45.9227" lon="3.00216">
        <ele>672</ele>
        <time>2023-04-14T18:55:56.921Z</time>
      </trkpt>
      <trkpt lat="45.92272" lon="3.00236">
        <ele>671</ele>
        <time>2023-04-14T18:56:09.928Z</time>
      </trkpt>
      <trkpt lat="45.9227" lon="3.00254">
        <ele>671</ele>
        <time>2023-04-14T18:56:22.937Z</time>
      </trkpt>
      <trkpt lat="45.92254" lon="3.00298">
        <ele>670</ele>
        <time>2023-04-14T18:56:35.952Z</time>
      </trkpt>
      <trkpt lat="45.92254" lon="3.00298">
        <ele>670</ele>
        <time>2023-04-14T18:56:48.967Z</time>
      </trkpt>
      <trkpt lat="45.92223" lon="3.0047">
        <ele>669</ele>
        <time>2023-04-14T18:57:02.001Z</time>
      </trkpt>
      <trkpt lat="45.92203" lon="3.00528">
        <ele>669</ele>
        <time>2023-04-14T18:57:15.043Z</time>
      </trkpt>
      <trkpt lat="45.92191" lon="3.00558">
        <ele>669</ele>
        <time>2023-04-14T18:57:28.088Z</time>
      </trkpt>
      <trkpt lat="45.9217" lon="3.00588">
        <ele>668</ele>
        <time>2023-04-14T18:57:41.138Z</time>
      </trkpt>
      <trkpt lat="45.92156" lon="3.00613">
        <ele>668</ele>
        <time>2023-04-14T18:57:54.192Z</time>
      </trkpt>
      <trkpt lat="45.92079" lon="3.00773">
        <ele>667</ele>
        <time>2023-04-14T18:58:07.267Z</time>
      </trkpt>
      <trkpt lat="45.92059" lon="3.00832">
        <ele>666</ele>
        <time>2023-04-14T18:58:20.350Z</time>
      </trkpt>
      <trkpt lat="45.92049" lon="3.0087">
        <ele>665</ele>
        <time>2023-04-14T18:58:33.437Z</time>
      </trkpt>
      <trkpt lat="45.92049" lon="3.0087">
        <ele>665</ele>
        <time>2023-04-14T18:58:46.524Z</time>
      </trkpt>
      <trkpt lat="45.92016" lon="3.00964">
        <ele>664</ele>
        <time>2023-04-14T18:58:59.623Z</time>
      </trkpt>
      <trkpt lat="45.91982" lon="3.01041">
        <ele>663</ele>
        <time>2023-04-14T18:59:12.732Z</time>
      </trkpt>
      <trkpt lat="45.91967" lon="3.01077">
        <ele>662</ele>
        <time>2023-04-14T18:59:25.846Z</time>
      </trkpt>
      <trkpt lat="45.91957" lon="3.01116">
        <ele>661</ele>
        <time>2023-04-14T18:59:38.965Z</time>
      </trkpt>
      <trkpt lat="45.91951" lon="3.01143">
        <ele>660</ele>
        <time>2023-04-14T18:59:52.087Z</time>
      </trkpt>
      <trkpt lat="45.91948" lon="3.01178">
        <ele>659</ele>
        <time>2023-04-14T19:00:05.213Z</time>
      </trkpt>
      <trkpt lat="45.91939" lon="3.01191">
        <ele>658</ele>
        <time>2023-04-14T19:00:18.341Z</time>
      </trkpt>
      <trkpt lat="45.91925" lon="3.0121">
        <ele>657</ele>
        <time>2023-04-14T19:00:31.472Z</time>
      </trkpt>
      <trkpt lat="45.91898" lon="3.01225">
        <ele>656</ele>
        <time>2023-04-14T19:00:44.607Z</time>
      </trkpt>
      <trkpt lat="45.91873" lon="3.01246">
        <ele>654</ele>
        <time>2023-04-14T19:00:57.747Z</time>
      </trkpt>
      <trkpt lat="45.91864" lon="3.01262">
        <ele>653</ele>
        <time>2023-04-14T19:01:10.889Z</time>
      </trkpt>
      <trkpt lat="45.9186" lon="3.01271">
        <ele>652</ele>
        <time>2023-04-14T19:01:24.033Z</time>
      </trkpt>
      <trkpt lat="45.91858" lon="3.0128">
        <ele>651</ele>
        <time>2023-04-14T19:01:37.178Z</time>
      </trkpt>
      <trkpt lat="45.91862" lon="3.01458">
        <ele>649</ele>
        <time>2023-04-14T19:01:50.342Z</time>
      </trkpt>
      <trkpt lat="45.91841" lon="3.0158">
        <ele>647</ele>
        <time>2023-04-14T19:02:03.521Z</time>
      </trkpt>
      <trkpt lat="45.91825" lon="3.01628">
        <ele>646</ele>
        <time>2023-04-14T19:02:16.706Z</time>
      </trkpt>
      <trkpt lat="45.91811" lon="3.01694">
        <ele>644</ele>
        <time>2023-04-14T19:02:29.898Z</time>
      </trkpt>
      <trkpt lat="45.91807" lon="3.01786">
        <ele>643</ele>
        <time>2023-04-14T19:02:43.101Z</time>
      </trkpt>
      <trkpt lat="45.91818" lon="3.01886">
        <ele>641</ele>
        <time>2023-04-14T19:02:56.315Z</time>
      </trkpt>
      <trkpt lat="45.91816" lon="3.01924">
        <ele>639</ele>
        <time>2023-04-14T19:03:09.533Z</time>
      </trkpt>
      <trkpt lat="45.91802" lon="3.01945">
        <ele>637</ele>
        <time>2023-04-14T19:03:22.754Z</time>
      </trkpt>
      <trkpt lat="45.91779" lon="3.01966">
        <ele>636</ele>
        <time>2023-04-14T19:03:35.980Z</time>
      </trkpt>
      <trkpt lat="45.91754" lon="3.02044">
        <ele>634</ele>
        <time>2023-04-14T19:03:49.215Z</time>
      </trkpt>
      <trkpt lat="45.91749" lon="3.0209">
        <ele>632</ele>
        <time>2023-04-14T19:04:02.456Z</time>
      </trkpt>
      <trkpt lat="45.91761" lon="3.02154">
        <ele>631</ele>
        <time>2023-04-14T19:04:15.704Z</time>
      </trkpt>
      <trkpt lat="45.91787" lon="3.02184">
        <ele>629</ele>
        <time>2023-04-14T19:04:28.957Z</time>
      </trkpt>
      <trkpt lat="45.91805" lon="3.02217">
        <ele>627</ele>
        <time>2023-04-14T19:04:42.215Z</time>
      </trkpt>
      <trkpt lat="45.91802" lon="3.02252">
        <ele>625</ele>
        <time>2023-04-14T19:04:55.477Z</time>
      </trkpt>
      <trkpt lat="45.91797" lon="3.02298">
        <ele>623</ele>
        <time>2023-04-14T19:05:08.744Z</time>
      </trkpt>
      <trkpt lat="45.91752" lon="3.02395">
        <ele>621</ele>
        <time>2023-04-14T19:05:22.024Z</time>
      </trkpt>
      <trkpt lat="45.91751" lon="3.02424">
        <ele>619</ele>
        <time>2023-04-14T19:05:35.307Z</time>
      </trkpt>
      <trkpt lat="45.91756" lon="3.0251">
        <ele>617</ele>
        <time>2023-04-14T19:05:48.600Z</time>
      </trkpt>
      <trkpt lat="45.91756" lon="3.0251">
        <ele>617</ele>
        <time>2023-04-14T19:06:01.893Z</time>
      </trkpt>
      <trkpt lat="45.91756" lon="3.0251">
        <ele>616</ele>
        <time>2023-04-14T19:06:15.186Z</time>
      </trkpt>
      <trkpt lat="45.91756" lon="3.0251">
        <ele>617</ele>
        <time>2023-04-14T19:06:28.479Z</time>
      </trkpt>
      <trkpt lat="45.91767" lon="3.02713">
        <ele>612</ele>
        <time>2023-04-14T19:06:41.795Z</time>
      </trkpt>
      <trkpt lat="45.91779" lon="3.02767">
        <ele>609</ele>
        <time>2023-04-14T19:06:55.117Z</time>
      </trkpt>
      <trkpt lat="45.91778" lon="3.02786">
        <ele>607</ele>
        <time>2023-04-14T19:07:08.441Z</time>
      </trkpt>
      <trkpt lat="45.91738" lon="3.02836">
        <ele>606</ele>
        <time>2023-04-14T19:07:21.774Z</time>
      </trkpt>
      <trkpt lat="45.91723" lon="3.02891">
        <ele>604</ele>
        <time>2023-04-14T19:07:35.113Z</time>
      </trkpt>
      <trkpt lat="45.91707" lon="3.02914">
        <ele>602</ele>
        <time>2023-04-14T19:07:48.456Z</time>
      </trkpt>
      <trkpt lat="45.91681" lon="3.02938">
        <ele>600</ele>
        <time>2023-04-14T19:08:01.804Z</time>
      </trkpt>
      <trkpt lat="45.91654" lon="3.02948">
        <ele>598</ele>
        <time>2023-04-14T19:08:15.156Z</time>
      </trkpt>
      <trkpt lat="45.91647" lon="3.02977">
        <ele>596</ele>
        <time>2023-04-14T19:08:28.512Z</time>
      </trkpt>
      <trkpt lat="45.91646" lon="3.03008">
        <ele>594</ele>
        <time>2023-04-14T19:08:41.871Z</time>
      </trkpt>
      <trkpt lat="45.91633" lon="3.03038">
        <ele>592</ele>
        <time>2023-04-14T19:08:55.234Z</time>
      </trkpt>
      <trkpt lat="45.91595" lon="3.03028">
        <ele>591</ele>
        <time>2023-04-14T19:09:08.603Z</time>
      </trkpt>
      <trkpt lat="45.91559" lon="3.03002">
        <ele>589</ele>
        <time>2023-04-14T19:09:21.979Z</time>
      </trkpt>
      <trkpt lat="45.91464" lon="3.02943">
        <ele>588</ele>
        <time>2023-04-14T19:09:35.371Z</time>
      </trkpt>
      <trkpt lat="45.91421" lon="3.02927">
        <ele>586</ele>
        <time>2023-04-14T19:09:48.770Z</time>
      </trkpt>
      <trkpt lat="45.9138" lon="3.02916">
        <ele>585</ele>
        <time>2023-04-14T19:10:02.176Z</time>
      </trkpt>
      <trkpt lat="45.91372" lon="3.02932">
        <ele>584</ele>
        <time>2023-04-14T19:10:15.584Z</time>
      </trkpt>
      <trkpt lat="45.91408" lon="3.02986">
        <ele>582</ele>
        <time>2023-04-14T19:10:29.001Z</time>
      </trkpt>
      <trkpt lat="45.91445" lon="3.03034">
        <ele>580</ele>
        <time>2023-04-14T19:10:42.426Z</time>
      </trkpt>
      <trkpt lat="45.91473" lon="3.03063">
        <ele>578</ele>
        <time>2023-04-14T19:10:55.856Z</time>
      </trkpt>
      <trkpt lat="45.91486" lon="3.03094">
        <ele>576</ele>
        <time>2023-04-14T19:11:09.290Z</time>
      </trkpt>
      <trkpt lat="45.91557" lon="3.03221">
        <ele>574</ele>
        <time>2023-04-14T19:11:22.742Z</time>
      </trkpt>
      <trkpt lat="45.91582" lon="3.03275">
        <ele>572</ele>
        <time>2023-04-14T19:11:36.202Z</time>
      </trkpt>
      <trkpt lat="45.9158" lon="3.03333">
        <ele>570</ele>
        <time>2023-04-14T19:11:49.668Z</time>
      </trkpt>
      <trkpt lat="45.91574" lon="3.03364">
        <ele>568</ele>
        <time>2023-04-14T19:12:03.138Z</time>
      </trkpt>
      <trkpt lat="45.91558" lon="3.03386">
        <ele>566</ele>
        <time>2023-04-14T19:12:16.611Z</time>
      </trkpt>
      <trkpt lat="45.91506" lon="3.03429">
        <ele>564</ele>
        <time>2023-04-14T19:12:30.094Z</time>
      </trkpt>
      <trkpt lat="45.91471" lon="3.03451">
        <ele>562</ele>
        <time>2023-04-14T19:12:43.583Z</time>
      </trkpt>
      <trkpt lat="45.91437" lon="3.03465">
        <ele>560</ele>
        <time>2023-04-14T19:12:57.078Z</time>
      </trkpt>
      <trkpt lat="45.91367" lon="3.03465">
        <ele>558</ele>
        <time>2023-04-14T19:13:10.584Z</time>
      </trkpt>
      <trkpt lat="45.91349" lon="3.0348">
        <ele>556</ele>
        <time>2023-04-14T19:13:24.093Z</time>
      </trkpt>
      <trkpt lat="45.91346" lon="3.03496">
        <ele>554</ele>
        <time>2023-04-14T19:13:37.604Z</time>
      </trkpt>
      <trkpt lat="45.91351" lon="3.03533">
        <ele>552</ele>
        <time>2023-04-14T19:13:51.119Z</time>
      </trkpt>
      <trkpt lat="45.91388" lon="3.03604">
        <ele>550</ele>
        <time>2023-04-14T19:14:04.644Z</time>
      </trkpt>
      <trkpt lat="45.91406" lon="3.03657">
        <ele>548</ele>
        <time>2023-04-14T19:14:18.176Z</time>
      </trkpt>
      <trkpt lat="45.91417" lon="3.03697">
        <ele>546</ele>
        <time>2023-04-14T19:14:31.713Z</time>
      </trkpt>
      <trkpt lat="45.91416" lon="3.03898">
        <ele>543</ele>
        <time>2023-04-14T19:14:45.272Z</time>
      </trkpt>
      <trkpt lat="45.91415" lon="3.03944">
        <ele>541</ele>
        <time>2023-04-14T19:14:58.836Z</time>
      </trkpt>
      <trkpt lat="45.91427" lon="3.04036">
        <ele>538</ele>
        <time>2023-04-14T19:15:12.411Z</time>
      </trkpt>
      <trkpt lat="45.91445" lon="3.04121">
        <ele>536</ele>
        <time>2023-04-14T19:15:25.996Z</time>
      </trkpt>
      <trkpt lat="45.91452" lon="3.04168">
        <ele>533</ele>
        <time>2023-04-14T19:15:39.586Z</time>
      </trkpt>
      <trkpt lat="45.91447" lon="3.04201">
        <ele>530</ele>
        <time>2023-04-14T19:15:53.180Z</time>
      </trkpt>
      <trkpt lat="45.91417" lon="3.04217">
        <ele>528</ele>
        <time>2023-04-14T19:16:06.779Z</time>
      </trkpt>
      <trkpt lat="45.91406" lon="3.04235">
        <ele>526</ele>
        <time>2023-04-14T19:16:20.381Z</time>
      </trkpt>
      <trkpt lat="45.91406" lon="3.04235">
        <ele>524</ele>
        <time>2023-04-14T19:16:33.983Z</time>
      </trkpt>
      <trkpt lat="45.91389" lon="3.04264">
        <ele>522</ele>
        <time>2023-04-14T19:16:47.589Z</time>
      </trkpt>
      <trkpt lat="45.91373" lon="3.04323">
        <ele>520</ele>
        <time>2023-04-14T19:17:01.202Z</time>
      </trkpt>
      <trkpt lat="45.91346" lon="3.04443">
        <ele>517</ele>
        <time>2023-04-14T19:17:14.829Z</time>
      </trkpt>
      <trkpt lat="45.91337" lon="3.04468">
        <ele>515</ele>
        <time>2023-04-14T19:17:28.459Z</time>
      </trkpt>
      <trkpt lat="45.91323" lon="3.04491">
        <ele>513</ele>
        <time>2023-04-14T19:17:42.093Z</time>
      </trkpt>
      <trkpt lat="45.91306" lon="3.04507">
        <ele>511</ele>
        <time>2023-04-14T19:17:55.730Z</time>
      </trkpt>
      <trkpt lat="45.913" lon="3.04534">
        <ele>509</ele>
        <time>2023-04-14T19:18:09.370Z</time>
      </trkpt>
      <trkpt lat="45.91303" lon="3.04561">
        <ele>507</ele>
        <time>2023-04-14T19:18:23.013Z</time>
      </trkpt>
      <trkpt lat="45.91313" lon="3.04591">
        <ele>506</ele>
        <time>2023-04-14T19:18:36.660Z</time>
      </trkpt>
      <trkpt lat="45.91356" lon="3.04658">
        <ele>504</ele>
        <time>2023-04-14T19:18:50.317Z</time>
      </trkpt>
      <trkpt lat="45.9137" lon="3.04697">
        <ele>502</ele>
        <time>2023-04-14T19:19:03.979Z</time>
      </trkpt>
      <trkpt lat="45.91375" lon="3.04747">
        <ele>500</ele>
        <time>2023-04-14T19:19:17.646Z</time>
      </trkpt>
      <trkpt lat="45.91377" lon="3.048">
        <ele>498</ele>
        <time>2023-04-14T19:19:31.319Z</time>
      </trkpt>
      <trkpt lat="45.91375" lon="3.04885">
        <ele>497</ele>
        <time>2023-04-14T19:19:45.002Z</time>
      </trkpt>
      <trkpt lat="45.91375" lon="3.04885">
        <ele>495</ele>
        <time>2023-04-14T19:19:58.685Z</time>
      </trkpt>
      <trkpt lat="45.91374" lon="3.04925">
        <ele>494</ele>
        <time>2023-04-14T19:20:12.372Z</time>
      </trkpt>
      <trkpt lat="45.91375" lon="3.04961">
        <ele>492</ele>
        <time>2023-04-14T19:20:26.063Z</time>
      </trkpt>
      <trkpt lat="45.91382" lon="3.04984">
        <ele>491</ele>
        <time>2023-04-14T19:20:39.757Z</time>
      </trkpt>
      <trkpt lat="45.91391" lon="3.05004">
        <ele>489</ele>
        <time>2023-04-14T19:20:53.454Z</time>
      </trkpt>
      <trkpt lat="45.91441" lon="3.05082">
        <ele>488</ele>
        <time>2023-04-14T19:21:07.163Z</time>
      </trkpt>
      <trkpt lat="45.91441" lon="3.05082">
        <ele>487</ele>
        <time>2023-04-14T19:21:20.872Z</time>
      </trkpt>
      <trkpt lat="45.91455" lon="3.051">
        <ele>485</ele>
        <time>2023-04-14T19:21:34.584Z</time>
      </trkpt>
      <trkpt lat="45.91474" lon="3.05111">
        <ele>484</ele>
        <time>2023-04-14T19:21:48.299Z</time>
      </trkpt>
      <trkpt lat="45.91519" lon="3.0513">
        <ele>483</ele>
        <time>2023-04-14T19:22:02.021Z</time>
      </trkpt>
      <trkpt lat="45.91532" lon="3.05141">
        <ele>482</ele>
        <time>2023-04-14T19:22:15.746Z</time>
      </trkpt>
      <trkpt lat="45.91538" lon="3.05159">
        <ele>481</ele>
        <time>2023-04-14T19:22:29.473Z</time>
      </trkpt>
      <trkpt lat="45.91537" lon="3.05177">
        <ele>480</ele>
        <time>2023-04-14T19:22:43.202Z</time>
      </trkpt>
      <trkpt lat="45.9153" lon="3.05198">
        <ele>478</ele>
        <time>2023-04-14T19:22:56.934Z</time>
      </trkpt>
      <trkpt lat="45.9152" lon="3.05219">
        <ele>477</ele>
        <time>2023-04-14T19:23:10.669Z</time>
      </trkpt>
      <trkpt lat="45.9152" lon="3.05219">
        <ele>477</ele>
        <time>2023-04-14T19:23:24.404Z</time>
      </trkpt>
      <trkpt lat="45.91512" lon="3.05239">
        <ele>474</ele>
        <time>2023-04-14T19:23:38.141Z</time>
      </trkpt>
      <trkpt lat="45.91486" lon="3.05279">
        <ele>473</ele>
        <time>2023-04-14T19:23:51.884Z</time>
      </trkpt>
      <trkpt lat="45.91476" lon="3.05285">
        <ele>472</ele>
        <time>2023-04-14T19:24:05.629Z</time>
      </trkpt>
      <trkpt lat="45.9146" lon="3.05283">
        <ele>471</ele>
        <time>2023-04-14T19:24:19.377Z</time>
      </trkpt>
      <trkpt lat="45.91427" lon="3.05264">
        <ele>470</ele>
        <time>2023-04-14T19:24:33.130Z</time>
      </trkpt>
      <trkpt lat="45.91401" lon="3.05255">
        <ele>469</ele>
        <time>2023-04-14T19:24:46.887Z</time>
      </trkpt>
      <trkpt lat="45.91358" lon="3.05246">
        <ele>468</ele>
        <time>2023-04-14T19:25:00.651Z</time>
      </trkpt>
      <trkpt lat="45.91343" lon="3.05243">
        <ele>468</ele>
        <time>2023-04-14T19:25:14.418Z</time>
      </trkpt>
      <trkpt lat="45.91308" lon="3.05227">
        <ele>467</ele>
        <time>2023-04-14T19:25:28.191Z</time>
      </trkpt>
      <trkpt lat="45.91203" lon="3.05141">
        <ele>466</ele>
        <time>2023-04-14T19:25:41.983Z</time>
      </trkpt>
      <trkpt lat="45.91177" lon="3.05132">
        <ele>466</ele>
        <time>2023-04-14T19:25:55.779Z</time>
      </trkpt>
      <trkpt lat="45.91172" lon="3.05133">
        <ele>465</ele>
        <time>2023-04-14T19:26:09.576Z</time>
      </trkpt>
      <trkpt lat="45.91161" lon="3.05141">
        <ele>465</ele>
        <time>2023-04-14T19:26:23.375Z</time>
      </trkpt>
      <trkpt lat="45.91149" lon="3.05156">
        <ele>465</ele>
        <time>2023-04-14T19:26:37.177Z</time>
      </trkpt>
      <trkpt lat="45.91147" lon="3.05172">
        <ele>465</ele>
        <time>2023-04-14T19:26:50.981Z</time>
      </trkpt>
      <trkpt lat="45.91147" lon="3.05188">
        <ele>464</ele>
        <time>2023-04-14T19:27:04.786Z</time>
      </trkpt>
      <trkpt lat="45.91181" lon="3.05275">
        <ele>464</ele>
        <time>2023-04-14T19:27:18.602Z</time>
      </trkpt>
      <trkpt lat="45.91233" lon="3.05403">
        <ele>464</ele>
        <time>2023-04-14T19:27:32.435Z</time>
      </trkpt>
      <trkpt lat="45.91233" lon="3.05403">
        <ele>464</ele>
        <time>2023-04-14T19:27:46.268Z</time>
      </trkpt>
      <trkpt lat="45.91237" lon="3.05413">
        <ele>464</ele>
        <time>2023-04-14T19:28:00.102Z</time>
      </trkpt>
      <trkpt lat="45.91253" lon="3.05486">
        <ele>464</ele>
        <time>2023-04-14T19:28:13.945Z</time>
      </trkpt>
      <trkpt lat="45.91248" lon="3.05503">
        <ele>465</ele>
        <time>2023-04-14T19:28:27.790Z</time>
      </trkpt>
      <trkpt lat="45.91248" lon="3.05505">
        <ele>465</ele>
        <time>2023-04-14T19:28:41.635Z</time>
      </trkpt>
      <trkpt lat="45.91248" lon="3.05505">
        <ele>465</ele>
        <time>2023-04-14T19:28:55.480Z</time>
      </trkpt>
      <trkpt lat="45.91248" lon="3.05505">
        <ele>466</ele>
        <time>2023-04-14T19:29:09.325Z</time>
      </trkpt>
      <trkpt lat="45.91255" lon="3.0555">
        <ele>467</ele>
        <time>2023-04-14T19:29:23.175Z</time>
      </trkpt>
      <trkpt lat="45.91257" lon="3.0556">
        <ele>467</ele>
        <time>2023-04-14T19:29:37.027Z</time>
      </trkpt>
      <trkpt lat="45.91218" lon="3.05569">
        <ele>468</ele>
        <time>2023-04-14T19:29:50.885Z</time>
      </trkpt>
      <trkpt lat="45.91208" lon="3.0557">
        <ele>469</ele>
        <time>2023-04-14T19:30:04.745Z</time>
      </trkpt>
      <trkpt lat="45.91193" lon="3.05565">
        <ele>471</ele>
        <time>2023-04-14T19:30:18.607Z</time>
      </trkpt>
      <trkpt lat="45.9116" lon="3.05545">
        <ele>472</ele>
        <time>2023-04-14T19:30:32.475Z</time>
      </trkpt>
      <trkpt lat="45.91128" lon="3.0551">
        <ele>473</ele>
        <time>2023-04-14T19:30:46.349Z</time>
      </trkpt>
      <trkpt lat="45.91128" lon="3.0551">
        <ele>475</ele>
        <time>2023-04-14T19:31:00.223Z</time>
      </trkpt>
      <trkpt lat="45.91105" lon="3.05486">
        <ele>476</ele>
        <time>2023-04-14T19:31:14.102Z</time>
      </trkpt>
      <trkpt lat="45.91077" lon="3.0545">
        <ele>478</ele>
        <time>2023-04-14T19:31:27.987Z</time>
      </trkpt>
      <trkpt lat="45.91066" lon="3.05441">
        <ele>480</ele>
        <time>2023-04-14T19:31:41.874Z</time>
      </trkpt>
      <trkpt lat="45.91045" lon="3.05426">
        <ele>481</ele>
        <time>2023-04-14T19:31:55.765Z</time>
      </trkpt>
      <trkpt lat="45.91043" lon="3.05423">
        <ele>483</ele>
        <time>2023-04-14T19:32:09.656Z</time>
      </trkpt>
      <trkpt lat="45.91002" lon="3.05394">
        <ele>485</ele>
        <time>2023-04-14T19:32:23.554Z</time>
      </trkpt>
      <trkpt lat="45.90964" lon="3.0539">
        <ele>486</ele>
        <time>2023-04-14T19:32:37.458Z</time>
      </trkpt>
      <trkpt lat="45.90929" lon="3.05388">
        <ele>487</ele>
        <time>2023-04-14T19:32:51.368Z</time>
      </trkpt>
      <trkpt lat="45.9085" lon="3.05349">
        <ele>489</ele>
        <time>2023-04-14T19:33:05.291Z</time>
      </trkpt>
      <trkpt lat="45.90809" lon="3.05316">
        <ele>490</ele>
        <time>2023-04-14T19:33:19.222Z</time>
      </trkpt>
      <trkpt lat="45.90782" lon="3.05302">
        <ele>492</ele>
        <time>2023-04-14T19:33:33.158Z</time>
      </trkpt>
      <trkpt lat="45.9069" lon="3.05273">
        <ele>493</ele>
        <time>2023-04-14T19:33:47.109Z</time>
      </trkpt>
      <trkpt lat="45.90659" lon="3.05268">
        <ele>495</ele>
        <time>2023-04-14T19:34:01.065Z</time>
      </trkpt>
      <trkpt lat="45.90643" lon="3.05269">
        <ele>496</ele>
        <time>2023-04-14T19:34:15.023Z</time>
      </trkpt>
      <trkpt lat="45.90633" lon="3.0527">
        <ele>497</ele>
        <time>2023-04-14T19:34:28.983Z</time>
      </trkpt>
      <trkpt lat="45.90557" lon="3.05295">
        <ele>498</ele>
        <time>2023-04-14T19:34:42.955Z</time>
      </trkpt>
      <trkpt lat="45.90543" lon="3.05303">
        <ele>499</ele>
        <time>2023-04-14T19:34:56.930Z</time>
      </trkpt>
      <trkpt lat="45.90527" lon="3.05312">
        <ele>500</ele>
        <time>2023-04-14T19:35:10.907Z</time>
      </trkpt>
      <trkpt lat="45.90485" lon="3.05348">
        <ele>501</ele>
        <time>2023-04-14T19:35:24.892Z</time>
      </trkpt>
      <trkpt lat="45.90468" lon="3.05358">
        <ele>501</ele>
        <time>2023-04-14T19:35:38.880Z</time>
      </trkpt>
      <trkpt lat="45.90447" lon="3.05363">
        <ele>501</ele>
        <time>2023-04-14T19:35:52.872Z</time>
      </trkpt>
      <trkpt lat="45.90404" lon="3.05363">
        <ele>502</ele>
        <time>2023-04-14T19:36:06.870Z</time>
      </trkpt>
      <trkpt lat="45.90395" lon="3.05359">
        <ele>502</ele>
        <time>2023-04-14T19:36:20.870Z</time>
      </trkpt>
      <trkpt lat="45.90379" lon="3.05348">
        <ele>501</ele>
        <time>2023-04-14T19:36:34.873Z</time>
      </trkpt>
      <trkpt lat="45.90364" lon="3.05331">
        <ele>501</ele>
        <time>2023-04-14T19:36:48.879Z</time>
      </trkpt>
      <trkpt lat="45.90356" lon="3.05317">
        <ele>501</ele>
        <time>2023-04-14T19:37:02.887Z</time>
      </trkpt>
      <trkpt lat="45.90353" lon="3.05301">
        <ele>500</ele>
        <time>2023-04-14T19:37:16.897Z</time>
      </trkpt>
      <trkpt lat="45.90353" lon="3.05283">
        <ele>499</ele>
        <time>2023-04-14T19:37:30.909Z</time>
      </trkpt>
      <trkpt lat="45.90355" lon="3.05245">
        <ele>498</ele>
        <time>2023-04-14T19:37:44.925Z</time>
      </trkpt>
      <trkpt lat="45.90356" lon="3.05199">
        <ele>497</ele>
        <time>2023-04-14T19:37:58.946Z</time>
      </trkpt>
      <trkpt lat="45.90337" lon="3.05018">
        <ele>496</ele>
        <time>2023-04-14T19:38:12.988Z</time>
      </trkpt>
      <trkpt lat="45.90325" lon="3.0494">
        <ele>494</ele>
        <time>2023-04-14T19:38:27.039Z</time>
      </trkpt>
      <trkpt lat="45.90317" lon="3.04916">
        <ele>493</ele>
        <time>2023-04-14T19:38:41.093Z</time>
      </trkpt>
      <trkpt lat="45.90307" lon="3.04896">
        <ele>491</ele>
        <time>2023-04-14T19:38:55.149Z</time>
      </trkpt>
      <trkpt lat="45.90292" lon="3.04875">
        <ele>490</ele>
        <time>2023-04-14T19:39:09.209Z</time>
      </trkpt>
      <trkpt lat="45.90266" lon="3.04847">
        <ele>488</ele>
        <time>2023-04-14T19:39:23.274Z</time>
      </trkpt>
      <trkpt lat="45.90234" lon="3.04818">
        <ele>487</ele>
        <time>2023-04-14T19:39:37.345Z</time>
      </trkpt>
      <trkpt lat="45.90234" lon="3.04818">
        <ele>485</ele>
        <time>2023-04-14T19:39:51.416Z</time>
      </trkpt>
      <trkpt lat="45.90223" lon="3.04808">
        <ele>484</ele>
        <time>2023-04-14T19:40:05.489Z</time>
      </trkpt>
      <trkpt lat="45.90216" lon="3.04801">
        <ele>482</ele>
        <time>2023-04-14T19:40:19.563Z</time>
      </trkpt>
      <trkpt lat="45.90195" lon="3.04782">
        <ele>481</ele>
        <time>2023-04-14T19:40:33.641Z</time>
      </trkpt>
      <trkpt lat="45.9018" lon="3.04771">
        <ele>479</ele>
        <time>2023-04-14T19:40:47.722Z</time>
      </trkpt>
      <trkpt lat="45.90165" lon="3.04764">
        <ele>478</ele>
        <time>2023-04-14T19:41:01.806Z</time>
      </trkpt>
      <trkpt lat="45.90102" lon="3.04757">
        <ele>476</ele>
        <time>2023-04-14T19:41:15.900Z</time>
      </trkpt>
      <trkpt lat="45.90069" lon="3.04754">
        <ele>474</ele>
        <time>2023-04-14T19:41:29.999Z</time>
      </trkpt>
      <trkpt lat="45.90035" lon="3.04745">
        <ele>473</ele>
        <time>2023-04-14T19:41:44.103Z</time>
      </trkpt>
      <trkpt lat="45.89987" lon="3.04732">
        <ele>471</ele>
        <time>2023-04-14T19:41:58.215Z</time>
      </trkpt>
      <trkpt lat="45.89975" lon="3.04727">
        <ele>470</ele>
        <time>2023-04-14T19:42:12.329Z</time>
      </trkpt>
      <trkpt lat="45.89963" lon="3.04717">
        <ele>469</ele>
        <time>2023-04-14T19:42:26.445Z</time>
      </trkpt>
      <trkpt lat="45.89956" lon="3.04704">
        <ele>468</ele>
        <time>2023-04-14T19:42:40.563Z</time>
      </trkpt>
      <trkpt lat="45.89933" lon="3.04655">
        <ele>468</ele>
        <time>2023-04-14T19:42:54.688Z</time>
      </trkpt>
      <trkpt lat="45.89929" lon="3.04646">
        <ele>467</ele>
        <time>2023-04-14T19:43:08.814Z</time>
      </trkpt>
      <trkpt lat="45.89901" lon="3.04605">
        <ele>466</ele>
        <time>2023-04-14T19:43:22.947Z</time>
      </trkpt>
      <trkpt lat="45.89892" lon="3.04593">
        <ele>466</ele>
        <time>2023-04-14T19:43:37.082Z</time>
      </trkpt>
      <trkpt lat="45.89882" lon="3.04586">
        <ele>465</ele>
        <time>2023-04-14T19:43:51.218Z</time>
      </trkpt>
      <trkpt lat="45.89874" lon="3.04584">
        <ele>464</ele>
        <time>2023-04-14T19:44:05.356Z</time>
      </trkpt>
      <trkpt lat="45.89868" lon="3.04586">
        <ele>463</ele>
        <time>2023-04-14T19:44:19.495Z</time>
      </trkpt>
      <trkpt lat="45.89868" lon="3.04586">
        <ele>463</ele>
        <time>2023-04-14T19:44:33.634Z</time>
      </trkpt>
      <trkpt lat="45.89855" lon="3.04595">
        <ele>462</ele>
        <time>2023-04-14T19:44:47.775Z</time>
      </trkpt>
      <trkpt lat="45.89851" lon="3.04602">
        <ele>462</ele>
        <time>2023-04-14T19:45:01.917Z</time>
      </trkpt>
      <trkpt lat="45.89848" lon="3.04613">
        <ele>461</ele>
        <time>2023-04-14T19:45:16.060Z</time>
      </trkpt>
      <trkpt lat="45.89846" lon="3.04623">
        <ele>460</ele>
        <time>2023-04-14T19:45:30.204Z</time>
      </trkpt>
      <trkpt lat="45.89848" lon="3.04635">
        <ele>459</ele>
        <time>2023-04-14T19:45:44.350Z</time>
      </trkpt>
      <trkpt lat="45.89851" lon="3.04647">
        <ele>458</ele>
        <time>2023-04-14T19:45:58.497Z</time>
      </trkpt>
      <trkpt lat="45.89855" lon="3.0466">
        <ele>457</ele>
        <time>2023-04-14T19:46:12.646Z</time>
      </trkpt>
      <trkpt lat="45.89855" lon="3.0466">
        <ele>456</ele>
        <time>2023-04-14T19:46:26.795Z</time>
      </trkpt>
      <trkpt lat="45.89863" lon="3.04681">
        <ele>455</ele>
        <time>2023-04-14T19:46:40.946Z</time>
      </trkpt>
      <trkpt lat="45.89865" lon="3.04691">
        <ele>454</ele>
        <time>2023-04-14T19:46:55.099Z</time>
      </trkpt>
      <trkpt lat="45.89864" lon="3.04702">
        <ele>453</ele>
        <time>2023-04-14T19:47:09.253Z</time>
      </trkpt>
      <trkpt lat="45.89862" lon="3.04712">
        <ele>452</ele>
        <time>2023-04-14T19:47:23.408Z</time>
      </trkpt>
      <trkpt lat="45.89853" lon="3.04726">
        <ele>451</ele>
        <time>2023-04-14T19:47:37.565Z</time>
      </trkpt>
      <trkpt lat="45.89846" lon="3.04734">
        <ele>450</ele>
        <time>2023-04-14T19:47:51.723Z</time>
      </trkpt>
      <trkpt lat="45.89833" lon="3.04745">
        <ele>449</ele>
        <time>2023-04-14T19:48:05.884Z</time>
      </trkpt>
      <trkpt lat="45.89784" lon="3.04791">
        <ele>448</ele>
        <time>2023-04-14T19:48:20.054Z</time>
      </trkpt>
      <trkpt lat="45.89745" lon="3.04838">
        <ele>447</ele>
        <time>2023-04-14T19:48:34.233Z</time>
      </trkpt>
      <trkpt lat="45.89725" lon="3.04865">
        <ele>446</ele>
        <time>2023-04-14T19:48:48.416Z</time>
      </trkpt>
      <trkpt lat="45.89717" lon="3.04881">
        <ele>446</ele>
        <time>2023-04-14T19:49:02.601Z</time>
      </trkpt>
      <trkpt lat="45.897" lon="3.0492">
        <ele>444</ele>
        <time>2023-04-14T19:49:16.791Z</time>
      </trkpt>
      <trkpt lat="45.8969" lon="3.04937">
        <ele>443</ele>
        <time>2023-04-14T19:49:30.984Z</time>
      </trkpt>
      <trkpt lat="45.89666" lon="3.04975">
        <ele>442</ele>
        <time>2023-04-14T19:49:45.182Z</time>
      </trkpt>
      <trkpt lat="45.89653" lon="3.04986">
        <ele>442</ele>
        <time>2023-04-14T19:49:59.383Z</time>
      </trkpt>
      <trkpt lat="45.89613" lon="3.05021">
        <ele>441</ele>
        <time>2023-04-14T19:50:13.591Z</time>
      </trkpt>
      <trkpt lat="45.89601" lon="3.05034">
        <ele>441</ele>
        <time>2023-04-14T19:50:27.802Z</time>
      </trkpt>
      <trkpt lat="45.89585" lon="3.05051">
        <ele>441</ele>
        <time>2023-04-14T19:50:42.016Z</time>
      </trkpt>
      <trkpt lat="45.89574" lon="3.05056">
        <ele>440</ele>
        <time>2023-04-14T19:50:56.232Z</time>
      </trkpt>
      <trkpt lat="45.89534" lon="3.05058">
        <ele>440</ele>
        <time>2023-04-14T19:51:10.454Z</time>
      </trkpt>
      <trkpt lat="45.89499" lon="3.05066">
        <ele>440</ele>
        <time>2023-04-14T19:51:24.682Z</time>
      </trkpt>
      <trkpt lat="45.89472" lon="3.05073">
        <ele>440</ele>
        <time>2023-04-14T19:51:38.914Z</time>
      </trkpt>
      <trkpt lat="45.89448" lon="3.05085">
        <ele>440</ele>
        <time>2023-04-14T19:51:53.150Z</time>
      </trkpt>
      <trkpt lat="45.89429" lon="3.05099">
        <ele>441</ele>
        <time>2023-04-14T19:52:07.390Z</time>
      </trkpt>
      <trkpt lat="45.89414" lon="3.05108">
        <ele>441</ele>
        <time>2023-04-14T19:52:21.632Z</time>
      </trkpt>
      <trkpt lat="45.89404" lon="3.05107">
        <ele>441</ele>
        <time>2023-04-14T19:52:35.876Z</time>
      </trkpt>
      <trkpt lat="45.89384" lon="3.05104">
        <ele>441</ele>
        <time>2023-04-14T19:52:50.123Z</time>
      </trkpt>
      <trkpt lat="45.89288" lon="3.05062">
        <ele>441</ele>
        <time>2023-04-14T19:53:04.386Z</time>
      </trkpt>
      <trkpt lat="45.89279" lon="3.05057">
        <ele>442</ele>
        <time>2023-04-14T19:53:18.651Z</time>
      </trkpt>
      <trkpt lat="45.89216" lon="3.05029">
        <ele>442</ele>
        <time>2023-04-14T19:53:32.926Z</time>
      </trkpt>
      <trkpt lat="45.89216" lon="3.05029">
        <ele>442</ele>
        <time>2023-04-14T19:53:47.201Z</time>
      </trkpt>
      <trkpt lat="45.89198" lon="3.05022">
        <ele>442</ele>
        <time>2023-04-14T19:54:01.479Z</time>
      </trkpt>
      <trkpt lat="45.89105" lon="3.04991">
        <ele>442</ele>
        <time>2023-04-14T19:54:15.773Z</time>
      </trkpt>
      <trkpt lat="45.89062" lon="3.0497">
        <ele>441</ele>
        <time>2023-04-14T19:54:30.074Z</time>
      </trkpt>
      <trkpt lat="45.89028" lon="3.04948">
        <ele>441</ele>
        <time>2023-04-14T19:54:44.381Z</time>
      </trkpt>
      <trkpt lat="45.88988" lon="3.04925">
        <ele>441</ele>
        <time>2023-04-14T19:54:58.695Z</time>
      </trkpt>
      <trkpt lat="45.88988" lon="3.04925">
        <ele>441</ele>
        <time>2023-04-14T19:55:13.009Z</time>
      </trkpt>
      <trkpt lat="45.88975" lon="3.04918">
        <ele>441</ele>
        <time>2023-04-14T19:55:27.325Z</time>
      </trkpt>
      <trkpt lat="45.88966" lon="3.04915">
        <ele>441</ele>
        <time>2023-04-14T19:55:41.642Z</time>
      </trkpt>
      <trkpt lat="45.88945" lon="3.04912">
        <ele>440</ele>
        <time>2023-04-14T19:55:55.963Z</time>
      </trkpt>
      <trkpt lat="45.88945" lon="3.04912">
        <ele>440</ele>
        <time>2023-04-14T19:56:10.284Z</time>
      </trkpt>
      <trkpt lat="45.8894" lon="3.04909">
        <ele>440</ele>
        <time>2023-04-14T19:56:24.606Z</time>
      </trkpt>
      <trkpt lat="45.88936" lon="3.04906">
        <ele>440</ele>
        <time>2023-04-14T19:56:38.928Z</time>
      </trkpt>
      <trkpt lat="45.88932" lon="3.04902">
        <ele>440</ele>
        <time>2023-04-14T19:56:53.251Z</time>
      </trkpt>
      <trkpt lat="45.88917" lon="3.04872">
        <ele>440</ele>
        <time>2023-04-14T19:57:07.578Z</time>
      </trkpt>
      <trkpt lat="45.88905" lon="3.04855">
        <ele>439</ele>
        <time>2023-04-14T19:57:21.908Z</time>
      </trkpt>
      <trkpt lat="45.88894" lon="3.04847">
        <ele>439</ele>
        <time>2023-04-14T19:57:36.240Z</time>
      </trkpt>
      <trkpt lat="45.88894" lon="3.04847">
        <ele>439</ele>
        <time>2023-04-14T19:57:50.572Z</time>
      </trkpt>
      <trkpt lat="45.88864" lon="3.04827">
        <ele>439</ele>
        <time>2023-04-14T19:58:04.909Z</time>
      </trkpt>
      <trkpt lat="45.88833" lon="3.04802">
        <ele>439</ele>
        <time>2023-04-14T19:58:19.252Z</time>
      </trkpt>
      <trkpt lat="45.88802" lon="3.04777">
        <ele>439</ele>
        <time>2023-04-14T19:58:33.601Z</time>
      </trkpt>
      <trkpt lat="45.88797" lon="3.04774">
        <ele>439</ele>
        <time>2023-04-14T19:58:47.951Z</time>
      </trkpt>
      <trkpt lat="45.88769" lon="3.04752">
        <ele>440</ele>
        <time>2023-04-14T19:59:02.306Z</time>
      </trkpt>
      <trkpt lat="45.88745" lon="3.04733">
        <ele>440</ele>
        <time>2023-04-14T19:59:16.665Z</time>
      </trkpt>
      <trkpt lat="45.88726" lon="3.04724">
        <ele>440</ele>
        <time>2023-04-14T19:59:31.027Z</time>
      </trkpt>
      <trkpt lat="45.88667" lon="3.04716">
        <ele>440</ele>
        <time>2023-04-14T19:59:45.399Z</time>
      </trkpt>
      <trkpt lat="45.88649" lon="3.04713">
        <ele>441</ele>
        <time>2023-04-14T19:59:59.774Z</time>
      </trkpt>
      <trkpt lat="45.88632" lon="3.04708">
        <ele>441</ele>
        <time>2023-04-14T20:00:14.151Z</time>
      </trkpt>
      <trkpt lat="45.88615" lon="3.04695">
        <ele>442</ele>
        <time>2023-04-14T20:00:28.532Z</time>
      </trkpt>
      <trkpt lat="45.88589" lon="3.0467">
        <ele>442</ele>
        <time>2023-04-14T20:00:42.917Z</time>
      </trkpt>
      <trkpt lat="45.88562" lon="3.04645">
        <ele>443</ele>
        <time>2023-04-14T20:00:57.308Z</time>
      </trkpt>
      <trkpt lat="45.88542" lon="3.04623">
        <ele>444</ele>
        <time>2023-04-14T20:01:11.703Z</time>
      </trkpt>
      <trkpt lat="45.88458" lon="3.04493">
        <ele>446</ele>
        <time>2023-04-14T20:01:26.117Z</time>
      </trkpt>
      <trkpt lat="45.88449" lon="3.04483">
        <ele>447</ele>
        <time>2023-04-14T20:01:40.533Z</time>
      </trkpt>
      <trkpt lat="45.88432" lon="3.04478">
        <ele>448</ele>
        <time>2023-04-14T20:01:54.952Z</time>
      </trkpt>
      <trkpt lat="45.8838" lon="3.04482">
        <ele>450</ele>
        <time>2023-04-14T20:02:09.379Z</time>
      </trkpt>
      <trkpt lat="45.88365" lon="3.0448">
        <ele>451</ele>
        <time>2023-04-14T20:02:23.809Z</time>
      </trkpt>
      <trkpt lat="45.88302" lon="3.04459">
        <ele>453</ele>
        <time>2023-04-14T20:02:38.249Z</time>
      </trkpt>
      <trkpt lat="45.88278" lon="3.04445">
        <ele>454</ele>
        <time>2023-04-14T20:02:52.693Z</time>
      </trkpt>
      <trkpt lat="45.88259" lon="3.04428">
        <ele>456</ele>
        <time>2023-04-14T20:03:07.141Z</time>
      </trkpt>
      <trkpt lat="45.88247" lon="3.04408">
        <ele>458</ele>
        <time>2023-04-14T20:03:21.592Z</time>
      </trkpt>
      <trkpt lat="45.88247" lon="3.04408">
        <ele>460</ele>
        <time>2023-04-14T20:03:36.043Z</time>
      </trkpt>
      <trkpt lat="45.8821" lon="3.04312">
        <ele>462</ele>
        <time>2023-04-14T20:03:50.506Z</time>
      </trkpt>
      <trkpt lat="45.88202" lon="3.04291">
        <ele>464</ele>
        <time>2023-04-14T20:04:04.972Z</time>
      </trkpt>
      <trkpt lat="45.88186" lon="3.04264">
        <ele>466</ele>
        <time>2023-04-14T20:04:19.442Z</time>
      </trkpt>
      <trkpt lat="45.88104" lon="3.04176">
        <ele>469</ele>
        <time>2023-04-14T20:04:33.928Z</time>
      </trkpt>
      <trkpt lat="45.88104" lon="3.04176">
        <ele>470</ele>
        <time>2023-04-14T20:04:48.414Z</time>
      </trkpt>
      <trkpt lat="45.881" lon="3.04172">
        <ele>472</ele>
        <time>2023-04-14T20:05:02.901Z</time>
      </trkpt>
      <trkpt lat="45.88079" lon="3.04154">
        <ele>473</ele>
        <time>2023-04-14T20:05:17.392Z</time>
      </trkpt>
      <trkpt lat="45.88058" lon="3.04143">
        <ele>474</ele>
        <time>2023-04-14T20:05:31.886Z</time>
      </trkpt>
      <trkpt lat="45.88034" lon="3.04142">
        <ele>476</ele>
        <time>2023-04-14T20:05:46.384Z</time>
      </trkpt>
      <trkpt lat="45.88008" lon="3.04151">
        <ele>477</ele>
        <time>2023-04-14T20:06:00.887Z</time>
      </trkpt>
      <trkpt lat="45.87928" lon="3.04218">
        <ele>479</ele>
        <time>2023-04-14T20:06:15.404Z</time>
      </trkpt>
      <trkpt lat="45.87928" lon="3.04218">
        <ele>480</ele>
        <time>2023-04-14T20:06:29.921Z</time>
      </trkpt>
      <trkpt lat="45.87912" lon="3.04226">
        <ele>481</ele>
        <time>2023-04-14T20:06:44.441Z</time>
      </trkpt>
      <trkpt lat="45.87881" lon="3.04232">
        <ele>483</ele>
        <time>2023-04-14T20:06:58.966Z</time>
      </trkpt>
      <trkpt lat="45.87767" lon="3.04229">
        <ele>485</ele>
        <time>2023-04-14T20:07:13.509Z</time>
      </trkpt>
      <trkpt lat="45.8771" lon="3.04224">
        <ele>487</ele>
        <time>2023-04-14T20:07:28.061Z</time>
      </trkpt>
      <trkpt lat="45.87608" lon="3.04176">
        <ele>487</ele>
        <time>2023-04-14T20:07:42.631Z</time>
      </trkpt>
    </trkseg>
  </trk>
</gpx>